[[{"header":{"parameterUnit":"m.s-1","parameterCategory":1,"la1":31.0,"la2":29.5877,"lo1":-88.7671,"lo2":-86.6584,"dy":0.0162,"dx":0.0185,"nx":115,"ny":88,"refTime":"2023-03-13T06:00:00:Z","depth":0,"parameterNumber":2,"parameterNumberName":"U-component_of_WINDS"},"data":[0.0,0.0,0.0,0.0,0.0,0.0,0.0,0.0,0.0,0.0,0.0,0.0,0.0,0.0,0.0,0.0,0.0,0.0,0.0,0.0,0.0,0.0,0.0,0.0,0.0,0.0,0.0,0.0,0.0,0.0,0.0,0.0,0.0,0.0,0.0,0.0,0.0,0.0,0.0,0.0,0.0,0.0,0.0,0.0,0.0,0.0,0.0,0.0,0.0,0.0,0.0,0.0,0.0,0.0,0.0,0.0,0.0,0.0,0.0,0.0,0.0,0.0,0.0,0.0,0.0,0.0,0.0,0.0,0.0,0.0,0.0,0.0,0.0,0.0,0.0,0.0,0.0,0.0,0.0,0.0,0.0,0.0,0.0,0.0,0.0,0.0,0.0,0.0,0.0,0.0,0.0,0.0,0.0,0.0,0.0,0.0,0.0,0.0,0.0,0.0,0.0,0.0,0.0,0.0,0.0,0.0,0.0,0.0,0.0,0.0,0.0,0.0,0.0,0.0,0.0,0.0,0.0,0.0,0.0,0.0,0.0,0.0,0.0,0.0,0.0,0.0,0.0,0.0,0.0,0.0,0.0,0.0,0.0,0.0,0.0,0.0,0.0,0.0,0.0,0.0,0.0,0.0,0.0,0.0,0.0,0.0,0.0,0.0,0.0,0.0,0.0,0.0,0.0,0.0,0.0,0.0,0.0,0.0,0.0,0.0,0.0,0.0,0.0,0.0,0.0,0.0,0.0,0.0,0.0,0.0,0.0,0.0,0.0,0.0,0.0,0.0,0.0,0.0,0.0,0.0,0.0,0.0,0.0,0.0,0.0,0.0,0.0,0.0,0.0,0.0,0.0,0.0,0.0,0.0,0.0,0.0,0.0,0.0,0.0,0.0,0.0,0.0,0.0,0.0,0.0,0.0,0.0,0.0,0.0,0.0,0.0,0.0,0.0,0.0,0.0,0.0,0.0,0.0,0.0,0.0,0.0,0.0,0.0,0.0,0.0,0.0,0.0,0.0,0.0,0.0,0.0,0.0,0.0,0.0,0.0,0.0,0.0,0.0,0.0,0.0,0.0,0.0,0.0,0.0,0.0,0.0,0.0,0.0,0.0,0.0,0.0,0.0,0.0,0.0,0.0,0.0,0.0,0.0,0.0,0.0,0.0,0.0,0.0,0.0,0.0,0.0,0.0,0.0,0.0,0.0,0.0,0.0,0.0,0.0,0.0,0.0,0.0,0.0,0.0,0.0,0.0,0.0,0.0,0.0,0.0,0.0,0.0,0.0,0.0,0.0,0.0,0.0,0.0,0.0,0.0,0.0,0.0,0.0,0.0,0.0,0.0,0.0,0.0,0.0,0.0,0.0,0.0,0.0,0.0,0.0,0.0,0.0,0.0,0.0,0.0,0.0,0.0,0.0,0.0,0.0,0.0,0.0,0.0,0.0,0.0,0.0,0.0,0.0,0.0,0.0,0.0,0.0,0.0,0.0,0.0,0.0,0.0,0.0,0.0,0.0,0.0,0.0,0.0,0.0,0.0,0.0,0.0,0.0,0.0,0.0,0.0,0.0,0.0,0.0,0.0,0.0,0.0,0.0,0.0,0.0,0.0,0.0,0.0,0.0,0.0,0.0,0.0,0.0,0.0,0.0,0.0,0.0,0.0,0.0,0.0,0.0,0.0,0.0,0.0,0.0,0.0,0.0,0.0,0.0,0.0,0.0,0.0,0.0,0.0,0.0,0.0,0.0,0.0,0.0,0.0,0.0,0.0,0.0,0.0,0.0,0.0,0.0,0.0,0.0,0.0,0.0,0.0,0.0,0.0,0.0,0.0,0.0,0.0,0.0,0.0,0.0,0.0,0.0,0.0,0.0,0.0,0.0,0.0,0.0,0.0,0.0,0.0,0.0,0.0,0.0,0.0,0.0,0.0,0.0,0.0,0.0,0.0,0.0,0.0,0.0,0.0,0.0,0.0,0.0,0.0,0.0,0.0,0.0,0.0,0.0,0.0,0.0,0.0,0.0,0.0,0.0,0.0,0.0,0.0,0.0,0.0,0.0,0.0,0.0,0.0,0.0,0.0,0.0,0.0,0.0,0.0,0.0,0.0,0.0,0.0,0.0,0.0,0.0,0.0,0.0,0.0,0.0,0.0,0.0,0.0,0.0,0.0,0.0,0.0,0.0,0.0,0.0,0.0,0.0,0.0,0.0,0.0,0.0,0.0,0.0,0.0,0.0,0.0,0.0,0.0,0.0,0.0,0.0,0.0,0.0,0.0,0.0,0.0,0.0,0.0,0.0,0.0,0.0,0.0,0.0,0.0,0.0,0.0,0.0,0.0,0.0,0.0,0.0,0.0,0.0,0.0,0.0,0.0,0.0,0.0,0.0,0.0,0.0,0.0,0.0,0.0,0.0,0.0,0.0,0.0,0.0,0.0,0.0,0.0,0.0,0.0,0.0,0.0,0.0,0.0,0.0,0.0,0.0,0.0,0.0,0.0,0.0,0.0,0.0,0.0,0.0,0.0,0.0,0.0,0.0,0.0,0.0,0.0,0.0,0.0,0.0,0.0,0.0,0.0,0.0,0.0,0.0,0.0,0.0,0.0,0.0,0.0,0.0,0.0,0.0,0.0,0.0,0.0,0.0,0.0,0.0,0.0,0.0,0.0,0.0,0.0,0.0,0.0,0.0,0.0,0.0,0.0,0.0,0.0,0.0,0.0,0.0,0.0,0.0,0.0,0.0,0.0,0.0,0.0,0.0,0.0,0.0,0.0,0.0,0.0,0.0,0.0,0.0,0.0,0.0,0.0,0.0,0.0,0.0,0.0,0.0,0.0,0.0,0.0,0.0,0.0,0.0,0.0,0.0,0.0,0.0,0.0,0.0,0.0,0.0,0.0,0.0,0.0,0.0,0.0,0.0,0.0,0.0,0.0,0.0,0.0,0.0,0.0,0.0,0.0,0.0,0.0,0.0,0.0,0.0,0.0,0.0,0.0,0.0,0.0,0.0,0.0,0.0,0.0,0.0,0.0,0.0,0.0,0.0,0.0,0.0,0.0,0.0,0.0,0.0,0.0,0.0,0.0,0.0,0.0,0.0,0.0,0.0,0.0,0.0,0.0,0.0,0.0,0.0,0.0,0.0,0.0,0.0,0.0,0.0,0.0,0.0,0.0,0.0,0.0,0.0,0.0,0.0,0.0,0.0,0.0,0.0,0.0,0.0,0.0,0.0,0.0,0.0,0.0,0.0,0.0,0.0,0.0,0.0,0.0,0.0,0.0,0.0,0.0,0.0,0.0,0.0,0.0,0.0,0.0,0.0,0.0,0.0,0.0,0.0,0.0,0.0,0.0,0.0,0.0,0.0,0.0,0.0,0.0,0.0,0.0,0.0,0.0,0.0,0.0,0.0,0.0,0.0,0.0,0.0,0.0,0.0,0.0,0.0,0.0,0.0,0.0,0.0,0.0,0.0,0.0,0.0,0.0,0.0,0.0,0.0,0.0,0.0,0.0,0.0,0.0,0.0,0.0,0.0,0.0,0.0,0.0,0.0,0.0,0.0,0.0,0.0,0.0,0.0,0.0,0.0,0.0,0.0,0.0,0.0,0.0,0.0,0.0,0.0,0.0,0.0,0.0,0.0,0.0,0.0,0.0,0.0,0.0,0.0,0.0,0.0,0.0,0.0,0.0,0.0,0.0,0.0,0.0,0.0,0.0,0.0,0.0,0.0,0.0,0.0,0.0,0.0,0.0,0.0,0.0,0.0,0.0,0.0,0.0,0.0,0.0,0.0,0.0,0.0,0.0,0.0,0.0,0.0,0.0,0.0,0.0,0.0,0.0,0.0,0.0,0.0,0.0,0.0,0.0,0.0,0.0,0.0,0.0,0.0,0.0,0.0,0.0,0.0,0.0,0.0,0.0,0.0,0.0,0.0,0.0,0.0,0.0,0.0,0.0,0.0,0.0,0.0,0.0,0.0,0.0,0.0,0.0,0.0,0.0,0.0,0.0,0.0,0.0,0.0,0.0,0.0,0.0,0.0,0.0,0.0,0.0,0.0,0.0,0.0,0.0,0.0,0.0,0.0,0.0,0.0,0.0,0.0,0.0,0.0,0.0,0.0,0.0,0.0,0.0,0.0,0.0,0.0,0.0,0.0,0.0,0.0,0.0,0.0,0.0,0.0,0.0,0.0,0.0,0.0,0.0,0.0,0.0,0.0,0.0,0.0,0.0,0.0,0.0,0.0,0.0,0.0,0.0,0.0,0.0,0.0,0.0,0.0,0.0,0.0,0.0,0.0,3.5669,0.0,0.0,0.0,0.0,0.0,0.0,0.0,0.0,0.0,0.0,0.0,0.0,0.0,0.0,0.0,0.0,0.0,0.0,0.0,0.0,0.0,0.0,0.0,0.0,0.0,0.0,0.0,0.0,0.0,0.0,0.0,0.0,0.0,0.0,0.0,0.0,0.0,0.0,0.0,0.0,0.0,0.0,0.0,0.0,0.0,0.0,0.0,0.0,0.0,0.0,0.0,0.0,0.0,0.0,0.0,0.0,0.0,0.0,0.0,0.0,0.0,0.0,0.0,0.0,0.0,0.0,0.0,0.0,0.0,0.0,0.0,0.0,0.0,0.0,0.0,0.0,0.0,0.0,0.0,0.0,0.0,0.0,0.0,0.0,0.0,0.0,0.0,0.0,0.0,0.0,0.0,0.0,0.0,0.0,0.0,0.0,0.0,0.0,0.0,0.0,0.0,0.0,0.0,0.0,0.0,0.0,0.0,0.0,0.0,0.0,3.8215,3.8093,3.7138,3.6385,3.5894,0.0,0.0,0.0,0.0,0.0,0.0,0.0,0.0,0.0,0.0,0.0,0.0,0.0,0.0,0.0,0.0,0.0,0.0,0.0,0.0,0.0,0.0,0.0,0.0,0.0,0.0,0.0,0.0,0.0,0.0,0.0,0.0,0.0,0.0,0.0,0.0,0.0,0.0,0.0,0.0,0.0,0.0,0.0,0.0,0.0,0.0,0.0,0.0,0.0,0.0,0.0,0.0,0.0,0.0,0.0,0.0,0.0,0.0,0.0,0.0,0.0,0.0,0.0,0.0,0.0,0.0,0.0,0.0,0.0,0.0,0.0,0.0,0.0,0.0,0.0,0.0,0.0,0.0,0.0,0.0,0.0,0.0,0.0,0.0,0.0,0.0,0.0,0.0,0.0,0.0,0.0,0.0,0.0,0.0,0.0,0.0,0.0,0.0,0.0,0.0,0.0,0.0,0.0,0.0,0.0,0.0,0.0,0.0,0.0,0.0,0.0,0.0,3.8153,3.7359,3.5969,0.0,0.0,0.0,0.0,0.0,0.0,0.0,0.0,0.0,0.0,0.0,0.0,0.0,0.0,0.0,0.0,0.0,0.0,0.0,0.0,0.0,0.0,0.0,0.0,0.0,0.0,0.0,0.0,0.0,0.0,0.0,0.0,0.0,0.0,0.0,0.0,0.0,0.0,0.0,0.0,0.0,0.0,0.0,0.0,0.0,0.0,0.0,0.0,0.0,0.0,0.0,0.0,0.0,0.0,0.0,0.0,0.0,0.0,0.0,0.0,0.0,0.0,0.0,0.0,0.0,0.0,0.0,0.0,0.0,0.0,0.0,0.0,0.0,0.0,0.0,0.0,0.0,0.0,0.0,0.0,0.0,0.0,0.0,0.0,0.0,0.0,0.0,0.0,0.0,0.0,0.0,0.0,0.0,0.0,0.0,0.0,0.0,0.0,0.0,0.0,0.0,0.0,0.0,0.0,0.0,0.0,0.0,0.0,0.0,0.0,3.8532,3.9163,3.789,0.0,3.5975,0.0,0.0,0.0,0.0,0.0,0.0,0.0,0.0,0.0,0.0,0.0,0.0,0.0,0.0,0.0,0.0,0.0,0.0,0.0,0.0,0.0,0.0,0.0,0.0,0.0,0.0,0.0,0.0,0.0,0.0,0.0,0.0,0.0,0.0,0.0,0.0,0.0,0.0,0.0,0.0,0.0,0.0,0.0,0.0,0.0,0.0,0.0,0.0,0.0,0.0,0.0,0.0,0.0,0.0,0.0,0.0,0.0,0.0,0.0,0.0,0.0,0.0,0.0,0.0,0.0,0.0,0.0,0.0,0.0,0.0,0.0,0.0,0.0,0.0,0.0,0.0,0.0,0.0,0.0,0.0,0.0,0.0,0.0,0.0,0.0,0.0,0.0,0.0,0.0,0.0,0.0,0.0,0.0,0.0,0.0,0.0,0.0,0.0,0.0,0.0,0.0,0.0,0.0,0.0,0.0,0.0,0.0,0.0,0.0,0.0,3.9056,3.9422,3.8361,3.7887,0.0,0.0,0.0,0.0,0.0,0.0,0.0,0.0,0.0,0.0,0.0,0.0,0.0,0.0,0.0,0.0,0.0,0.0,0.0,0.0,0.0,0.0,0.0,0.0,0.0,0.0,0.0,0.0,0.0,0.0,0.0,0.0,0.0,0.0,0.0,0.0,0.0,0.0,0.0,0.0,0.0,0.0,0.0,0.0,0.0,0.0,0.0,0.0,0.0,0.0,0.0,0.0,0.0,0.0,0.0,0.0,0.0,0.0,0.0,0.0,0.0,0.0,0.0,0.0,0.0,0.0,0.0,0.0,0.0,0.0,0.0,0.0,0.0,0.0,0.0,0.0,0.0,0.0,0.0,0.0,0.0,0.0,0.0,0.0,0.0,0.0,0.0,0.0,0.0,0.0,0.0,0.0,0.0,0.0,0.0,0.0,0.0,0.0,0.0,0.0,0.0,0.0,0.0,0.0,0.0,0.0,0.0,0.0,0.0,0.0,3.9788,3.9799,3.9839,3.9064,3.8832,3.9207,0.0,0.0,0.0,0.0,0.0,0.0,0.0,0.0,0.0,0.0,0.0,0.0,0.0,0.0,0.0,0.0,0.0,0.0,0.0,0.0,0.0,0.0,0.0,0.0,0.0,0.0,0.0,0.0,0.0,0.0,0.0,0.0,0.0,0.0,0.0,0.0,0.0,0.0,0.0,0.0,0.0,0.0,0.0,0.0,0.0,0.0,0.0,0.0,0.0,0.0,0.0,0.0,0.0,0.0,0.0,0.0,0.0,0.0,0.0,0.0,0.0,0.0,0.0,0.0,0.0,0.0,0.0,0.0,0.0,0.0,0.0,0.0,0.0,0.0,0.0,0.0,0.0,0.0,0.0,0.0,0.0,0.0,0.0,0.0,0.0,0.0,0.0,0.0,0.0,0.0,0.0,0.0,0.0,0.0,0.0,0.0,0.0,0.0,0.0,0.0,0.0,0.0,0.0,0.0,0.0,0.0,0.0,0.0,4.1438,4.0874,4.0604,4.0694,3.9962,3.917,0.0,0.0,0.0,0.0,0.0,0.0,0.0,0.0,0.0,0.0,0.0,0.0,0.0,0.0,0.0,0.0,0.0,0.0,0.0,0.0,0.0,0.0,0.0,0.0,0.0,0.0,0.0,0.0,0.0,0.0,0.0,0.0,0.0,0.0,0.0,0.0,0.0,0.0,0.0,0.0,0.0,0.0,0.0,0.0,0.0,0.0,0.0,0.0,0.0,0.0,0.0,0.0,0.0,0.0,0.0,0.0,0.0,0.0,0.0,0.0,0.0,0.0,0.0,0.0,0.0,0.0,0.0,0.0,0.0,0.0,0.0,0.0,0.0,0.0,0.0,0.0,0.0,0.0,0.0,0.0,0.0,0.0,0.0,0.0,0.0,0.0,0.0,0.0,0.0,0.0,0.0,0.0,0.0,0.0,0.0,0.0,0.0,0.0,0.0,0.0,0.0,0.0,0.0,0.0,0.0,0.0,0.0,0.0,0.0,4.0045,3.9977,3.9935,4.0034,3.9736,3.9439,0.0,0.0,0.0,0.0,0.0,0.0,0.0,0.0,0.0,0.0,0.0,0.0,0.0,0.0,0.0,0.0,0.0,0.0,0.0,0.0,0.0,0.0,0.0,0.0,0.0,0.0,0.0,0.0,0.0,0.0,0.0,0.0,0.0,0.0,0.0,0.0,0.0,0.0,0.0,0.0,0.0,0.0,0.0,0.0,0.0,0.0,0.0,0.0,0.0,0.0,0.0,0.0,0.0,0.0,0.0,0.0,0.0,0.0,0.0,0.0,0.0,0.0,0.0,0.0,0.0,0.0,0.0,0.0,0.0,0.0,0.0,0.0,0.0,0.0,0.0,0.0,0.0,0.0,0.0,0.0,0.0,0.0,0.0,0.0,0.0,0.0,0.0,0.0,0.0,0.0,0.0,0.0,0.0,0.0,0.0,0.0,0.0,0.0,0.0,0.0,0.0,0.0,0.0,0.0,0.0,0.0,0.0,0.0,0.0,4.0035,0.0,4.0621,4.0369,4.0149,3.9852,0.0,0.0,0.0,0.0,0.0,0.0,0.0,0.0,0.0,0.0,0.0,0.0,0.0,0.0,0.0,0.0,0.0,0.0,0.0,0.0,0.0,0.0,0.0,0.0,0.0,0.0,0.0,0.0,0.0,0.0,0.0,0.0,0.0,0.0,0.0,0.0,0.0,0.0,0.0,0.0,0.0,0.0,0.0,0.0,0.0,0.0,0.0,0.0,0.0,0.0,0.0,0.0,0.0,0.0,0.0,0.0,0.0,0.0,0.0,0.0,0.0,0.0,0.0,0.0,0.0,0.0,0.0,0.0,0.0,0.0,0.0,0.0,0.0,0.0,0.0,0.0,0.0,0.0,0.0,0.0,0.0,0.0,0.0,0.0,0.0,0.0,0.0,0.0,0.0,0.0,0.0,0.0,0.0,0.0,0.0,0.0,0.0,0.0,0.0,0.0,0.0,0.0,0.0,0.0,0.0,0.0,0.0,0.0,4.0154,4.1829,4.2728,4.2755,4.2039,4.1182,4.0403,0.0,0.0,0.0,0.0,0.0,0.0,0.0,0.0,0.0,0.0,0.0,0.0,0.0,0.0,0.0,0.0,0.0,0.0,0.0,0.0,0.0,0.0,0.0,0.0,0.0,0.0,0.0,0.0,0.0,0.0,0.0,0.0,0.0,0.0,0.0,0.0,0.0,0.0,0.0,0.0,0.0,0.0,0.0,0.0,0.0,0.0,0.0,0.0,0.0,0.0,0.0,0.0,0.0,0.0,0.0,0.0,0.0,0.0,0.0,0.0,0.0,0.0,0.0,0.0,0.0,0.0,0.0,0.0,0.0,0.0,0.0,0.0,0.0,0.0,0.0,0.0,0.0,0.0,0.0,0.0,0.0,0.0,0.0,0.0,0.0,0.0,0.0,0.0,0.0,0.0,0.0,0.0,0.0,0.0,0.0,0.0,0.0,0.0,0.0,0.0,0.0,0.0,0.0,0.0,0.0,0.0,0.0,0.0,0.0,4.2806,4.3003,4.3269,4.358,4.1757,4.0841,0.0,0.0,0.0,0.0,0.0,0.0,0.0,0.0,0.0,0.0,0.0,0.0,0.0,0.0,0.0,0.0,0.0,0.0,0.0,0.0,0.0,0.0,0.0,0.0,0.0,0.0,0.0,0.0,0.0,0.0,0.0,0.0,0.0,0.0,0.0,0.0,0.0,0.0,0.0,0.0,0.0,0.0,0.0,0.0,0.0,0.0,0.0,0.0,0.0,0.0,0.0,0.0,0.0,0.0,0.0,0.0,0.0,0.0,0.0,0.0,0.0,0.0,0.0,0.0,0.0,0.0,0.0,0.0,0.0,0.0,0.0,0.0,0.0,0.0,0.0,0.0,0.0,0.0,0.0,0.0,0.0,0.0,0.0,0.0,0.0,0.0,0.0,0.0,0.0,0.0,0.0,0.0,0.0,0.0,0.0,0.0,0.0,0.0,0.0,0.0,0.0,0.0,0.0,0.0,0.0,0.0,0.0,0.0,0.0,4.6774,4.6097,4.5551,4.5196,4.3669,4.2511,4.1794,0.0,0.0,0.0,0.0,0.0,0.0,0.0,0.0,0.0,0.0,0.0,0.0,0.0,0.0,0.0,0.0,0.0,0.0,0.0,0.0,0.0,0.0,0.0,0.0,0.0,0.0,0.0,0.0,0.0,0.0,0.0,0.0,0.0,0.0,0.0,0.0,0.0,0.0,0.0,0.0,0.0,0.0,0.0,0.0,0.0,0.0,0.0,0.0,0.0,0.0,0.0,0.0,0.0,0.0,0.0,0.0,0.0,0.0,0.0,0.0,0.0,0.0,0.0,0.0,0.0,0.0,0.0,0.0,0.0,0.0,0.0,0.0,0.0,0.0,0.0,0.0,0.0,0.0,0.0,0.0,0.0,0.0,0.0,0.0,0.0,0.0,0.0,0.0,0.0,0.0,0.0,0.0,0.0,0.0,0.0,0.0,0.0,0.0,0.0,0.0,0.0,0.0,0.0,0.0,0.0,0.0,0.0,0.0,5.31,5.1758,4.9772,4.712,4.6715,4.5125,0.0,0.0,0.0,0.0,0.0,0.0,0.0,0.0,0.0,0.0,0.0,0.0,0.0,0.0,0.0,0.0,0.0,0.0,0.0,0.0,0.0,0.0,0.0,0.0,0.0,0.0,0.0,0.0,0.0,0.0,0.0,0.0,0.0,0.0,0.0,0.0,0.0,0.0,0.0,0.0,0.0,0.0,0.0,0.0,0.0,0.0,0.0,0.0,0.0,0.0,0.0,0.0,0.0,0.0,0.0,0.0,0.0,0.0,0.0,0.0,0.0,0.0,0.0,0.0,0.0,0.0,0.0,0.0,0.0,0.0,0.0,0.0,0.0,0.0,0.0,0.0,0.0,0.0,0.0,0.0,0.0,0.0,0.0,0.0,0.0,0.0,0.0,0.0,0.0,0.0,0.0,0.0,0.0,0.0,0.0,0.0,0.0,0.0,0.0,0.0,0.0,0.0,0.0,0.0,0.0,0.0,0.0,0.0,0.0,5.6957,5.8243,5.6889,5.2728,4.9191,4.6615,0.0,0.0,0.0,0.0,0.0,0.0,0.0,0.0,0.0,0.0,0.0,0.0,0.0,0.0,0.0,0.0,0.0,0.0,0.0,0.0,0.0,0.0,0.0,0.0,0.0,0.0,0.0,0.0,0.0,0.0,0.0,0.0,0.0,0.0,0.0,0.0,0.0,0.0,0.0,0.0,0.0,0.0,0.0,0.0,0.0,0.0,0.0,0.0,0.0,0.0,0.0,0.0,0.0,0.0,0.0,0.0,0.0,0.0,0.0,0.0,0.0,0.0,0.0,0.0,0.0,0.0,0.0,0.0,0.0,0.0,0.0,0.0,0.0,0.0,0.0,0.0,0.0,0.0,0.0,0.0,0.0,0.0,0.0,0.0,0.0,0.0,0.0,0.0,0.0,0.0,0.0,0.0,0.0,0.0,0.0,0.0,0.0,0.0,0.0,0.0,0.0,0.0,0.0,0.0,0.0,0.0,0.0,0.0,5.6447,6.0056,6.2894,6.2542,5.8815,5.3775,4.9746,0.0,0.0,0.0,0.0,0.0,0.0,0.0,0.0,0.0,0.0,0.0,0.0,0.0,0.0,0.0,0.0,0.0,0.0,0.0,0.0,0.0,0.0,0.0,0.0,0.0,0.0,0.0,0.0,0.0,0.0,0.0,0.0,0.0,0.0,0.0,0.0,0.0,0.0,0.0,0.0,0.0,0.0,0.0,0.0,0.0,0.0,0.0,0.0,0.0,0.0,0.0,0.0,0.0,0.0,0.0,0.0,0.0,0.0,0.0,0.0,0.0,0.0,0.0,0.0,0.0,0.0,0.0,0.0,0.0,0.0,0.0,0.0,0.0,0.0,0.0,0.0,0.0,0.0,0.0,0.0,0.0,0.0,0.0,0.0,0.0,0.0,0.0,0.0,0.0,0.0,0.0,0.0,0.0,0.0,0.0,0.0,0.0,0.0,0.0,0.0,0.0,0.0,0.0,0.0,0.0,0.0,0.0,0.0,5.9403,6.2886,6.6273,6.694,6.4517,5.9025,5.3476,0.0,0.0,0.0,0.0,0.0,0.0,0.0,0.0,0.0,0.0,0.0,0.0,0.0,0.0,0.0,0.0,0.0,0.0,0.0,0.0,0.0,0.0,0.0,0.0,0.0,0.0,0.0,0.0,0.0,0.0,0.0,0.0,0.0,0.0,0.0,0.0,0.0,0.0,0.0,0.0,0.0,0.0,0.0,0.0,0.0,0.0,0.0,0.0,0.0,0.0,0.0,0.0,0.0,0.0,0.0,0.0,0.0,0.0,0.0,0.0,0.0,0.0,0.0,0.0,0.0,0.0,0.0,0.0,0.0,0.0,0.0,0.0,0.0,0.0,0.0,0.0,0.0,0.0,0.0,0.0,0.0,0.0,0.0,0.0,0.0,0.0,0.0,0.0,0.0,0.0,0.0,0.0,0.0,0.0,0.0,0.0,0.0,0.0,0.0,0.0,0.0,0.0,0.0,0.0,0.0,0.0,0.0,0.0,6.2681,6.7596,6.9447,6.9531,6.7737,6.0654,5.4759,0.0,0.0,0.0,0.0,0.0,0.0,0.0,0.0,0.0,0.0,0.0,0.0,0.0,0.0,0.0,0.0,0.0,0.0,0.0,0.0,0.0,0.0,0.0,0.0,0.0,0.0,0.0,0.0,0.0,0.0,0.0,0.0,0.0,0.0,0.0,0.0,0.0,0.0,0.0,0.0,0.0,0.0,0.0,0.0,0.0,0.0,0.0,0.0,4.5551,0.0,0.0,0.0,0.0,0.0,0.0,0.0,0.0,0.0,0.0,0.0,0.0,0.0,0.0,0.0,0.0,0.0,0.0,0.0,0.0,0.0,0.0,0.0,0.0,0.0,0.0,0.0,0.0,0.0,0.0,0.0,0.0,0.0,0.0,0.0,0.0,0.0,0.0,0.0,0.0,0.0,0.0,0.0,0.0,0.0,0.0,0.0,0.0,0.0,0.0,0.0,0.0,0.0,0.0,0.0,0.0,0.0,0.0,0.0,6.4881,6.9516,7.1259,7.0946,6.8498,6.2778,5.7257,0.0,0.0,0.0,0.0,0.0,0.0,0.0,0.0,0.0,0.0,0.0,0.0,0.0,0.0,0.0,0.0,0.0,0.0,0.0,0.0,0.0,0.0,0.0,0.0,0.0,0.0,0.0,0.0,0.0,0.0,0.0,0.0,0.0,0.0,0.0,0.0,0.0,0.0,0.0,0.0,0.0,0.0,0.0,0.0,0.0,0.0,0.0,0.0,0.0,0.0,0.0,0.0,0.0,0.0,0.0,0.0,0.0,0.0,0.0,0.0,0.0,0.0,0.0,0.0,0.0,0.0,0.0,0.0,0.0,0.0,0.0,0.0,0.0,0.0,0.0,0.0,0.0,0.0,0.0,0.0,0.0,0.0,0.0,0.0,0.0,0.0,0.0,0.0,0.0,0.0,0.0,0.0,0.0,0.0,0.0,0.0,0.0,0.0,0.0,0.0,0.0,0.0,0.0,0.0,0.0,0.0,0.0,6.2134,6.6633,7.0393,7.2254,7.1768,6.8772,6.4609,5.9591,5.3712,0.0,0.0,0.0,0.0,0.0,0.0,0.0,0.0,0.0,0.0,0.0,0.0,0.0,0.0,0.0,0.0,0.0,0.0,0.0,0.0,0.0,0.0,0.0,0.0,0.0,0.0,0.0,0.0,0.0,0.0,0.0,0.0,0.0,0.0,0.0,0.0,0.0,0.0,4.4464,4.6172,0.0,0.0,0.0,0.0,0.0,0.0,0.0,0.0,4.4481,0.0,0.0,0.0,0.0,0.0,0.0,0.0,0.0,0.0,0.0,0.0,0.0,0.0,0.0,0.0,0.0,0.0,0.0,0.0,0.0,0.0,0.0,0.0,0.0,0.0,0.0,0.0,0.0,0.0,0.0,0.0,0.0,0.0,0.0,0.0,0.0,0.0,0.0,0.0,0.0,0.0,0.0,0.0,0.0,0.0,0.0,0.0,0.0,0.0,0.0,0.0,0.0,0.0,0.0,0.0,0.0,5.9165,6.3978,6.819,7.186,7.2658,7.2117,7.019,6.451,5.9327,5.4932,0.0,0.0,0.0,0.0,0.0,0.0,0.0,0.0,0.0,0.0,0.0,0.0,0.0,0.0,0.0,0.0,0.0,0.0,0.0,0.0,0.0,0.0,0.0,0.0,0.0,0.0,0.0,0.0,0.0,0.0,0.0,0.0,0.0,0.0,0.0,0.0,0.0,0.0,0.0,4.8171,4.9075,0.0,0.0,0.0,0.0,0.0,0.0,0.0,0.0,4.431,0.0,0.0,0.0,0.0,0.0,0.0,0.0,0.0,0.0,0.0,0.0,0.0,0.0,0.0,0.0,0.0,0.0,0.0,0.0,0.0,0.0,0.0,0.0,0.0,0.0,0.0,0.0,0.0,0.0,0.0,0.0,0.0,0.0,0.0,0.0,0.0,0.0,0.0,0.0,0.0,0.0,0.0,0.0,0.0,0.0,0.0,0.0,0.0,0.0,0.0,0.0,0.0,0.0,0.0,0.0,6.0221,6.5649,6.9804,7.2571,7.319,7.2128,6.9261,6.4366,5.9251,0.0,0.0,0.0,0.0,0.0,0.0,0.0,0.0,0.0,0.0,0.0,0.0,0.0,0.0,0.0,0.0,0.0,0.0,0.0,0.0,0.0,0.0,0.0,0.0,0.0,0.0,0.0,0.0,0.0,0.0,0.0,0.0,0.0,0.0,0.0,0.0,0.0,0.0,0.0,0.0,4.9994,5.0613,4.8661,0.0,0.0,0.0,0.0,0.0,0.0,4.631,4.5207,0.0,0.0,0.0,0.0,0.0,0.0,0.0,0.0,0.0,0.0,0.0,0.0,0.0,0.0,0.0,0.0,0.0,0.0,0.0,0.0,0.0,0.0,0.0,0.0,0.0,0.0,0.0,0.0,0.0,0.0,0.0,0.0,0.0,0.0,0.0,0.0,0.0,0.0,0.0,0.0,0.0,0.0,0.0,0.0,0.0,0.0,0.0,0.0,0.0,0.0,0.0,0.0,0.0,0.0,0.0,6.1427,6.7013,7.0895,7.2907,7.3112,7.1468,6.7872,6.3586,5.8567,0.0,0.0,0.0,0.0,0.0,0.0,0.0,0.0,0.0,0.0,0.0,0.0,0.0,0.0,0.0,0.0,0.0,0.0,0.0,0.0,0.0,0.0,0.0,0.0,0.0,0.0,0.0,0.0,0.0,0.0,0.0,0.0,0.0,0.0,0.0,0.0,0.0,0.0,0.0,0.0,0.0,5.1812,5.0,4.8472,0.0,0.0,0.0,0.0,4.8012,4.7457,0.0,0.0,0.0,0.0,0.0,0.0,0.0,0.0,0.0,0.0,0.0,0.0,0.0,0.0,0.0,0.0,0.0,0.0,0.0,0.0,0.0,0.0,0.0,0.0,0.0,0.0,0.0,0.0,0.0,0.0,0.0,0.0,0.0,0.0,0.0,0.0,0.0,0.0,0.0,0.0,0.0,0.0,0.0,0.0,0.0,0.0,0.0,0.0,0.0,0.0,0.0,0.0,0.0,0.0,0.0,0.0,6.3809,6.7864,7.0895,7.2811,7.156,6.9584,6.7024,6.1315,5.6454,0.0,0.0,0.0,0.0,0.0,0.0,0.0,0.0,0.0,0.0,0.0,0.0,0.0,0.0,0.0,0.0,0.0,0.0,0.0,0.0,0.0,0.0,0.0,0.0,0.0,0.0,0.0,0.0,0.0,0.0,0.0,0.0,0.0,0.0,0.0,0.0,0.0,0.0,0.0,0.0,0.0,5.2799,5.1643,5.0106,4.9073,0.0,0.0,4.8532,5.0837,5.0802,0.0,0.0,0.0,0.0,0.0,0.0,0.0,0.0,0.0,0.0,0.0,0.0,0.0,0.0,0.0,0.0,0.0,0.0,0.0,0.0,0.0,0.0,0.0,0.0,0.0,0.0,0.0,0.0,0.0,0.0,0.0,0.0,0.0,0.0,0.0,0.0,0.0,0.0,0.0,0.0,0.0,0.0,0.0,0.0,0.0,0.0,0.0,0.0,0.0,0.0,0.0,0.0,0.0,0.0,0.0,5.8349,6.3511,6.8442,7.1575,7.2757,7.1653,6.9504,6.6348,6.104,5.6256,0.0,0.0,0.0,0.0,0.0,0.0,0.0,0.0,0.0,0.0,0.0,0.0,0.0,0.0,0.0,0.0,0.0,0.0,0.0,0.0,0.0,0.0,0.0,0.0,0.0,0.0,0.0,0.0,0.0,0.0,0.0,0.0,0.0,0.0,0.0,0.0,0.0,0.0,0.0,0.0,0.0,0.0,5.3672,5.2649,0.0,0.0,0.0,5.213,5.2406,0.0,0.0,0.0,0.0,0.0,0.0,0.0,0.0,0.0,0.0,0.0,0.0,0.0,0.0,0.0,0.0,0.0,0.0,0.0,0.0,0.0,0.0,0.0,0.0,0.0,0.0,0.0,0.0,0.0,0.0,0.0,0.0,0.0,0.0,0.0,0.0,0.0,0.0,0.0,0.0,0.0,0.0,0.0,0.0,0.0,0.0,0.0,0.0,0.0,0.0,0.0,0.0,0.0,0.0,0.0,0.0,0.0,6.3524,6.8785,7.1876,7.2637,7.1363,6.9032,6.5596,6.0354,0.0,0.0,0.0,0.0,0.0,0.0,0.0,0.0,0.0,0.0,0.0,0.0,0.0,0.0,0.0,0.0,0.0,0.0,0.0,0.0,0.0,0.0,0.0,0.0,0.0,0.0,0.0,3.9635,0.0,0.0,0.0,0.0,0.0,0.0,0.0,0.0,0.0,0.0,0.0,0.0,0.0,0.0,5.3892,5.5296,5.5052,5.4433,0.0,0.0,5.5156,5.34,5.3534,5.2202,0.0,0.0,0.0,0.0,0.0,0.0,0.0,0.0,0.0,0.0,0.0,0.0,0.0,0.0,0.0,0.0,0.0,0.0,0.0,0.0,0.0,0.0,0.0,0.0,0.0,0.0,0.0,0.0,0.0,0.0,0.0,0.0,0.0,0.0,0.0,0.0,0.0,0.0,0.0,0.0,0.0,0.0,0.0,0.0,0.0,0.0,0.0,0.0,0.0,0.0,0.0,0.0,0.0,0.0,0.0,6.5101,6.8814,7.1332,7.2549,6.9896,6.7253,6.477,5.8218,5.3368,0.0,0.0,0.0,0.0,0.0,0.0,0.0,0.0,0.0,0.0,0.0,0.0,0.0,0.0,0.0,0.0,0.0,0.0,0.0,0.0,0.0,0.0,0.0,0.0,0.0,0.0,0.0,0.0,0.0,0.0,0.0,0.0,0.0,0.0,0.0,0.0,0.0,0.0,0.0,0.0,0.0,5.5266,5.6207,5.6811,5.678,0.0,0.0,5.6376,5.3883,5.5812,5.5327,4.8617,0.0,0.0,0.0,0.0,0.0,0.0,0.0,0.0,0.0,0.0,0.0,0.0,0.0,0.0,0.0,0.0,0.0,0.0,0.0,0.0,0.0,0.0,0.0,0.0,0.0,0.0,0.0,0.0,0.0,0.0,0.0,0.0,0.0,0.0,0.0,0.0,0.0,0.0,0.0,0.0,0.0,0.0,0.0,0.0,0.0,0.0,0.0,0.0,0.0,0.0,0.0,0.0,0.0,5.9439,6.5335,6.8728,7.097,7.1886,6.9483,6.6802,6.4076,5.8615,5.4007,0.0,0.0,0.0,0.0,0.0,0.0,0.0,0.0,0.0,0.0,0.0,0.0,0.0,0.0,0.0,0.0,0.0,0.0,0.0,0.0,0.0,0.0,0.0,0.0,0.0,0.0,0.0,0.0,4.1004,4.1134,4.156,0.0,0.0,0.0,0.0,0.0,0.0,0.0,0.0,0.0,0.0,5.4942,5.6709,5.754,0.0,0.0,5.7778,5.8041,5.6198,5.5491,5.3846,4.9955,4.7719,0.0,0.0,0.0,0.0,0.0,0.0,0.0,0.0,0.0,0.0,0.0,0.0,0.0,0.0,0.0,0.0,0.0,0.0,0.0,0.0,0.0,0.0,0.0,0.0,0.0,0.0,0.0,0.0,0.0,0.0,0.0,0.0,0.0,0.0,0.0,0.0,0.0,0.0,0.0,0.0,0.0,0.0,0.0,0.0,0.0,0.0,0.0,0.0,0.0,0.0,0.0,0.0,5.9402,6.458,6.7947,6.9966,7.0522,6.8281,6.5864,6.3237,5.8486,5.419,0.0,0.0,0.0,0.0,0.0,0.0,0.0,0.0,0.0,0.0,0.0,0.0,0.0,0.0,0.0,0.0,0.0,0.0,0.0,0.0,0.0,0.0,0.0,0.0,0.0,0.0,0.0,0.0,4.1887,4.1715,4.1678,0.0,0.0,0.0,0.0,0.0,0.0,0.0,0.0,0.0,0.0,5.5243,5.7406,5.8534,5.8772,5.7724,5.8778,5.9096,5.7301,5.5446,5.3245,5.0412,0.0,0.0,0.0,0.0,0.0,0.0,0.0,0.0,0.0,0.0,0.0,0.0,0.0,0.0,0.0,0.0,0.0,0.0,0.0,0.0,0.0,0.0,0.0,0.0,0.0,0.0,0.0,0.0,0.0,0.0,4.2023,0.0,0.0,0.0,0.0,0.0,0.0,0.0,0.0,0.0,0.0,0.0,0.0,0.0,0.0,0.0,0.0,0.0,0.0,0.0,0.0,0.0,0.0,5.8889,6.2947,6.6378,6.8091,6.8158,6.597,6.4058,6.2405,5.737,5.3412,5.0705,0.0,0.0,0.0,0.0,0.0,0.0,0.0,0.0,0.0,0.0,0.0,0.0,0.0,0.0,0.0,0.0,0.0,0.0,0.0,0.0,0.0,0.0,0.0,0.0,0.0,0.0,4.3899,4.3216,4.2342,0.0,0.0,0.0,0.0,0.0,0.0,0.0,0.0,0.0,0.0,5.4556,5.6525,5.8428,6.0019,6.0435,5.8872,5.9542,5.928,5.665,5.6164,5.4503,0.0,0.0,0.0,0.0,0.0,0.0,0.0,0.0,0.0,0.0,0.0,0.0,0.0,0.0,0.0,0.0,0.0,0.0,0.0,0.0,0.0,0.0,0.0,0.0,0.0,0.0,0.0,4.5641,4.4968,0.0,0.0,0.0,0.0,0.0,0.0,0.0,0.0,0.0,0.0,0.0,4.8144,4.7968,0.0,0.0,0.0,0.0,0.0,0.0,0.0,0.0,0.0,0.0,0.0,0.0,5.8748,6.4166,6.6267,6.7278,6.7276,6.5601,6.3733,6.1697,5.8045,5.3906,4.9313,0.0,0.0,0.0,0.0,0.0,0.0,0.0,0.0,0.0,0.0,0.0,0.0,0.0,0.0,0.0,0.0,0.0,0.0,0.0,0.0,0.0,0.0,0.0,0.0,0.0,4.4802,0.0,0.0,0.0,0.0,0.0,0.0,0.0,0.0,0.0,0.0,0.0,4.9794,5.3622,5.6248,5.8205,5.9213,6.0781,6.1017,0.0,0.0,0.0,0.0,0.0,0.0,0.0,0.0,0.0,0.0,0.0,0.0,0.0,0.0,5.0139,4.7083,4.6626,4.6895,4.7484,0.0,0.0,0.0,0.0,0.0,0.0,0.0,0.0,0.0,0.0,0.0,0.0,0.0,0.0,4.7055,0.0,4.5635,0.0,0.0,0.0,0.0,0.0,0.0,0.0,0.0,4.9905,5.0962,5.1163,5.099,5.053,0.0,4.8552,4.7317,0.0,0.0,0.0,0.0,0.0,0.0,0.0,0.0,5.9331,6.4353,6.6057,6.661,6.6068,6.4677,6.2947,6.0911,5.7476,5.3669,4.9513,4.6866,4.4873,0.0,0.0,0.0,0.0,0.0,0.0,0.0,0.0,0.0,0.0,0.0,0.0,0.0,0.0,0.0,0.0,0.0,0.0,0.0,0.0,0.0,0.0,0.0,4.5029,0.0,0.0,0.0,0.0,0.0,0.0,0.0,0.0,0.0,4.7576,4.9392,5.1959,5.5254,5.7131,5.8672,6.0056,0.0,0.0,0.0,0.0,0.0,0.0,0.0,5.5951,5.4694,5.3598,5.3081,5.3777,5.4249,5.4493,5.4196,0.0,0.0,4.9898,4.9321,4.9523,4.9796,5.0263,5.0892,5.1784,5.2576,5.3209,0.0,0.0,0.0,0.0,0.0,0.0,0.0,0.0,4.8684,4.828,0.0,4.6936,0.0,0.0,0.0,0.0,0.0,4.7794,0.0,0.0,5.2275,5.342,5.2398,5.3097,5.308,5.2466,5.1994,5.143,5.0555,4.5869,0.0,0.0,0.0,0.0,0.0,0.0,6.0494,6.3372,6.5599,6.6053,6.4664,6.3179,6.1656,6.0013,5.5886,5.2909,5.1285,4.882,4.6727,4.5274,4.465,0.0,0.0,0.0,0.0,0.0,0.0,0.0,0.0,0.0,0.0,0.0,0.0,0.0,0.0,0.0,0.0,0.0,0.0,0.0,0.0,4.437,0.0,0.0,0.0,0.0,0.0,0.0,0.0,0.0,0.0,0.0,5.1639,5.2958,5.4662,5.7127,0.0,0.0,0.0,0.0,6.0673,6.2533,6.2803,6.2455,6.1419,5.9903,5.7952,5.5399,0.0,0.0,5.383,5.5096,5.5985,5.5258,5.6202,5.6441,5.4152,5.3052,5.2771,5.3495,5.3717,5.4159,5.5012,5.5904,5.6707,5.5305,0.0,0.0,0.0,0.0,5.1896,5.2747,5.3864,5.3393,5.2155,5.043,4.9725,0.0,0.0,0.0,0.0,0.0,0.0,5.2284,5.3375,5.6291,5.7543,5.7432,5.7646,5.7364,5.661,5.5582,5.472,5.3905,5.1585,4.969,4.8401,0.0,0.0,0.0,0.0,6.0365,6.3421,6.5157,6.5569,6.4624,6.3169,6.1182,5.8601,5.6292,5.438,5.2892,5.105,4.9245,4.7462,4.626,0.0,0.0,0.0,0.0,0.0,0.0,0.0,0.0,0.0,0.0,0.0,0.0,0.0,0.0,0.0,0.0,0.0,0.0,0.0,4.6717,4.4469,4.3208,0.0,0.0,0.0,0.0,0.0,0.0,0.0,0.0,0.0,5.6305,5.7094,5.8234,0.0,0.0,6.234,6.3763,6.3589,6.3133,6.2521,6.3338,0.0,0.0,5.9311,5.8805,5.691,5.6979,5.72,5.6973,5.723,5.7416,5.7159,5.744,5.7658,5.7565,5.601,5.4912,5.5096,5.5943,5.7006,5.7906,5.9504,6.0787,6.1282,5.7294,5.5063,5.434,5.4844,5.5435,5.62,5.6959,5.6378,5.534,5.3969,5.2749,5.0575,4.7837,4.8031,0.0,0.0,0.0,5.5535,5.7363,5.9417,6.0652,6.1132,6.1123,6.0796,6.0077,5.909,5.8221,5.7578,5.7116,5.5936,5.4083,0.0,0.0,5.6185,5.88,6.1502,6.4233,6.5503,6.5662,6.4613,6.255,6.0462,5.8432,5.6891,5.5606,5.4389,5.2892,5.1162,4.9101,4.7496,4.621,0.0,0.0,0.0,0.0,0.0,0.0,0.0,0.0,0.0,0.0,0.0,4.4128,0.0,0.0,0.0,0.0,4.4256,4.5732,4.7364,4.5119,0.0,0.0,0.0,0.0,0.0,0.0,0.0,5.2977,5.41,5.5712,5.8683,5.9749,6.0439,6.1001,6.1647,6.2506,6.3704,0.0,6.3114,6.3131,6.3659,6.3138,6.0613,6.0097,5.9612,5.8275,5.8109,5.8323,5.8601,5.8303,5.8002,5.8039,5.8253,5.8609,5.9105,5.8468,5.7971,5.8008,5.8736,5.9648,6.0444,6.2059,6.3239,6.6846,6.586,6.1593,5.9084,5.8024,5.937,5.9488,5.861,5.85,5.8131,5.7582,5.591,5.4596,5.362,5.3019,0.0,5.4569,5.6773,5.8712,6.0419,6.1883,6.2922,6.3579,6.3579,6.3306,6.2834,6.2277,6.1782,6.1334,6.2066,6.1957,6.0969,5.7607,5.6935,5.8948,6.1354,6.3514,6.5333,6.6412,6.6146,6.4512,6.1637,5.9742,5.9013,5.7568,5.6452,5.5699,5.4355,5.2536,5.0294,4.843,4.674,4.5246,0.0,0.0,0.0,0.0,0.0,0.0,0.0,0.0,0.0,0.0,0.0,0.0,0.0,0.0,0.0,4.4641,0.0,4.723,4.6039,0.0,0.0,0.0,4.5986,4.7627,4.8444,4.9929,5.256,0.0,0.0,5.9491,6.1163,6.1502,5.9711,5.9669,6.0461,6.2225,6.1748,6.1774,6.4136,6.3729,6.3128,6.246,6.1208,5.988,5.9028,5.8541,5.8369,5.8883,5.8621,5.8112,5.7997,5.8651,5.9227,5.9283,6.0413,6.1679,6.1747,6.1857,6.2114,6.2836,6.3796,6.4684,7.0984,7.068,6.9038,6.6516,6.3718,6.4067,6.438,6.4569,6.3497,6.2328,6.105,5.8937,5.7263,5.5978,5.5834,5.6801,5.873,6.0444,6.1743,6.2709,6.3632,6.4174,6.4343,6.4343,6.4272,6.4153,6.4159,6.4117,6.4006,6.433,6.4296,6.3981,6.3933,6.2971,6.1219,6.3703,6.5107,6.5255,6.7025,6.6583,6.3802,6.1356,5.9742,5.9013,5.7568,5.6452,5.5733,5.4828,5.3281,5.104,4.9442,4.777,4.6008,4.3919,0.0,0.0,0.0,0.0,0.0,0.0,0.0,0.0,0.0,4.4444,4.4322,0.0,4.5041,0.0,4.5672,4.6125,4.7219,4.6332,0.0,0.0,4.7502,4.8647,5.0871,5.1221,5.2741,5.6608,5.7455,5.8432,6.0322,6.1319,6.1472,6.0344,6.1921,6.3614,6.4677,6.4045,6.3573,6.3959,6.3395,6.242,6.1098,5.9654,5.8593,5.8333,5.8615,5.8798,5.8364,5.8646,5.8725,5.8217,5.8651,5.9355,5.9947,6.0927,6.2261,6.3943,6.4407,6.445,6.4707,6.5815,6.6703,7.368,7.3296,7.2597,7.1086,6.9101,6.8142,6.7939,6.8199,6.6711,6.5595,6.4681,6.2472,6.0849,5.9844,6.0139,6.1298,6.3125,6.4309,6.5053,6.5483,6.5889,6.5889,6.5584,6.5584,6.5415,6.5097,6.5651,6.5933,6.5943,6.6442,6.6776,6.6981,6.7261,6.672,6.5431,6.6635,6.7099,6.671,6.677,6.5899,6.4015,6.1434,5.9996,5.9713,5.7956,5.6608,5.5664,5.4939,5.3634,5.1715,5.0552,4.9161,4.743,4.5546,4.4113,0.0,0.0,0.0,0.0,0.0,0.0,0.0,0.0,0.0,0.0,0.0,4.581,4.7268,4.6714,4.7115,4.9242,4.8388,4.806,4.8886,4.9656,5.0821,5.2503,5.2944,5.4317,5.7384,5.7986,5.8745,6.0405,6.1242,6.1691,6.149,6.2745,6.3702,6.3757,6.3584,6.3479,6.329,6.2358,6.1074,5.9477,5.8543,5.8112,5.8468,5.8615,5.8615,5.8541,5.8578,5.8505,5.8143,5.8358,5.8902,5.9716,6.0829,6.2297,6.4163,6.5368,6.5919,6.6336,6.707,6.7554,7.554,7.4818,7.4187,7.386,7.3624,7.1627,7.0714,7.0511,6.8977,6.8166,6.7793,6.5865,6.4671,6.413,6.4739,6.5753,6.7106,6.7749,6.8064,6.8064,6.8064,6.7658,6.6937,6.6927,6.6609,6.6055,6.6886,6.7353,6.7455,6.8255,6.8934,6.9431,6.8876,6.906,6.9885,6.9601,6.9214,6.8726,6.6283,6.4948,6.4756,6.1971,6.06,6.0633,5.8568,5.6781,5.5497,5.4773,5.367,5.2126,5.1432,5.0328,4.8672,4.7034,4.5724,0.0,4.4813,0.0,0.0,0.0,0.0,0.0,0.0,0.0,0.0,4.6095,4.6767,4.8896,4.7868,4.8467,5.1799,5.0976,5.0558,5.1261,5.1994,5.2731,5.3555,5.4378,5.5442,5.6921,5.7813,5.8894,6.037,6.1153,6.1887,6.2511,6.2731,6.2614,6.1852,6.2261,6.2648,6.2405,6.1147,5.9882,5.8634,5.8138,5.8217,5.8792,5.8615,5.8364,5.8866,5.8578,5.8143,5.8039,5.8143,5.8518,5.9193,6.0622,6.2108,6.3839,6.5271,6.6476,6.7333,6.7627,6.77,7.713,7.6454,7.6318,7.5879,7.5202,7.4187,7.3409,7.2778,7.1312,6.962,6.7895,6.7455,6.7184,6.7083,6.7218,6.7783,6.8662,6.8808,6.8876,6.8876,6.8876,6.847,6.7726,6.7692,6.7624,6.75,6.7667,6.8094,6.8738,6.8916,6.932,6.9888,7.0172,7.0596,7.1094,0.0,0.0,0.0,6.71,6.579,6.5681,6.3757,6.2152,6.0955,5.8909,0.0,5.4781,5.454,5.3479,5.136,5.1156,0.0,0.0,0.0,0.0,0.0,0.0,0.0,0.0,0.0,0.0,0.0,4.8466,4.8692,4.8964,4.9054,4.937,4.9901,4.9501,4.998,5.1804,5.1752,5.2125,5.3564,5.3881,5.4531,5.593,5.6816,5.7697,5.864,5.9467,6.0298,6.1172,6.1526,6.1887,6.252,6.2641,6.246,6.2093,6.2322,6.2522,6.2311,6.0995,5.9775,5.8931,5.8336,5.8039,5.8248,5.8725,5.8719,5.8364,5.8725,5.8651,5.8186,5.8541,5.9172,5.995,6.0964,6.204,6.3766,6.4861,6.5955,6.737,6.77,6.77,7.8111,0.0,7.7063,7.669,0.0,7.5473,7.4931,7.4492,7.3003,7.1334,6.9575,6.918,6.9022,6.9056,6.9417,6.9992,7.0737,7.1109,7.0861,7.0184,7.0184,6.9575,6.847,6.8504,6.847,6.8504,6.8504,6.891,6.9631,6.9665,6.9998,7.0664,7.0567,7.0802,7.1327,7.0944,7.0356,6.9627,6.6868,6.541,6.5217,6.2955,6.145,6.0821,5.8375,0.0,0.0,0.0,0.0,0.0,0.0,0.0,0.0,0.0,0.0,4.5942,4.6078,4.6536,4.7293,4.8452,4.9465,5.0132,5.1256,5.1224,4.9654,4.9919,5.0338,5.0639,5.0307,5.0899,5.2976,5.2902,5.3327,5.4933,5.5747,5.6528,5.7336,5.8474,5.9318,5.9783,6.0499,6.1135,6.1459,6.1924,6.2272,6.2556,6.2603,6.2399,6.1961,6.2141,6.2158,6.1363,6.064,5.9647,5.8703,5.8238,5.8002,5.8076,5.8358,5.8394,5.807,5.8327,5.8468,5.8107,5.8358,5.875,5.9172,6.0181,6.1416,6.2628,6.3839,6.5197,6.6739,6.7444,6.77,7.8991,7.8157,7.7524,7.7118,7.686,7.6183,7.5845,7.5608,0.0,0.0,0.0,7.1052,7.0781,7.0815,7.1413,7.2022,7.2631,7.3206,7.2778,7.1503,7.1503,7.0692,6.9316,6.9282,6.9282,6.9282,6.9282,6.9654,7.0375,7.0398,7.0703,7.1199,7.0658,7.0703,7.1165,6.9846,6.9177,6.9212,6.6524,6.5016,6.4776,6.2237,6.0832,6.0729,5.8244,5.6172,5.4704,5.3609,5.2513,5.1536,5.1026,5.054,5.0054,4.9549,4.8902,4.8141,4.8743,4.9123,4.9052,5.0863,5.199,5.1991,5.373,5.3478,5.0363,5.0753,5.1299,5.18,5.1381,5.2199,5.4709,5.4556,5.4841,5.6252,5.7486,5.826,5.8321,5.9438,6.0254,6.0616,6.1178,6.156,6.15,6.2006,6.2496,6.2373,6.2275,6.2137,6.1513,6.1497,6.1267,6.0321,5.9877,5.9325,5.8323,5.8022,5.7997,5.8002,5.8002,5.8002,5.8002,5.8002,5.8002,5.8002,5.8002,5.8107,5.829,5.9496,6.0603,6.1453,6.2928,6.45,6.5742,6.6849,6.748,8.0175,7.8945,7.8843,7.8065,7.6881,7.6792,7.6352,7.5642,7.4796,7.3984,7.3184,7.3082,7.3026,7.3048,7.315,7.3251,7.3353,7.3454,7.3048,7.2259,7.2259,7.1481,7.0071,7.0037,7.0037,7.0037,7.0037,7.0432,7.1064,7.1131,7.1199,7.1267,7.1199,7.1199,7.1165,6.9857,6.9124,6.9099,6.6975,6.5824,6.5793,6.4484,6.2872,6.1033,6.0018,5.8195,5.5491,5.5775,5.5094,5.3137,5.3497,5.2796,5.0667,5.042,4.9911,4.8938,4.8957,4.935,5.0122,5.1053,5.2164,5.3478,5.4508,5.4581,5.3648,5.3771,5.4015,5.4274,5.4133,5.494,5.6523,5.7137,5.7512,5.8052,5.8801,5.9271,5.929,5.9603,6.0269,6.1256,6.155,6.1625,6.1541,6.1559,6.1563,6.1429,6.1256,6.1204,6.0899,6.0425,6.0089,5.9795,5.9335,5.8665,5.8062,5.7939,5.7991,5.8002,5.8002,5.8002,5.8002,5.8002,5.8002,5.8002,5.8002,5.8253,5.8792,5.9753,6.056,6.1374,6.2811,6.4059,6.461,6.5785,6.6886,8.1257,8.0276,7.987,7.908,7.8031,7.7232,7.6454,7.5709,7.5337,7.4796,7.4086,7.3691,7.3488,7.3534,7.3916,7.4097,7.4119,7.4492,7.4063,7.3048,7.3409,7.28,7.1481,7.1391,7.1391,7.1391,7.0962,7.0962,7.13,7.1672,7.1706,7.1334,7.1289,7.1289,7.1199,6.9846,6.9079,6.9045,6.6941,6.584,6.5817,6.4174,6.2808,6.1768,5.9961,5.8087,5.6278,5.5783,5.4896,5.3455,5.3301,5.2929,5.2223,5.1773,5.1505,5.1428,5.1446,5.1825,5.2626,5.3464,5.4464,5.563,5.6022,5.6244,5.6389,5.573,5.5304,5.5288,5.5391,5.5979,5.7119,5.761,5.8018,5.8613,5.9238,5.9737,6.0084,6.0267,6.074,6.1521,6.1373,6.1098,6.0996,6.0915,6.0803,6.0597,6.0042,5.9636,6.0122,5.8904,5.829,5.9026,5.8981,5.8593,5.8031,5.7956,5.7997,5.8002,5.8002,5.8002,5.8002,5.8002,5.8002,5.8002,5.8002,5.8143,5.8541,5.9202,5.9973,6.0823,6.1857,6.2995,6.4383,6.5705,6.6396,8.2374,8.1473,8.0763,7.9938,7.8978,7.7536,7.6521,7.598,7.5777,7.5371,7.4818,7.4233,7.3996,7.4063,7.4593,7.4852,7.492,7.5439,7.4999,7.3894,7.4345,7.3803,7.2529,7.2563,7.2563,7.2394,7.1988,7.1819,7.1875,7.2394,7.236,7.1808,7.1639,7.1537,7.1537,7.0094,6.9282,6.8977,6.7184,6.6045,6.5639,6.371,6.2584,6.2221,5.9819,5.8051,5.7306,5.603,5.5015,5.4296,5.3644,5.3518,5.3915,5.3408,5.334,5.3923,5.4016,5.4329,5.5057,5.5755,5.6539,5.7342,5.7339,5.7531,5.7947,5.7123,5.6383,5.6268,5.6453,5.69,5.7561,5.7913,5.8229,5.884,5.9415,5.9935,6.0454,6.0499,6.0796,6.1379,6.0907,6.0347,6.0192,6.0113,5.9921,5.951,5.8693,5.851,5.8966,5.7617,5.725,5.805,5.8549,5.8387,5.8047,5.8002,5.8002,5.8002,5.8002,5.8002,5.8002,5.8002,5.8002,5.8002,5.8002,5.8039,5.807,5.8688,5.938,6.0083,6.1043,6.2371,6.4457,6.5111,6.5655,8.3565,8.2306,8.1473,8.0378,7.8978,7.757,7.6893,7.669,7.6014,7.5676,7.554,7.5506,7.5439,7.5506,7.554,7.5574,7.5574,7.5676,7.5258,7.4559,7.4547,7.3849,7.2597,7.3071,7.3048,7.2597,7.2981,7.315,7.315,7.3285,7.3364,7.3218,7.2631,7.2281,7.2124,7.0815,6.9766,6.9113,6.8166,6.7049,6.5706,6.4208,6.3091,6.2391,6.0791,5.953,5.8786,5.8026,5.7248,5.6553,5.6393,5.6089,5.5564,5.5403,5.5395,5.5462,5.5496,5.5809,5.6494,5.669,5.7047,5.7733,5.781,5.7825,5.7927,5.7792,5.7706,5.7674,5.7986,5.8199,5.8458,5.9115,5.9332,5.899,5.9504,6.0007,6.0019,5.9521,5.9597,6.0691,6.0117,5.9504,5.9304,5.9093,5.8801,5.8339,5.8106,5.7892,5.7726,5.7332,5.6955,5.7504,5.7716,5.7847,5.7914,5.8002,5.8002,5.8002,5.8002,5.8002,5.8002,5.8002,5.8002,5.8002,5.8002,5.8002,5.8149,5.8615,5.9153,5.96,6.067,6.2187,6.3619,6.3906,6.3954,8.4167,8.2395,8.2056,8.0839,7.9114,7.8437,7.7705,7.6893,7.6555,7.6149,7.5709,7.5676,7.5676,7.5676,7.5676,7.5676,7.5676,7.5676,7.5292,7.4683,7.5021,7.4695,7.3803,7.3972,7.3972,7.3668,7.359,7.3488,7.3488,7.3488,7.3725,7.395,7.3003,7.2383,7.2293,7.0951,7.0037,6.9722,6.8538,6.7601,6.688,6.5121,6.4005,6.3531,6.1839,6.0443,5.9665,5.8964,5.822,5.7552,5.7442,5.7306,5.7002,5.7002,5.6993,5.7002,5.7002,5.7137,5.746,5.7442,5.7586,5.79,5.79,5.79,5.79,5.79,5.79,5.7945,5.8243,5.8499,5.8552,5.9064,5.9283,5.9089,5.9241,5.9566,5.9937,5.9343,5.9207,5.9918,5.9281,5.8711,5.8495,5.8029,5.7749,5.7534,5.7099,5.6379,5.6324,5.6246,5.6236,5.6487,5.7061,5.7697,5.7914,5.8002,5.8002,5.8002,5.8002,5.8002,5.8002,5.8002,5.8002,5.8002,5.8002,5.8002,5.8002,5.8217,5.8615,5.9233,6.0921,6.2579,6.3203,6.3466,6.3747,8.4911,8.3037,8.2361,8.0818,7.8822,7.8788,7.8179,7.7232,7.7007,7.6555,7.6048,7.5811,7.5676,7.5676,7.5676,7.5676,7.5676,7.5676,7.5405,7.4999,7.5473,7.5303,7.4683,7.4818,7.4784,7.4581,7.4289,7.4131,7.4109,7.4097,7.4356,7.4661,7.3646,7.2902,7.2563,7.1424,7.0578,7.0139,6.9056,6.8335,6.7726,6.6136,6.5019,6.4478,6.2651,6.1231,6.0452,5.952,5.8786,5.822,5.8026,5.79,5.79,5.79,5.79,5.79,5.79,5.79,5.79,5.79,5.79,5.79,5.79,5.79,5.79,5.79,5.79,5.7918,5.8198,5.8428,5.8534,5.8789,5.8987,5.8995,5.8995,5.9225,5.9541,5.9098,5.8909,5.9147,5.8693,5.8187,5.8065,5.762,5.7362,5.7286,5.6201,5.5135,5.5478,5.5532,5.5521,5.5716,5.6494,5.721,5.7815,5.8002,5.8002,5.8002,5.8002,5.8002,5.8002,5.8002,5.8002,5.8002,5.8002,5.8002,5.8002,5.807,5.8327,5.9239,6.0627,6.2059,6.2395,6.2995,6.3172,8.5946,8.4242,8.2205,8.012,7.809,7.8157,7.8056,7.7853,7.7232,7.6893,7.669,7.6048,7.5709,7.5676,7.5676,7.5676,7.5676,7.5676,7.5676,7.5574,7.5676,7.5303,7.4683,7.5303,7.5303,7.4784,7.5202,7.5439,7.5518,7.554,7.5608,7.554,7.475,7.4086,7.3387,7.2563,7.1582,7.0375,7.0105,6.9394,6.8075,6.714,6.6058,6.4739,6.3169,6.2018,6.1197,5.9834,5.9022,5.8945,5.8321,5.7934,5.7924,5.7924,5.79,5.79,5.79,5.79,5.79,5.79,5.79,5.79,5.79,5.79,5.79,5.79,5.79,5.79,5.8124,5.8312,5.855,5.8822,5.897,5.8978,5.8987,5.8996,5.8892,5.8858,5.8622,5.8421,5.826,5.8133,5.7936,5.79,5.7435,5.703,5.6602,5.6132,5.5517,5.5409,5.5452,5.558,5.583,5.617,5.7558,5.766,5.7768,5.7791,5.7691,5.7867,5.7943,5.8002,5.7937,5.7925,5.7861,5.7861,5.7931,5.8186,5.851,5.9055,5.9453,6.0407,6.2028,6.1783,6.2071,8.4691,8.3058,8.1325,7.9837,7.8822,7.9194,7.8902,7.8056,7.8247,7.7761,7.6961,7.6589,7.6183,7.5676,7.5676,7.5676,7.5676,7.5676,7.5676,7.5676,7.5676,7.554,7.5371,7.562,7.5574,7.5405,7.5562,7.5676,7.5676,7.5676,7.5676,7.5574,7.4953,7.4221,7.3488,7.2766,7.1887,7.0996,7.0894,7.0398,6.9394,6.8639,6.7546,6.6024,6.4096,6.2753,6.2009,6.1018,6.024,5.9733,5.8989,5.8616,5.8549,5.8161,5.79,5.79,5.79,5.79,5.79,5.79,5.79,5.79,5.79,5.79,5.79,5.79,5.79,5.7927,5.8072,5.8377,5.8859,5.8948,5.8866,5.8875,5.8875,5.8858,5.8788,5.8578,5.8366,5.8232,5.8124,5.7972,5.7859,5.7476,5.7103,5.6783,5.5952,5.5358,5.5032,5.4836,5.4887,5.5186,5.5386,5.5815,5.6684,5.6769,5.6747,5.697,5.7034,5.7053,5.7116,5.7327,5.7346,5.7474,5.7498,5.772,5.7797,5.8039,5.8437,5.9385,5.9747,6.0114,6.2065,6.1851,6.2181,8.3515,8.1971,8.0716,7.9634,7.8855,7.9261,7.9058,7.8382,7.8619,7.8314,7.7592,7.713,7.6589,7.6082,7.5845,7.5676,7.5676,7.5676,7.5676,7.5676,7.5676,7.5676,7.5676,7.5676,7.5676,7.5676,7.5676,7.5676,7.5676,7.5676,7.5676,7.5642,7.5202,7.4593,7.386,7.3138,7.2394,7.1785,7.1639,7.1278,7.0567,6.9823,6.8876,6.7444,6.5381,6.3724,6.2787,6.2042,6.1443,6.0791,5.9902,5.925,5.8989,5.8524,5.8118,5.7958,5.8127,5.8254,5.8263,5.8254,5.8364,5.8533,5.8161,5.7967,5.8195,5.8026,5.79,5.7961,5.8271,5.8658,5.8848,5.9118,5.9264,5.9086,5.8907,5.8753,5.8605,5.8375,5.8223,5.809,5.7991,5.7918,5.7832,5.7451,5.7239,5.7171,5.6064,5.5353,5.5296,5.4787,5.4554,5.4793,5.4784,5.4996,5.5424,5.5452,5.6012,5.6288,5.6566,5.6506,5.6452,5.6649,5.688,5.7019,5.7215,5.7456,5.7708,5.7902,5.8688,5.9777,5.9606,5.9532,6.089,6.1955,6.2212,8.272,8.1405,8.0513,7.9397,7.8213,7.8259,7.8517,7.8788,7.8327,7.836,7.8483,7.7502,7.6826,7.6623,7.598,7.5676,7.5676,7.5676,7.5676,7.5676,7.5676,7.5676,7.5676,7.5676,7.5676,7.5676,7.5676,7.5676,7.5676,7.5676,7.5676,7.5676,7.5642,7.5202,7.4547,7.3747,7.3082,7.2496,7.2326,7.2056,7.13,7.0635,6.9936,6.8977,6.6891,6.5121,6.3724,6.2922,6.2458,6.2188,6.1037,5.9834,5.9327,5.9056,5.8727,5.8297,5.866,5.8979,5.9013,5.9022,5.9302,5.9573,5.877,5.8355,5.8693,5.8355,5.7992,5.8137,5.8533,5.877,5.8512,5.9389,5.9981,5.9607,5.905,5.8741,5.8348,5.8189,5.8108,5.7954,5.79,5.79,5.79,5.7798,5.773,5.7629,5.7079,5.6494,5.6283,5.5398,5.4754,5.461,5.4341,5.4203,5.4177,5.4239,5.5054,5.5745,5.6055,5.6159,5.5999,5.6075,5.6328,5.649,5.681,5.7082,5.7823,5.806,5.8435,5.9162,5.8898,5.9318,6.0639,6.1814,6.1991,8.3375,8.2035,8.127,7.9781,7.8191,7.8551,7.8653,7.8348,7.809,7.8157,7.8111,7.7333,7.6623,7.6149,7.5777,7.5709,7.5676,7.5676,7.5676,7.5676,7.5676,7.5676,7.5676,7.5676,7.5676,7.5676,7.5676,7.5676,7.5676,7.5676,7.5676,7.5676,7.5676,7.5303,7.4615,7.3849,7.315,7.2563,7.2913,7.28,7.2124,7.1819,7.1345,7.0455,6.8402,6.6948,6.6474,6.485,6.37,6.3217,6.2709,6.1897,6.0781,6.0037,5.9641,5.9471,5.9607,5.9766,5.9776,5.9766,5.9844,5.9979,5.965,5.9259,5.9022,5.8819,5.865,5.866,5.8878,5.9022,5.9475,5.9954,5.9948,5.8762,5.8918,5.8911,5.8359,5.8097,5.7963,5.7918,5.79,5.79,5.79,5.79,5.79,5.7866,5.7282,5.6858,5.663,5.5683,5.4694,5.4678,5.4059,5.3822,5.4227,5.4433,5.4722,5.5266,5.5524,5.5593,5.5477,5.5499,5.5773,5.6195,5.6458,5.7046,5.7765,5.8304,5.8707,5.9163,5.9545,6.0303,6.1227,6.1667,6.1881,8.3477,8.2327,8.1608,8.0357,7.8868,7.908,7.9025,7.8733,7.8225,7.8293,7.853,7.7435,7.6995,7.6758,7.6115,7.5879,7.6082,7.5845,7.5676,7.5676,7.5676,7.5676,7.5676,7.5676,7.5676,7.5676,7.5676,7.5676,7.5676,7.5676,7.5676,7.5676,7.5676,7.5473,7.4953,7.4289,7.3544,7.3015,7.3251,7.3251,7.2834,7.2529,7.2293,7.1819,6.9925,6.8707,6.8267,6.6981,6.5797,6.4874,6.4502,6.3396,6.1569,6.1028,6.0858,6.0588,6.0588,6.0655,6.0868,6.0723,6.0689,6.0825,6.0419,6.0114,5.981,5.9665,5.9394,5.9394,5.9733,5.9936,6.0133,6.0828,6.0395,5.909,5.9426,5.9306,5.8649,5.8133,5.7943,5.79,5.79,5.79,5.79,5.79,5.79,5.7832,5.7518,5.7205,5.6968,5.6224,5.5762,5.5246,5.4669,5.4601,5.4797,5.4753,5.4559,5.4757,5.4996,5.4942,5.485,5.4965,5.5164,5.6005,5.6466,5.7457,5.8227,5.8684,5.9077,5.9638,6.0224,6.089,6.1551,6.1594,6.1814,8.3186,8.2408,8.1663,8.0898,8.004,7.9384,7.9397,7.9735,7.8597,7.872,7.9329,7.7773,7.7604,7.8213,7.6589,7.6115,7.6724,7.6183,7.598,7.598,7.5912,7.5845,7.5709,7.5676,7.5676,7.5676,7.5676,7.5676,7.5676,7.5676,7.5676,7.5676,7.5676,7.5676,7.5439,7.4931,7.4175,7.3657,7.3522,7.3488,7.3488,7.2879,7.2845,7.3353,7.1458,6.9992,6.9383,6.8842,6.8087,6.6903,6.5797,6.4184,6.2245,6.2144,6.2086,6.167,6.1525,6.1839,6.2154,6.2009,6.1772,6.2018,6.1231,6.0486,6.096,6.052,6.0182,6.0216,6.0714,6.0883,6.0655,6.1395,6.1463,6.0549,6.0231,5.9867,5.9161,5.8466,5.8229,5.8127,5.8035,5.7934,5.7992,5.7992,5.79,5.79,5.7823,5.7755,5.7586,5.7079,5.6911,5.6259,5.5344,5.5177,5.528,5.5358,5.5209,5.5248,5.5274,5.5028,5.4786,5.4835,5.4919,5.5751,5.6784,5.7772,5.8546,5.8993,5.9654,6.0377,6.0915,6.1398,6.1582,6.1624,6.1887,8.4403,8.3152,8.2408,8.1359,8.0175,7.9418,7.9215,7.9283,7.845,7.8585,7.8923,7.7638,7.7468,7.8056,7.6601,7.642,7.7266,7.6939,7.6927,7.7232,7.6792,7.6217,7.5777,7.5676,7.5676,7.5676,7.5676,7.5676,7.5676,7.5676,7.5676,7.5676,7.5676,7.5676,7.5574,7.4987,7.4547,7.4255,7.3725,7.3781,7.4119,7.3556,7.3578,7.4086,7.2665,7.147,7.0658,6.9643,6.8402,6.6869,6.555,6.4657,6.3734,6.3429,6.3352,6.3599,6.3632,6.3487,6.3318,6.3487,6.3294,6.256,6.2516,6.2236,6.1332,6.1129,6.0994,6.1028,6.1221,6.1255,6.1163,6.1839,6.2052,6.1782,6.0925,6.0224,5.9785,5.9191,5.8887,5.9312,5.8567,5.8364,5.8423,5.8254,5.7958,5.79,5.79,5.79,5.7755,5.7442,5.7054,5.6693,5.6025,5.5767,5.5695,5.5843,5.5911,5.5961,5.5854,5.5631,5.5327,5.5182,5.5274,5.5599,5.6977,5.8098,5.8793,5.9371,6.0177,6.0942,6.1182,6.1455,6.1544,6.16,6.1941,8.5093,8.3883,8.3172,8.2002,8.0682,8.0209,7.987,7.9464,7.8822,7.8889,7.9126,7.801,7.7954,7.8699,7.7379,7.7345,7.8247,7.7718,7.7616,7.7819,7.7548,7.677,7.5946,7.5676,7.5676,7.5676,7.5676,7.5676,7.5676,7.5676,7.5676,7.5676,7.5676,7.5676,7.5687,7.5337,7.4886,7.4581,7.4153,7.4187,7.4514,7.3894,7.4165,7.4525,7.3646,7.2428,7.13,6.988,6.8504,6.7387,6.644,6.573,6.5087,6.4681,6.4603,6.5053,6.4783,6.4478,6.4502,6.458,6.4208,6.3599,6.3792,6.3521,6.2878,6.2439,6.2236,6.2269,6.1975,6.1782,6.1815,6.2154,6.2357,6.2221,6.1579,6.0936,6.0646,5.9945,5.9742,5.9776,5.9404,5.8804,5.9056,5.8616,5.8254,5.7992,5.79,5.79,5.7832,5.7442,5.723,5.6998,5.6768,5.6511,5.6507,5.665,5.6619,5.6645,5.6567,5.6289,5.6073,5.5827,5.5934,5.6334,5.7405,5.8273,5.8879,5.9533,6.0418,6.0987,6.1214,6.1398,6.1526,6.1423,6.1817,8.5554,8.4749,8.395,8.2847,8.1778,8.1473,8.0966,8.0276,7.9667,7.9667,7.9769,7.872,7.8868,8.012,7.8428,7.8382,7.9147,7.845,7.8179,7.8179,7.8022,7.7447,7.633,7.6014,7.598,7.5912,7.5777,7.5709,7.5676,7.5676,7.5676,7.5676,7.5676,7.5676,7.5676,7.5642,7.5337,7.4897,7.4581,7.4615,7.4683,7.4187,7.4322,7.4864,7.3657,7.2462,7.1267,7.0026,6.8865,6.8053,6.7895,6.6857,6.5797,6.5639,6.574,6.5706,6.5358,6.5222,6.5459,6.5121,6.4739,6.4546,6.4546,6.4647,6.4275,6.3758,6.3409,6.324,6.2854,6.2594,6.255,6.2594,6.2797,6.283,6.2627,6.2188,6.1569,6.0757,6.025,6.0283,6.025,5.9766,5.9462,5.9081,5.8887,5.8795,5.8567,5.85,5.8398,5.8118,5.7934,5.7773,5.7518,5.7282,5.738,5.7556,5.7426,5.7344,5.7278,5.7114,5.6986,5.6812,5.6891,5.7274,5.7977,5.8426,5.8745,5.9555,6.0475,6.0941,6.1139,6.1346,6.1497,6.1218,6.137,8.711,8.6284,8.4931,8.4174,8.3714,8.2678,8.1731,8.1033,8.0864,8.0593,8.0073,7.9215,7.9431,8.012,7.8868,7.8686,7.9735,7.9194,7.8877,7.8889,7.8855,7.8382,7.7515,7.6995,7.6657,7.6487,7.598,7.5709,7.5676,7.5676,7.5676,7.5676,7.5676,7.5676,7.5676,7.5676,7.5676,7.5371,7.492,7.4953,7.5202,7.4695,7.4446,7.4717,7.3003,7.1853,7.1267,7.0432,6.962,6.8774,6.776,6.688,6.6079,6.5808,6.6011,6.6339,6.6362,6.6092,6.5865,6.5967,6.5787,6.4918,6.5199,6.5222,6.4647,6.4512,6.4096,6.369,6.3352,6.325,6.3284,6.3802,6.3903,6.3835,6.3531,6.3193,6.2854,6.183,6.1332,6.1443,6.0858,6.0283,6.0646,6.008,5.9844,5.9641,5.9438,5.9302,5.9066,5.8795,5.8666,5.8542,5.8121,5.79,5.8157,5.8224,5.8019,5.7862,5.7774,5.7741,5.7612,5.7492,5.7397,5.7735,5.8276,5.862,5.8752,5.9558,6.0537,6.0805,6.0989,6.1031,6.1022,6.0875,6.1152,8.7583,8.6792,8.5642,8.4742,8.4018,8.324,8.2306,8.1507,8.1676,8.1202,8.0378,8.0073,8.0175,8.0141,7.9431,7.9532,7.9972,7.9837,7.9621,7.9634,7.9587,7.9397,7.8991,7.8213,7.7671,7.6961,7.6082,7.5743,7.5676,7.5676,7.5676,7.5676,7.5676,7.5676,7.5676,7.5676,7.5676,7.5642,7.5359,7.5337,7.554,7.4999,7.4581,7.4412,7.3138,7.2225,7.1819,7.0748,6.9891,6.9113,6.829,6.7512,6.6789,6.6406,6.6474,6.67,6.6802,6.6667,6.644,6.6497,6.6464,6.573,6.6034,6.5922,6.5595,6.5358,6.4962,6.4546,6.4275,6.4028,6.4028,6.4265,6.458,6.4546,6.4275,6.3893,6.3419,6.2516,6.1917,6.2188,6.1704,6.1298,6.1129,6.0825,6.0452,6.0114,5.9945,5.981,5.9742,5.95,5.9411,5.9192,5.8733,5.8586,5.8884,5.8865,5.8527,5.8329,5.8164,5.8104,5.8009,5.7873,5.7773,5.8101,5.8401,5.8564,5.8836,5.9712,6.0168,6.0305,6.0379,6.0505,6.0623,6.0659,6.1197,8.7437,8.6995,8.6163,8.506,8.3943,8.3727,8.2847,8.1697,8.2238,8.1765,8.0716,8.1135,8.1122,8.0648,8.0412,8.0344,8.0242,8.0378,8.031,8.0073,8.0073,8.004,7.9803,7.9194,7.828,7.7096,7.6352,7.5946,7.5743,7.5676,7.5676,7.5676,7.5676,7.5676,7.5676,7.5676,7.5676,7.5676,7.5642,7.5608,7.5642,7.5134,7.4818,7.4412,7.3544,7.28,7.2124,7.1142,7.006,6.9316,6.9282,6.8842,6.8166,6.759,6.714,6.7208,6.7343,6.7343,6.7343,6.7275,6.7242,6.714,6.6971,6.7072,6.6971,6.6406,6.5899,6.5605,6.5256,6.4749,6.4749,6.5053,6.5053,6.4975,6.4918,6.4478,6.3903,6.3159,6.283,6.2357,6.2154,6.1907,6.1704,6.1467,6.0994,6.0622,6.0486,6.0351,6.0317,6.0201,6.012,5.9837,5.9368,5.9176,5.9432,5.9214,5.8911,5.8848,5.8635,5.8454,5.8314,5.8069,5.7944,5.8108,5.8336,5.8527,5.8676,5.9063,5.9442,5.9623,5.9783,5.9907,6.0133,6.0435,6.1229,8.6927,8.7685,8.6345,8.5635,8.533,8.4695,8.3545,8.2475,8.3003,8.2475,8.1338,8.1866,8.2124,8.1786,8.1338,8.0784,8.0526,8.0729,8.0763,8.0357,8.0242,8.0209,8.0073,7.9566,7.8686,7.7853,7.7096,7.6487,7.5811,7.5676,7.5676,7.5676,7.5676,7.5676,7.5676,7.5676,7.5676,7.5676,7.5676,7.5676,7.5642,7.5506,7.5156,7.4649,7.3612,7.2868,7.2428,7.1639,7.0804,7.0139,7.0037,6.9631,6.9147,6.8797,6.8662,6.8493,6.847,6.8392,6.8436,6.8571,6.8662,6.8571,6.8098,6.8098,6.8132,6.7444,6.6711,6.6373,6.5967,6.5503,6.5527,6.5899,6.6328,6.6261,6.5831,6.5425,6.5121,6.4556,6.3676,6.2932,6.2627,6.2357,6.211,6.1975,6.1738,6.1535,6.1501,6.1264,6.1086,6.096,6.0829,6.0476,6.0007,5.9911,5.9979,5.9548,5.9223,5.9343,5.9146,5.8773,5.8582,5.8191,5.8126,5.8516,5.8538,5.8536,5.8644,5.8897,5.9202,5.9804,5.9606,5.94,6.022,6.1042,6.1387,8.7189,8.7299,8.623,8.5554,8.5148,8.4796,8.3984,8.3172,8.3714,8.324,8.2408,8.2577,8.2509,8.19,8.1507,8.1067,8.0999,8.1101,8.1101,8.0763,8.0412,8.0209,8.0171,7.9765,7.9261,7.8686,7.8133,7.713,7.5845,7.5709,7.5743,7.5676,7.5676,7.5676,7.5676,7.5676,7.5676,7.5676,7.5676,7.5676,7.5676,7.5676,7.5427,7.4965,7.4187,7.36,7.333,7.2394,7.1751,7.1345,7.0962,7.0601,7.0319,7.0117,6.988,6.9316,6.9147,6.9113,6.9113,6.9079,6.9045,6.9034,6.8707,6.8707,6.8707,6.8064,6.7242,6.6802,6.6599,6.6271,6.6271,6.6599,6.6768,6.6734,6.643,6.6102,6.5784,6.5389,6.4566,6.3632,6.3342,6.298,6.2391,6.2323,6.2391,6.2424,6.2458,6.2212,6.1897,6.167,6.1467,6.1342,6.0936,6.0665,6.0622,6.0206,5.9902,5.9979,5.9708,5.9302,5.9201,5.9007,5.9029,5.9291,5.9161,5.9005,5.945,5.9956,5.9981,6.002,6.021,6.0496,6.1091,6.1643,6.1988,8.687,8.6623,8.5858,8.5215,8.4661,8.458,8.4187,8.3761,8.4255,8.3849,8.2834,8.3321,8.2983,8.2048,8.1778,8.171,8.1575,8.1575,8.1473,8.1024,8.0148,7.9806,7.9832,7.9744,7.9284,7.8489,7.8861,7.8053,7.6669,7.6115,7.598,7.5946,7.5879,7.5676,7.5676,7.5676,7.5676,7.5676,7.5676,7.5676,7.5676,7.5676,7.5676,7.5608,7.4999,7.4514,7.4277,7.3071,7.2394,7.2045,7.1672,7.1233,7.1255,7.1289,7.0725,6.9778,6.9575,6.9542,6.9586,6.9654,6.9789,6.9778,6.9451,6.9417,6.935,6.8842,6.7793,6.7072,6.6768,6.6734,6.67,6.6802,6.6802,6.6802,6.6768,6.6599,6.6214,6.5852,6.5592,6.4827,6.4279,6.3805,6.3352,6.3203,6.3372,6.3159,6.3193,6.2888,6.2574,6.2245,6.212,6.2188,6.1985,6.1545,6.1298,6.1052,6.0892,6.0936,6.0419,5.9877,5.9979,6.0047,6.0122,6.0095,6.0124,6.009,6.0563,6.0763,6.0551,6.0601,6.1035,6.1426,6.1797,6.2126,6.2436,8.4451,8.5858,8.5067,8.4647,8.4614,8.458,8.4187,8.3693,8.4309,8.4153,8.3422,8.4052,8.3917,8.3219,8.305,8.278,8.2361,8.2069,8.1654,8.092,7.9565,7.873,7.8611,7.8598,7.8398,7.8068,7.8707,7.8569,7.7718,7.7096,7.6724,7.6589,7.6149,7.5676,7.5709,7.5845,7.5676,7.5709,7.5676,7.5676,7.5676,7.5676,7.5676,7.5506,7.51,7.4683,7.4547,7.3431,7.2631,7.2394,7.174,7.1368,7.1289,7.1289,7.1267,7.1097,7.1052,7.103,7.0894,7.0793,7.0759,7.0624,7.0364,7.05,7.0229,6.9586,6.8402,6.6937,6.6869,6.6893,6.6937,6.6836,6.6802,6.6802,6.6802,6.6802,6.6643,6.6667,6.6339,6.6081,6.5566,6.5036,6.4583,6.4468,6.4343,6.414,6.3859,6.3555,6.3149,6.2719,6.2424,6.2424,6.2424,6.2018,6.1849,6.1603,6.1637,6.1782,6.1274,6.0631,6.081,6.0964,6.0871,6.087,6.0932,6.1046,6.1251,6.1254,6.1001,6.1231,6.1722,6.2053,6.228,6.2599,6.2928,8.3613,8.4718,8.4629,8.458,8.458,8.458,8.4424,8.4221,8.4444,8.4411,8.4221,8.4424,8.4187,8.3592,8.3118,8.2712,8.234,8.2002,8.1208,8.0292,7.9009,7.8035,7.7498,7.7443,7.7331,7.8033,7.8461,7.9123,7.8661,7.809,7.7379,7.6961,7.6893,7.6499,7.6014,7.6183,7.6048,7.5845,7.5676,7.5676,7.5676,7.5676,7.5676,7.5676,7.5337,7.5224,7.4931,7.4311,7.3409,7.3037,7.2326,7.1718,7.1402,7.1289,7.13,7.13,7.1255,7.1267,7.1267,7.1289,7.1289,7.1267,7.0973,7.0804,7.0635,7.0094,6.9282,6.8267,6.7692,6.7444,6.7309,6.7039,6.6869,6.6836,6.6903,6.714,6.7275,6.7379,6.7267,6.7077,6.6829,6.6242,6.5699,6.5381,6.5087,6.4681,6.4333,6.3961,6.3419,6.2787,6.256,6.2424,6.2424,6.2323,6.2221,6.211,6.2178,6.2255,6.2221,6.1757,6.1777,6.1825,6.1767,6.1872,6.2095,6.2125,6.2037,6.2006,6.2015,6.2208,6.2461,6.2791,6.3122,6.3186,6.354,8.2692,8.3165,8.3853,8.4116,8.413,8.413,8.4089,8.4116,8.4042,8.4265,8.4506,8.4424,8.4052,8.3612,8.2936,8.2564,8.2644,8.1744,8.0631,7.9562,7.8403,7.7254,7.6476,7.6206,7.6887,7.8266,7.8365,7.9165,7.9719,7.9274,7.8259,7.7468,7.7684,7.7345,7.6724,7.6555,7.6454,7.5743,7.5676,7.5676,7.5676,7.5676,7.5676,7.5676,7.5676,7.5676,7.5608,7.4931,7.4187,7.3781,7.3082,7.2462,7.209,7.2078,7.2056,7.2056,7.2078,7.2045,7.1875,7.1672,7.1368,7.1289,7.1233,7.0939,7.0342,7.0172,6.9868,6.8977,6.8571,6.8267,6.8098,6.7715,6.7478,6.7343,6.7174,6.7489,6.7715,6.7719,6.7752,6.7649,6.7446,6.7345,6.6825,6.6305,6.5831,6.5314,6.4874,6.4434,6.3822,6.3131,6.3005,6.2948,6.3139,6.3183,6.3135,6.3033,6.2966,6.283,6.283,6.2898,6.2952,6.2827,6.2678,6.2906,6.3148,6.3105,6.2958,6.3015,6.3082,6.3308,6.3511,6.3786,6.3996,6.4045,6.4267,8.107,8.1115,8.2292,8.2788,8.283,8.283,8.2816,8.2802,8.2858,8.3619,8.4459,8.3965,8.3919,8.395,8.3071,8.2665,8.3219,8.1947,8.0426,7.8991,7.7683,7.6228,7.5475,7.5408,7.605,7.7702,7.8231,7.9433,8.0588,8.0289,7.9532,7.9012,7.8585,7.8124,7.7548,7.7063,7.6487,7.5845,7.5676,7.5676,7.5676,7.5676,7.5676,7.5676,7.5676,7.5676,7.5642,7.5055,7.4581,7.4378,7.3781,7.3285,7.3015,7.2981,7.2947,7.2947,7.2981,7.2935,7.28,7.2157,7.147,7.1334,7.13,7.1142,7.0477,7.0274,6.9868,6.9406,6.918,6.9045,6.9011,6.8865,6.8335,6.7986,6.7783,6.7963,6.8099,6.7868,6.7946,6.8032,6.8053,6.8019,6.7975,6.7489,6.6677,6.6159,6.5425,6.4996,6.4464,6.3884,6.3772,6.381,6.412,6.4235,6.4343,6.4174,6.3845,6.3778,6.3812,6.3971,6.4184,6.398,6.3669,6.3728,6.3936,6.3889,6.3816,6.3772,6.3839,6.4282,6.4509,6.457,6.5034,6.5443,6.5591,8.0348,7.9965,7.9828,8.044,8.1505,8.1315,8.1227,8.1417,8.2273,8.3407,8.4439,8.355,8.3328,8.3461,8.297,8.2238,8.1932,8.0278,7.8955,7.7636,7.6192,7.53,7.4815,7.5068,7.5951,7.7692,7.8396,7.9094,8.0378,8.0615,8.0412,7.987,7.9363,7.872,7.8145,7.7401,7.6589,7.5946,7.5709,7.5709,7.5676,7.5676,7.5676,7.5676,7.5676,7.5676,7.5642,7.5473,7.5055,7.4695,7.4356,7.4018,7.3725,7.3624,7.3624,7.3624,7.3624,7.3624,7.359,7.2947,7.2496,7.2011,7.1943,7.1672,7.1041,7.0906,7.0804,7.0421,7.0026,6.9891,6.9755,6.9383,6.8842,6.8571,6.8504,6.8605,6.8573,6.8385,6.8419,6.8662,6.8741,6.873,6.873,6.8696,6.7827,6.6981,6.6248,6.5534,6.5016,6.489,6.487,6.4806,6.5103,6.5161,6.5259,6.5009,6.4715,6.485,6.4952,6.5155,6.5355,6.4923,6.4678,6.4727,6.4888,6.5094,6.4985,6.4541,6.4645,6.5157,6.524,6.5113,6.5773,6.6763,6.7046,7.9207,7.8826,7.7648,7.8217,7.9805,7.9682,7.959,7.9773,8.0813,8.2202,8.3379,8.2529,8.2849,8.3147,8.1853,8.1377,8.0535,7.9007,7.7352,7.6196,7.5361,7.4654,7.437,7.4627,7.543,7.7523,7.8101,7.8558,8.0644,8.0851,8.0547,8.0242,8.0141,7.9464,7.8902,7.7908,7.7063,7.6284,7.6048,7.5845,7.5777,7.5676,7.5676,7.5676,7.5676,7.5676,7.5676,7.5574,7.5439,7.5134,7.4886,7.4695,7.4356,7.4165,7.4165,7.4131,7.4131,7.4131,7.4097,7.3624,7.3319,7.28,7.2744,7.2462,7.2124,7.1921,7.1954,7.1537,7.112,7.0748,7.0601,7.0195,6.9755,6.9474,6.918,6.9214,6.9225,6.9137,6.9181,6.9327,6.9214,6.8899,6.8358,6.8256,6.8222,6.7692,6.7658,6.6742,6.5687,6.5722,6.6198,6.6148,6.6135,6.6133,6.6084,6.6419,6.6711,6.6846,6.6846,6.6576,6.6545,6.6109,6.6079,6.6399,6.6546,6.6501,6.6506,6.6514,6.6326,6.6155,6.6459,6.7023,6.7575,6.8571,6.8616,7.7418,7.7703,7.616,7.6462,7.7914,7.7962,7.7946,7.7994,7.8455,7.9636,8.1168,8.105,8.2107,8.2994,8.0794,8.0103,7.9672,7.7828,7.616,7.5244,7.4669,7.404,7.3798,7.3966,7.5491,7.6983,7.7854,7.9003,8.1021,8.0784,8.0424,8.0242,8.0175,8.0006,8.0018,7.9397,7.8268,7.7096,7.6893,7.6454,7.6014,7.5879,7.5879,7.5676,7.5676,7.5676,7.5676,7.5676,7.5574,7.5506,7.5473,7.5371,7.5303,7.5303,7.5337,7.5371,7.5439,7.5473,7.5473,7.4266,7.3725,7.3522,7.3488,7.3319,7.3353,7.3251,7.2879,7.2191,7.2056,7.1785,7.1503,7.1131,7.0624,7.0432,7.0128,6.9969,7.0037,6.9462,6.9394,6.9722,6.9282,6.8707,6.7918,6.7546,6.8019,6.8233,6.8707,6.8085,6.6808,6.6766,6.7322,6.7379,6.7327,6.7494,6.7639,6.8347,6.8707,6.8808,6.8538,6.7996,6.7859,6.7703,6.7795,6.8063,6.8005,6.7848,6.8282,6.8713,6.8334,6.8043,6.8967,6.956,7.0006,7.01,6.9979,7.6446,7.616,7.5414,7.5414,7.5926,7.616,7.6244,7.631,7.6806,7.8312,8.0425,8.0799,8.0773,8.0927,8.0932,7.9752,7.831,7.7166,7.5503,7.4787,7.4086,7.4101,7.404,7.4745,7.6153,7.7823,7.8558,7.8975,8.0513,8.0593,8.0526,8.0344,8.0175,7.9904,7.9532,7.908,7.8539,7.7807,7.7582,7.7278,7.6623,7.6454,7.6217,7.5743,7.5676,7.5676,7.5676,7.5676,7.5676,7.5676,7.5676,7.5676,7.5676,7.5676,7.5676,7.5676,7.5676,7.5676,7.5642,7.5112,7.4728,7.4424,7.4221,7.4018,7.3624,7.3488,7.3082,7.271,7.2631,7.218,7.147,7.1334,7.1097,7.1368,7.1244,7.112,7.0883,6.9766,6.9316,6.9947,6.9947,6.9169,6.8392,6.8053,6.8335,6.8673,6.9113,6.9079,6.8062,6.8148,6.8549,6.8545,6.8553,6.8811,6.9137,6.944,6.9485,6.935,6.9147,6.8808,6.8784,6.8996,6.905,6.9038,6.9101,6.9212,6.9405,6.9613,6.9865,7.0092,7.0565,7.069,7.0643,7.0804,7.0959,7.5859,7.5236,7.5241,7.5095,7.4967,7.5125,7.5329,7.5583,7.597,7.7817,8.0214,8.038,8.056,8.0623,8.0203,7.9535,7.7262,7.5817,7.4803,7.4133,7.3447,7.3477,7.4206,7.511,7.584,7.7552,7.8558,7.9152,8.0238,8.0682,8.0581,8.0276,8.0209,8.0006,7.9667,7.9452,7.9147,7.8585,7.8314,7.7841,7.7164,7.6758,7.6487,7.5946,7.5676,7.5676,7.5676,7.5676,7.5676,7.5676,7.5676,7.5676,7.5676,7.5676,7.5676,7.5676,7.5676,7.5676,7.5676,7.5642,7.527,7.5067,7.4987,7.475,7.4356,7.4436,7.395,7.3544,7.3138,7.2665,7.218,7.2011,7.209,7.236,7.209,7.1921,7.1548,7.0455,6.9655,7.0286,6.9835,6.9192,6.8842,6.891,6.8876,6.918,6.9485,6.9383,6.9316,6.9415,6.9423,6.9281,6.9542,6.9892,6.9993,7.015,7.0083,6.988,6.9688,6.9485,6.9733,6.9935,6.998,7.0037,7.0146,7.0201,7.0205,7.0363,7.0594,7.0924,7.1287,7.1325,7.1205,7.137,7.1657,7.5514,7.5035,7.5617,7.5467,7.4946,7.4877,7.5235,7.589,7.5926,7.7706,8.044,7.9315,7.9818,8.1243,7.9299,7.7704,7.6703,7.4967,7.4005,7.3355,7.3061,7.3154,7.3216,7.3631,7.5244,7.6253,7.7332,7.877,8.0023,8.0344,8.031,8.0209,8.0209,8.0107,8.004,7.9938,7.9667,7.9261,7.8843,7.8247,7.7435,7.6927,7.6454,7.5946,7.5676,7.5676,7.5676,7.5676,7.5676,7.5676,7.5676,7.5676,7.5676,7.5676,7.5676,7.5676,7.5676,7.5676,7.5676,7.5676,7.5676,7.5506,7.5574,7.5608,7.5506,7.5236,7.4796,7.4412,7.4074,7.3781,7.3454,7.3353,7.3251,7.3037,7.2665,7.2417,7.2202,7.1436,7.0523,7.0005,6.9092,6.8539,6.8493,6.8605,6.9214,6.9722,6.9958,7.0026,7.0026,7.0218,7.0104,6.9709,7.0117,7.0827,7.0906,7.059,7.0489,7.0229,7.0364,7.0297,7.0578,7.0646,7.0635,7.0703,7.1064,7.112,7.0838,7.0973,7.1331,7.1641,7.1777,7.1977,7.187,7.2011,7.2197,7.5497,7.4976,7.5617,7.5544,7.4856,7.4407,7.4844,7.5782,7.5734,7.6705,7.8104,7.8691,7.9114,7.8565,7.8565,7.7309,7.6009,7.4899,7.4048,7.343,7.2999,7.2999,7.3231,7.3783,7.5171,7.6366,7.7484,7.8438,7.9857,8.0209,8.0209,8.0209,8.0209,8.0209,8.0209,8.0209,8.0006,7.9769,7.935,7.8471,7.7671,7.7096,7.6487,7.5946,7.5676,7.5676,7.5676,7.5676,7.5676,7.5676,7.5676,7.5676,7.5676,7.5676,7.5676,7.5676,7.5676,7.5676,7.5676,7.5676,7.5676,7.5676,7.5676,7.5676,7.5676,7.5608,7.5337,7.4987,7.475,7.439,7.4097,7.3962,7.4063,7.395,7.3443,7.2924,7.2642,7.1988,7.1109,7.0309,6.9351,6.8877,6.8741,6.8842,6.9485,7.006,7.0432,7.0466,7.0556,7.0725,7.0534,7.006,7.0105,7.0669,7.0804,7.0567,7.0601,7.0601,7.0534,7.0466,7.0511,7.0612,7.1007,7.1199,7.13,7.13,7.1222,7.1401,7.1579,7.1854,7.2023,7.2339,7.2554,7.2512,7.2379,7.5514,7.5035,7.5634,7.5497,7.483,7.405,7.4527,7.5694,7.5504,7.6018,7.741,7.8455,7.8454,7.8106,7.8219,7.7262,7.5142,7.4617,7.3907,7.3245,7.2999,7.2999,7.3355,7.3859,7.5009,7.6277,7.747,7.8358,7.9721,8.0209,8.0209,8.0209,8.0209,8.0209,8.0209,8.0209,8.0209,7.9904,7.9431,7.8585,7.7807,7.713,7.6487,7.5879,7.5709,7.5676,7.5676,7.5676,7.5676,7.5676,7.5676,7.5676,7.5676,7.5676,7.5676,7.5676,7.5676,7.5676,7.5676,7.5676,7.5676,7.5676,7.5676,7.5676,7.5676,7.5642,7.5439,7.5202,7.5067,7.4897,7.4627,7.4436,7.4695,7.4953,7.4175,7.3431,7.289,7.2349,7.1639,7.0894,7.0252,6.9722,6.9519,6.9519,6.962,7.006,7.0331,7.0398,7.0567,7.0793,7.0534,7.0094,7.0071,7.024,7.0342,7.0364,7.0229,7.0094,6.9891,6.9925,7.0139,7.0477,7.0804,7.1064,7.13,7.1289,7.13,7.1468,7.1633,7.1864,7.205,7.2202,7.2331,7.2363,7.223,7.5497,7.4946,7.5574,7.5377,7.4728,7.3801,7.4318,7.568,7.5173,7.6018,7.7622,7.8439,7.8486,7.7934,7.7732,7.6635,7.5115,7.4307,7.3783,7.303,7.2999,7.2999,7.2999,7.32,7.4639,7.5909,7.7041,7.8056,7.9657,8.0209,8.0209,8.0209,8.0209,8.0209,8.0209,8.0209,8.0107,7.9769,7.916,7.8348,7.7435,7.686,7.6487,7.5845,7.5676,7.5676,7.5676,7.5676,7.5676,7.5676,7.5676,7.5676,7.5676,7.5676,7.5676,7.5676,7.5676,7.5676,7.5676,7.5676,7.5676,7.5676,7.5676,7.5676,7.5676,7.5676,7.554,7.5473,7.5371,7.5371,7.5134,7.5067,7.527,7.5067,7.4458,7.3781,7.324,7.2496,7.1571,7.0973,7.0567,7.0094,7.0128,7.0128,7.0286,7.0398,7.0646,7.077,7.0669,7.0928,7.059,7.0161,7.0105,7.0071,7.0003,6.9992,6.9722,6.9553,6.9586,6.9688,7.0172,7.0409,7.0567,7.0928,7.1289,7.1289,7.1334,7.1534,7.1655,7.1699,7.1876,7.1985,7.2117,7.2285,7.2137,7.5497,7.4933,7.5065,7.4736,7.4112,7.3607,7.379,7.4469,7.4611,7.5574,7.7022,7.7336,7.7229,7.6907,7.6597,7.5596,7.4511,7.3999,7.3568,7.3183,7.2999,7.2999,7.3061,7.3231,7.449,7.5866,7.6986,7.7988,7.967,8.0209,8.0209,8.0209,8.0209,8.0209,8.0209,8.0209,8.0006,7.9634,7.8754,7.8314,7.7841,7.6623,7.5811,7.5709,7.5709,7.5743,7.5743,7.5676,7.5676,7.5676,7.5676,7.5676,7.5676,7.5676,7.5676,7.5676,7.5676,7.5676,7.5676,7.5676,7.5676,7.5676,7.5676,7.5676,7.5676,7.5676,7.5676,7.5676,7.5676,7.5676,7.5676,7.5676,7.5608,7.5168,7.4728,7.4165,7.359,7.2597,7.1571,7.1142,7.077,7.0737,7.077,7.0827,7.0962,7.13,7.1751,7.1819,7.1233,7.1131,7.0692,7.0297,7.0139,7.0071,6.9902,6.9925,6.9857,7.0161,7.0398,7.0398,7.0342,7.0601,7.0939,7.1097,7.1289,7.1289,7.1412,7.1712,7.1822,7.187,7.2129,7.2443,7.2422,7.2512,7.2171,7.4629,7.4048,7.4018,7.3821,7.3423,7.3079,7.3238,7.3663,7.3809,7.4526,7.5701,7.6206,7.6322,7.5768,7.5399,7.486,7.3952,7.3645,7.3337,7.3091,7.2999,7.2999,7.3138,7.3508,7.495,7.6338,7.7839,7.9118,8.0048,8.0209,8.0209,8.0209,8.0209,8.0209,8.0209,8.0141,8.0006,7.96,7.8563,7.8259,7.8225,7.713,7.6014,7.5912,7.5992,7.5992,7.5743,7.5676,7.5676,7.5676,7.5676,7.5676,7.5676,7.5676,7.5676,7.5676,7.5676,7.5676,7.5676,7.5676,7.5676,7.5676,7.5676,7.5676,7.5676,7.5676,7.5676,7.5676,7.5676,7.5676,7.5676,7.5676,7.5676,7.5405,7.5168,7.483,7.395,7.2969,7.2259,7.1853,7.165,7.165,7.1684,7.1684,7.174,7.1639,7.2191,7.1954,7.1537,7.13,7.0827,7.0522,7.0432,6.9925,6.9519,6.9823,7.0263,7.0635,7.121,7.1379,7.1413,7.1267,7.1289,7.1368,7.1402,7.1289,7.1468,7.1769,7.2164,7.2336,7.2697,7.3069,7.2924,7.2688,7.2643,7.3462,7.2937,7.2954,7.2847,7.2764,7.2508,7.2748,7.3205,7.3106,7.3422,7.4174,7.5166,7.5561,7.5163,7.4582,7.409,7.3675,7.3337,7.3045,7.303,7.2999,7.2999,7.3447,7.413,7.5548,7.7161,7.8823,7.9541,8.0183,8.0209,8.0209,8.0209,8.0209,8.0209,8.0209,8.0209,8.0107,7.9769,7.9126,7.8686,7.8247,7.7739,7.6792,7.642,7.6454,7.6487,7.6082,7.5743,7.5743,7.5676,7.5676,7.5676,7.5676,7.5676,7.5676,7.5676,7.5676,7.5676,7.5676,7.5676,7.5676,7.5676,7.5676,7.5676,7.5676,7.5676,7.5676,7.5676,7.5676,7.5676,7.5676,7.5676,7.5676,7.5608,7.5473,7.5168,7.4187,7.324,7.28,7.2394,7.2259,7.2259,7.2259,7.2293,7.2326,7.2191,7.2022,7.1639,7.1357,7.1368,7.1131,7.0928,7.0872,7.0263,6.9914,7.0161,7.0939,7.1515,7.2124,7.236,7.2428,7.2056,7.174,7.1571,7.1571,7.1503,7.1548,7.1795,7.219,7.2541,7.2494,7.2606,7.2755,7.2655,7.3129,7.3027,7.2924,7.2924,7.2595,7.2152,7.2283,7.252,7.2692,7.2878,7.3375,7.3679,7.3515,7.3553,7.3569,7.3691,7.3389,7.2977,7.2843,7.2998,7.2999,7.2983,7.2983,7.3539,7.4802,7.6163,7.788,7.9451,7.9998,8.0209,8.0209,8.0209,8.0209,8.0209,8.0209,8.0209,8.0209,8.0141,7.987,7.9498,7.8945,7.8619,7.8111,7.7481,7.7176,7.7096,7.6927,7.6555,7.6014,7.5777,7.5676,7.5676,7.5676,7.5676,7.5676,7.5676,7.5676,7.5676,7.5676,7.5676,7.5676,7.5676,7.5676,7.5676,7.5676,7.5676,7.5676,7.5676,7.5676,7.5676,7.5676,7.5676,7.5676,7.5676,7.5506,7.5359,7.4762,7.3984,7.3308,7.28,7.2394,7.2078,7.2011,7.1954,7.209,7.2394,7.236,7.2496,7.2078,7.1357,7.1368,7.1368,7.1368,7.1267,7.209,7.2394,7.1548,7.1954,7.2529,7.2812,7.2766,7.2665,7.2563,7.2293,7.1774,7.1774,7.1853,7.1909,7.183,7.1964,7.2155,7.1917,7.1894,7.2258,7.2712,7.323]},{"header":{"parameterUnit":"m.s-1","parameterCategory":1,"la1":31.0,"la2":29.5877,"lo1":-88.7671,"lo2":-86.6584,"dy":0.0162,"dx":0.0185,"nx":115,"ny":88,"refTime":"2023-03-13T06:00:00:Z","depth":0,"parameterNumber":3,"parameterNumberName":"V-component_of_WINDS"},"data":[0.0,0.0,0.0,0.0,0.0,0.0,0.0,0.0,0.0,0.0,0.0,0.0,0.0,0.0,0.0,0.0,0.0,0.0,0.0,0.0,0.0,0.0,0.0,0.0,0.0,0.0,0.0,0.0,0.0,0.0,0.0,0.0,0.0,0.0,0.0,0.0,0.0,0.0,0.0,0.0,0.0,0.0,0.0,0.0,0.0,0.0,0.0,0.0,0.0,0.0,0.0,0.0,0.0,0.0,0.0,0.0,0.0,0.0,0.0,0.0,0.0,0.0,0.0,0.0,0.0,0.0,0.0,0.0,0.0,0.0,0.0,0.0,0.0,0.0,0.0,0.0,0.0,0.0,0.0,0.0,0.0,0.0,0.0,0.0,0.0,0.0,0.0,0.0,0.0,0.0,0.0,0.0,0.0,0.0,0.0,0.0,0.0,0.0,0.0,0.0,0.0,0.0,0.0,0.0,0.0,0.0,0.0,0.0,0.0,0.0,0.0,0.0,0.0,0.0,0.0,0.0,0.0,0.0,0.0,0.0,0.0,0.0,0.0,0.0,0.0,0.0,0.0,0.0,0.0,0.0,0.0,0.0,0.0,0.0,0.0,0.0,0.0,0.0,0.0,0.0,0.0,0.0,0.0,0.0,0.0,0.0,0.0,0.0,0.0,0.0,0.0,0.0,0.0,0.0,0.0,0.0,0.0,0.0,0.0,0.0,0.0,0.0,0.0,0.0,0.0,0.0,0.0,0.0,0.0,0.0,0.0,0.0,0.0,0.0,0.0,0.0,0.0,0.0,0.0,0.0,0.0,0.0,0.0,0.0,0.0,0.0,0.0,0.0,0.0,0.0,0.0,0.0,0.0,0.0,0.0,0.0,0.0,0.0,0.0,0.0,0.0,0.0,0.0,0.0,0.0,0.0,0.0,0.0,0.0,0.0,0.0,0.0,0.0,0.0,0.0,0.0,0.0,0.0,0.0,0.0,0.0,0.0,0.0,0.0,0.0,0.0,0.0,0.0,0.0,0.0,0.0,0.0,0.0,0.0,0.0,0.0,0.0,0.0,0.0,0.0,0.0,0.0,0.0,0.0,0.0,0.0,0.0,0.0,0.0,0.0,0.0,0.0,0.0,0.0,0.0,0.0,0.0,0.0,0.0,0.0,0.0,0.0,0.0,0.0,0.0,0.0,0.0,0.0,0.0,0.0,0.0,0.0,0.0,0.0,0.0,0.0,0.0,0.0,0.0,0.0,0.0,0.0,0.0,0.0,0.0,0.0,0.0,0.0,0.0,0.0,0.0,0.0,0.0,0.0,0.0,0.0,0.0,0.0,0.0,0.0,0.0,0.0,0.0,0.0,0.0,0.0,0.0,0.0,0.0,0.0,0.0,0.0,0.0,0.0,0.0,0.0,0.0,0.0,0.0,0.0,0.0,0.0,0.0,0.0,0.0,0.0,0.0,0.0,0.0,0.0,0.0,0.0,0.0,0.0,0.0,0.0,0.0,0.0,0.0,0.0,0.0,0.0,0.0,0.0,0.0,0.0,0.0,0.0,0.0,0.0,0.0,0.0,0.0,0.0,0.0,0.0,0.0,0.0,0.0,0.0,0.0,0.0,0.0,0.0,0.0,0.0,0.0,0.0,0.0,0.0,0.0,0.0,0.0,0.0,0.0,0.0,0.0,0.0,0.0,0.0,0.0,0.0,0.0,0.0,0.0,0.0,0.0,0.0,0.0,0.0,0.0,0.0,0.0,0.0,0.0,0.0,0.0,0.0,0.0,0.0,0.0,0.0,0.0,0.0,0.0,0.0,0.0,0.0,0.0,0.0,0.0,0.0,0.0,0.0,0.0,0.0,0.0,0.0,0.0,0.0,0.0,0.0,0.0,0.0,0.0,0.0,0.0,0.0,0.0,0.0,0.0,0.0,0.0,0.0,0.0,0.0,0.0,0.0,0.0,0.0,0.0,0.0,0.0,0.0,0.0,0.0,0.0,0.0,0.0,0.0,0.0,0.0,0.0,0.0,0.0,0.0,0.0,0.0,0.0,0.0,0.0,0.0,0.0,0.0,0.0,0.0,0.0,0.0,0.0,0.0,0.0,0.0,0.0,0.0,0.0,0.0,0.0,0.0,0.0,0.0,0.0,0.0,0.0,0.0,0.0,0.0,0.0,0.0,0.0,0.0,0.0,0.0,0.0,0.0,0.0,0.0,0.0,0.0,0.0,0.0,0.0,0.0,0.0,0.0,0.0,0.0,0.0,0.0,0.0,0.0,0.0,0.0,0.0,0.0,0.0,0.0,0.0,0.0,0.0,0.0,0.0,0.0,0.0,0.0,0.0,0.0,0.0,0.0,0.0,0.0,0.0,0.0,0.0,0.0,0.0,0.0,0.0,0.0,0.0,0.0,0.0,0.0,0.0,0.0,0.0,0.0,0.0,0.0,0.0,0.0,0.0,0.0,0.0,0.0,0.0,0.0,0.0,0.0,0.0,0.0,0.0,0.0,0.0,0.0,0.0,0.0,0.0,0.0,0.0,0.0,0.0,0.0,0.0,0.0,0.0,0.0,0.0,0.0,0.0,0.0,0.0,0.0,0.0,0.0,0.0,0.0,0.0,0.0,0.0,0.0,0.0,0.0,0.0,0.0,0.0,0.0,0.0,0.0,0.0,0.0,0.0,0.0,0.0,0.0,0.0,0.0,0.0,0.0,0.0,0.0,0.0,0.0,0.0,0.0,0.0,0.0,0.0,0.0,0.0,0.0,0.0,0.0,0.0,0.0,0.0,0.0,0.0,0.0,0.0,0.0,0.0,0.0,0.0,0.0,0.0,0.0,0.0,0.0,0.0,0.0,0.0,0.0,0.0,0.0,0.0,0.0,0.0,0.0,0.0,0.0,0.0,0.0,0.0,0.0,0.0,0.0,0.0,0.0,0.0,0.0,0.0,0.0,0.0,0.0,0.0,0.0,0.0,0.0,0.0,0.0,0.0,0.0,0.0,0.0,0.0,0.0,0.0,0.0,0.0,0.0,0.0,0.0,0.0,0.0,0.0,0.0,0.0,0.0,0.0,0.0,0.0,0.0,0.0,0.0,0.0,0.0,0.0,0.0,0.0,0.0,0.0,0.0,0.0,0.0,0.0,0.0,0.0,0.0,0.0,0.0,0.0,0.0,0.0,0.0,0.0,0.0,0.0,0.0,0.0,0.0,0.0,0.0,0.0,0.0,0.0,0.0,0.0,0.0,0.0,0.0,0.0,0.0,0.0,0.0,0.0,0.0,0.0,0.0,0.0,0.0,0.0,0.0,0.0,0.0,0.0,0.0,0.0,0.0,0.0,0.0,0.0,0.0,0.0,0.0,0.0,0.0,0.0,0.0,0.0,0.0,0.0,0.0,0.0,0.0,0.0,0.0,0.0,0.0,0.0,0.0,0.0,0.0,0.0,0.0,0.0,0.0,0.0,0.0,0.0,0.0,0.0,0.0,0.0,0.0,0.0,0.0,0.0,0.0,0.0,0.0,0.0,0.0,0.0,0.0,0.0,0.0,0.0,0.0,0.0,0.0,0.0,0.0,0.0,0.0,0.0,0.0,0.0,0.0,0.0,0.0,0.0,0.0,0.0,0.0,0.0,0.0,0.0,0.0,0.0,0.0,0.0,0.0,0.0,0.0,0.0,0.0,0.0,0.0,0.0,0.0,0.0,0.0,0.0,0.0,0.0,0.0,0.0,0.0,0.0,0.0,0.0,0.0,0.0,0.0,0.0,0.0,0.0,0.0,0.0,0.0,0.0,0.0,0.0,0.0,0.0,0.0,0.0,0.0,0.0,0.0,0.0,0.0,0.0,0.0,0.0,0.0,0.0,0.0,0.0,0.0,0.0,0.0,0.0,0.0,0.0,0.0,0.0,0.0,0.0,0.0,0.0,0.0,0.0,0.0,0.0,0.0,0.0,0.0,0.0,0.0,0.0,0.0,0.0,0.0,0.0,0.0,0.0,0.0,0.0,0.0,0.0,0.0,0.0,0.0,0.0,0.0,0.0,0.0,0.0,0.0,0.0,0.0,0.0,0.0,0.0,0.0,0.0,0.0,0.0,0.0,0.0,0.0,0.0,0.0,0.0,0.0,0.0,0.0,0.0,0.0,0.0,0.0,0.0,0.0,0.0,0.0,0.0,0.0,0.0,0.0,0.0,0.0,0.0,0.0,0.0,0.0,0.0,0.0,0.0,0.0,0.0,0.0,0.0,0.0,0.0,0.0,0.0,0.0,0.0,0.0,0.0,0.0,0.0,0.0,0.0,0.0,1.0238,0.0,0.0,0.0,0.0,0.0,0.0,0.0,0.0,0.0,0.0,0.0,0.0,0.0,0.0,0.0,0.0,0.0,0.0,0.0,0.0,0.0,0.0,0.0,0.0,0.0,0.0,0.0,0.0,0.0,0.0,0.0,0.0,0.0,0.0,0.0,0.0,0.0,0.0,0.0,0.0,0.0,0.0,0.0,0.0,0.0,0.0,0.0,0.0,0.0,0.0,0.0,0.0,0.0,0.0,0.0,0.0,0.0,0.0,0.0,0.0,0.0,0.0,0.0,0.0,0.0,0.0,0.0,0.0,0.0,0.0,0.0,0.0,0.0,0.0,0.0,0.0,0.0,0.0,0.0,0.0,0.0,0.0,0.0,0.0,0.0,0.0,0.0,0.0,0.0,0.0,0.0,0.0,0.0,0.0,0.0,0.0,0.0,0.0,0.0,0.0,0.0,0.0,0.0,0.0,0.0,0.0,0.0,0.0,0.0,0.0,1.1683,1.168,1.0924,1.0433,1.0303,0.0,0.0,0.0,0.0,0.0,0.0,0.0,0.0,0.0,0.0,0.0,0.0,0.0,0.0,0.0,0.0,0.0,0.0,0.0,0.0,0.0,0.0,0.0,0.0,0.0,0.0,0.0,0.0,0.0,0.0,0.0,0.0,0.0,0.0,0.0,0.0,0.0,0.0,0.0,0.0,0.0,0.0,0.0,0.0,0.0,0.0,0.0,0.0,0.0,0.0,0.0,0.0,0.0,0.0,0.0,0.0,0.0,0.0,0.0,0.0,0.0,0.0,0.0,0.0,0.0,0.0,0.0,0.0,0.0,0.0,0.0,0.0,0.0,0.0,0.0,0.0,0.0,0.0,0.0,0.0,0.0,0.0,0.0,0.0,0.0,0.0,0.0,0.0,0.0,0.0,0.0,0.0,0.0,0.0,0.0,0.0,0.0,0.0,0.0,0.0,0.0,0.0,0.0,0.0,0.0,0.0,0.0,0.0,0.0,0.0,0.0,0.0,1.1211,1.0723,1.0325,0.0,0.0,0.0,0.0,0.0,0.0,0.0,0.0,0.0,0.0,0.0,0.0,0.0,0.0,0.0,0.0,0.0,0.0,0.0,0.0,0.0,0.0,0.0,0.0,0.0,0.0,0.0,0.0,0.0,0.0,0.0,0.0,0.0,0.0,0.0,0.0,0.0,0.0,0.0,0.0,0.0,0.0,0.0,0.0,0.0,0.0,0.0,0.0,0.0,0.0,0.0,0.0,0.0,0.0,0.0,0.0,0.0,0.0,0.0,0.0,0.0,0.0,0.0,0.0,0.0,0.0,0.0,0.0,0.0,0.0,0.0,0.0,0.0,0.0,0.0,0.0,0.0,0.0,0.0,0.0,0.0,0.0,0.0,0.0,0.0,0.0,0.0,0.0,0.0,0.0,0.0,0.0,0.0,0.0,0.0,0.0,0.0,0.0,0.0,0.0,0.0,0.0,0.0,0.0,0.0,0.0,0.0,0.0,0.0,0.0,1.1849,1.2055,1.1134,0.0,1.0305,0.0,0.0,0.0,0.0,0.0,0.0,0.0,0.0,0.0,0.0,0.0,0.0,0.0,0.0,0.0,0.0,0.0,0.0,0.0,0.0,0.0,0.0,0.0,0.0,0.0,0.0,0.0,0.0,0.0,0.0,0.0,0.0,0.0,0.0,0.0,0.0,0.0,0.0,0.0,0.0,0.0,0.0,0.0,0.0,0.0,0.0,0.0,0.0,0.0,0.0,0.0,0.0,0.0,0.0,0.0,0.0,0.0,0.0,0.0,0.0,0.0,0.0,0.0,0.0,0.0,0.0,0.0,0.0,0.0,0.0,0.0,0.0,0.0,0.0,0.0,0.0,0.0,0.0,0.0,0.0,0.0,0.0,0.0,0.0,0.0,0.0,0.0,0.0,0.0,0.0,0.0,0.0,0.0,0.0,0.0,0.0,0.0,0.0,0.0,0.0,0.0,0.0,0.0,0.0,0.0,0.0,0.0,0.0,0.0,0.0,1.1871,1.1876,1.1193,1.0864,0.0,0.0,0.0,0.0,0.0,0.0,0.0,0.0,0.0,0.0,0.0,0.0,0.0,0.0,0.0,0.0,0.0,0.0,0.0,0.0,0.0,0.0,0.0,0.0,0.0,0.0,0.0,0.0,0.0,0.0,0.0,0.0,0.0,0.0,0.0,0.0,0.0,0.0,0.0,0.0,0.0,0.0,0.0,0.0,0.0,0.0,0.0,0.0,0.0,0.0,0.0,0.0,0.0,0.0,0.0,0.0,0.0,0.0,0.0,0.0,0.0,0.0,0.0,0.0,0.0,0.0,0.0,0.0,0.0,0.0,0.0,0.0,0.0,0.0,0.0,0.0,0.0,0.0,0.0,0.0,0.0,0.0,0.0,0.0,0.0,0.0,0.0,0.0,0.0,0.0,0.0,0.0,0.0,0.0,0.0,0.0,0.0,0.0,0.0,0.0,0.0,0.0,0.0,0.0,0.0,0.0,0.0,0.0,0.0,0.0,1.2283,1.1978,1.1706,1.1294,1.1112,1.1219,0.0,0.0,0.0,0.0,0.0,0.0,0.0,0.0,0.0,0.0,0.0,0.0,0.0,0.0,0.0,0.0,0.0,0.0,0.0,0.0,0.0,0.0,0.0,0.0,0.0,0.0,0.0,0.0,0.0,0.0,0.0,0.0,0.0,0.0,0.0,0.0,0.0,0.0,0.0,0.0,0.0,0.0,0.0,0.0,0.0,0.0,0.0,0.0,0.0,0.0,0.0,0.0,0.0,0.0,0.0,0.0,0.0,0.0,0.0,0.0,0.0,0.0,0.0,0.0,0.0,0.0,0.0,0.0,0.0,0.0,0.0,0.0,0.0,0.0,0.0,0.0,0.0,0.0,0.0,0.0,0.0,0.0,0.0,0.0,0.0,0.0,0.0,0.0,0.0,0.0,0.0,0.0,0.0,0.0,0.0,0.0,0.0,0.0,0.0,0.0,0.0,0.0,0.0,0.0,0.0,0.0,0.0,0.0,1.3028,1.2606,1.2148,1.1705,1.1423,1.1209,0.0,0.0,0.0,0.0,0.0,0.0,0.0,0.0,0.0,0.0,0.0,0.0,0.0,0.0,0.0,0.0,0.0,0.0,0.0,0.0,0.0,0.0,0.0,0.0,0.0,0.0,0.0,0.0,0.0,0.0,0.0,0.0,0.0,0.0,0.0,0.0,0.0,0.0,0.0,0.0,0.0,0.0,0.0,0.0,0.0,0.0,0.0,0.0,0.0,0.0,0.0,0.0,0.0,0.0,0.0,0.0,0.0,0.0,0.0,0.0,0.0,0.0,0.0,0.0,0.0,0.0,0.0,0.0,0.0,0.0,0.0,0.0,0.0,0.0,0.0,0.0,0.0,0.0,0.0,0.0,0.0,0.0,0.0,0.0,0.0,0.0,0.0,0.0,0.0,0.0,0.0,0.0,0.0,0.0,0.0,0.0,0.0,0.0,0.0,0.0,0.0,0.0,0.0,0.0,0.0,0.0,0.0,0.0,0.0,1.2638,1.2198,1.1794,1.1456,1.1359,1.1262,0.0,0.0,0.0,0.0,0.0,0.0,0.0,0.0,0.0,0.0,0.0,0.0,0.0,0.0,0.0,0.0,0.0,0.0,0.0,0.0,0.0,0.0,0.0,0.0,0.0,0.0,0.0,0.0,0.0,0.0,0.0,0.0,0.0,0.0,0.0,0.0,0.0,0.0,0.0,0.0,0.0,0.0,0.0,0.0,0.0,0.0,0.0,0.0,0.0,0.0,0.0,0.0,0.0,0.0,0.0,0.0,0.0,0.0,0.0,0.0,0.0,0.0,0.0,0.0,0.0,0.0,0.0,0.0,0.0,0.0,0.0,0.0,0.0,0.0,0.0,0.0,0.0,0.0,0.0,0.0,0.0,0.0,0.0,0.0,0.0,0.0,0.0,0.0,0.0,0.0,0.0,0.0,0.0,0.0,0.0,0.0,0.0,0.0,0.0,0.0,0.0,0.0,0.0,0.0,0.0,0.0,0.0,0.0,0.0,1.2407,0.0,1.1816,1.1564,1.1477,1.138,0.0,0.0,0.0,0.0,0.0,0.0,0.0,0.0,0.0,0.0,0.0,0.0,0.0,0.0,0.0,0.0,0.0,0.0,0.0,0.0,0.0,0.0,0.0,0.0,0.0,0.0,0.0,0.0,0.0,0.0,0.0,0.0,0.0,0.0,0.0,0.0,0.0,0.0,0.0,0.0,0.0,0.0,0.0,0.0,0.0,0.0,0.0,0.0,0.0,0.0,0.0,0.0,0.0,0.0,0.0,0.0,0.0,0.0,0.0,0.0,0.0,0.0,0.0,0.0,0.0,0.0,0.0,0.0,0.0,0.0,0.0,0.0,0.0,0.0,0.0,0.0,0.0,0.0,0.0,0.0,0.0,0.0,0.0,0.0,0.0,0.0,0.0,0.0,0.0,0.0,0.0,0.0,0.0,0.0,0.0,0.0,0.0,0.0,0.0,0.0,0.0,0.0,0.0,0.0,0.0,0.0,0.0,0.0,1.242,1.2415,1.2404,1.231,1.2116,1.1845,1.1585,0.0,0.0,0.0,0.0,0.0,0.0,0.0,0.0,0.0,0.0,0.0,0.0,0.0,0.0,0.0,0.0,0.0,0.0,0.0,0.0,0.0,0.0,0.0,0.0,0.0,0.0,0.0,0.0,0.0,0.0,0.0,0.0,0.0,0.0,0.0,0.0,0.0,0.0,0.0,0.0,0.0,0.0,0.0,0.0,0.0,0.0,0.0,0.0,0.0,0.0,0.0,0.0,0.0,0.0,0.0,0.0,0.0,0.0,0.0,0.0,0.0,0.0,0.0,0.0,0.0,0.0,0.0,0.0,0.0,0.0,0.0,0.0,0.0,0.0,0.0,0.0,0.0,0.0,0.0,0.0,0.0,0.0,0.0,0.0,0.0,0.0,0.0,0.0,0.0,0.0,0.0,0.0,0.0,0.0,0.0,0.0,0.0,0.0,0.0,0.0,0.0,0.0,0.0,0.0,0.0,0.0,0.0,0.0,0.0,1.2692,1.2853,1.2919,1.2831,1.2245,1.2037,0.0,0.0,0.0,0.0,0.0,0.0,0.0,0.0,0.0,0.0,0.0,0.0,0.0,0.0,0.0,0.0,0.0,0.0,0.0,0.0,0.0,0.0,0.0,0.0,0.0,0.0,0.0,0.0,0.0,0.0,0.0,0.0,0.0,0.0,0.0,0.0,0.0,0.0,0.0,0.0,0.0,0.0,0.0,0.0,0.0,0.0,0.0,0.0,0.0,0.0,0.0,0.0,0.0,0.0,0.0,0.0,0.0,0.0,0.0,0.0,0.0,0.0,0.0,0.0,0.0,0.0,0.0,0.0,0.0,0.0,0.0,0.0,0.0,0.0,0.0,0.0,0.0,0.0,0.0,0.0,0.0,0.0,0.0,0.0,0.0,0.0,0.0,0.0,0.0,0.0,0.0,0.0,0.0,0.0,0.0,0.0,0.0,0.0,0.0,0.0,0.0,0.0,0.0,0.0,0.0,0.0,0.0,0.0,0.0,1.4147,1.4093,1.4008,1.3831,1.3351,1.2997,1.2803,0.0,0.0,0.0,0.0,0.0,0.0,0.0,0.0,0.0,0.0,0.0,0.0,0.0,0.0,0.0,0.0,0.0,0.0,0.0,0.0,0.0,0.0,0.0,0.0,0.0,0.0,0.0,0.0,0.0,0.0,0.0,0.0,0.0,0.0,0.0,0.0,0.0,0.0,0.0,0.0,0.0,0.0,0.0,0.0,0.0,0.0,0.0,0.0,0.0,0.0,0.0,0.0,0.0,0.0,0.0,0.0,0.0,0.0,0.0,0.0,0.0,0.0,0.0,0.0,0.0,0.0,0.0,0.0,0.0,0.0,0.0,0.0,0.0,0.0,0.0,0.0,0.0,0.0,0.0,0.0,0.0,0.0,0.0,0.0,0.0,0.0,0.0,0.0,0.0,0.0,0.0,0.0,0.0,0.0,0.0,0.0,0.0,0.0,0.0,0.0,0.0,0.0,0.0,0.0,0.0,0.0,0.0,0.0,1.6568,1.6149,1.5693,1.514,1.4996,1.4323,0.0,0.0,0.0,0.0,0.0,0.0,0.0,0.0,0.0,0.0,0.0,0.0,0.0,0.0,0.0,0.0,0.0,0.0,0.0,0.0,0.0,0.0,0.0,0.0,0.0,0.0,0.0,0.0,0.0,0.0,0.0,0.0,0.0,0.0,0.0,0.0,0.0,0.0,0.0,0.0,0.0,0.0,0.0,0.0,0.0,0.0,0.0,0.0,0.0,0.0,0.0,0.0,0.0,0.0,0.0,0.0,0.0,0.0,0.0,0.0,0.0,0.0,0.0,0.0,0.0,0.0,0.0,0.0,0.0,0.0,0.0,0.0,0.0,0.0,0.0,0.0,0.0,0.0,0.0,0.0,0.0,0.0,0.0,0.0,0.0,0.0,0.0,0.0,0.0,0.0,0.0,0.0,0.0,0.0,0.0,0.0,0.0,0.0,0.0,0.0,0.0,0.0,0.0,0.0,0.0,0.0,0.0,0.0,0.0,1.8489,1.9453,1.919,1.7595,1.6221,1.5301,0.0,0.0,0.0,0.0,0.0,0.0,0.0,0.0,0.0,0.0,0.0,0.0,0.0,0.0,0.0,0.0,0.0,0.0,0.0,0.0,0.0,0.0,0.0,0.0,0.0,0.0,0.0,0.0,0.0,0.0,0.0,0.0,0.0,0.0,0.0,0.0,0.0,0.0,0.0,0.0,0.0,0.0,0.0,0.0,0.0,0.0,0.0,0.0,0.0,0.0,0.0,0.0,0.0,0.0,0.0,0.0,0.0,0.0,0.0,0.0,0.0,0.0,0.0,0.0,0.0,0.0,0.0,0.0,0.0,0.0,0.0,0.0,0.0,0.0,0.0,0.0,0.0,0.0,0.0,0.0,0.0,0.0,0.0,0.0,0.0,0.0,0.0,0.0,0.0,0.0,0.0,0.0,0.0,0.0,0.0,0.0,0.0,0.0,0.0,0.0,0.0,0.0,0.0,0.0,0.0,0.0,0.0,0.0,1.829,1.9821,2.1791,2.209,2.0557,1.8401,1.6781,0.0,0.0,0.0,0.0,0.0,0.0,0.0,0.0,0.0,0.0,0.0,0.0,0.0,0.0,0.0,0.0,0.0,0.0,0.0,0.0,0.0,0.0,0.0,0.0,0.0,0.0,0.0,0.0,0.0,0.0,0.0,0.0,0.0,0.0,0.0,0.0,0.0,0.0,0.0,0.0,0.0,0.0,0.0,0.0,0.0,0.0,0.0,0.0,0.0,0.0,0.0,0.0,0.0,0.0,0.0,0.0,0.0,0.0,0.0,0.0,0.0,0.0,0.0,0.0,0.0,0.0,0.0,0.0,0.0,0.0,0.0,0.0,0.0,0.0,0.0,0.0,0.0,0.0,0.0,0.0,0.0,0.0,0.0,0.0,0.0,0.0,0.0,0.0,0.0,0.0,0.0,0.0,0.0,0.0,0.0,0.0,0.0,0.0,0.0,0.0,0.0,0.0,0.0,0.0,0.0,0.0,0.0,0.0,1.9804,2.0965,2.3489,2.4405,2.3522,2.0902,1.8429,0.0,0.0,0.0,0.0,0.0,0.0,0.0,0.0,0.0,0.0,0.0,0.0,0.0,0.0,0.0,0.0,0.0,0.0,0.0,0.0,0.0,0.0,0.0,0.0,0.0,0.0,0.0,0.0,0.0,0.0,0.0,0.0,0.0,0.0,0.0,0.0,0.0,0.0,0.0,0.0,0.0,0.0,0.0,0.0,0.0,0.0,0.0,0.0,0.0,0.0,0.0,0.0,0.0,0.0,0.0,0.0,0.0,0.0,0.0,0.0,0.0,0.0,0.0,0.0,0.0,0.0,0.0,0.0,0.0,0.0,0.0,0.0,0.0,0.0,0.0,0.0,0.0,0.0,0.0,0.0,0.0,0.0,0.0,0.0,0.0,0.0,0.0,0.0,0.0,0.0,0.0,0.0,0.0,0.0,0.0,0.0,0.0,0.0,0.0,0.0,0.0,0.0,0.0,0.0,0.0,0.0,0.0,0.0,2.1087,2.3255,2.5169,2.5846,2.5179,2.1684,1.9022,0.0,0.0,0.0,0.0,0.0,0.0,0.0,0.0,0.0,0.0,0.0,0.0,0.0,0.0,0.0,0.0,0.0,0.0,0.0,0.0,0.0,0.0,0.0,0.0,0.0,0.0,0.0,0.0,0.0,0.0,0.0,0.0,0.0,0.0,0.0,0.0,0.0,0.0,0.0,0.0,0.0,0.0,0.0,0.0,0.0,0.0,0.0,0.0,0.9462,0.0,0.0,0.0,0.0,0.0,0.0,0.0,0.0,0.0,0.0,0.0,0.0,0.0,0.0,0.0,0.0,0.0,0.0,0.0,0.0,0.0,0.0,0.0,0.0,0.0,0.0,0.0,0.0,0.0,0.0,0.0,0.0,0.0,0.0,0.0,0.0,0.0,0.0,0.0,0.0,0.0,0.0,0.0,0.0,0.0,0.0,0.0,0.0,0.0,0.0,0.0,0.0,0.0,0.0,0.0,0.0,0.0,0.0,0.0,2.2261,2.451,2.6355,2.6857,2.593,2.316,2.0628,0.0,0.0,0.0,0.0,0.0,0.0,0.0,0.0,0.0,0.0,0.0,0.0,0.0,0.0,0.0,0.0,0.0,0.0,0.0,0.0,0.0,0.0,0.0,0.0,0.0,0.0,0.0,0.0,0.0,0.0,0.0,0.0,0.0,0.0,0.0,0.0,0.0,0.0,0.0,0.0,0.0,0.0,0.0,0.0,0.0,0.0,0.0,0.0,0.0,0.0,0.0,0.0,0.0,0.0,0.0,0.0,0.0,0.0,0.0,0.0,0.0,0.0,0.0,0.0,0.0,0.0,0.0,0.0,0.0,0.0,0.0,0.0,0.0,0.0,0.0,0.0,0.0,0.0,0.0,0.0,0.0,0.0,0.0,0.0,0.0,0.0,0.0,0.0,0.0,0.0,0.0,0.0,0.0,0.0,0.0,0.0,0.0,0.0,0.0,0.0,0.0,0.0,0.0,0.0,0.0,0.0,0.0,2.0752,2.329,2.5425,2.7262,2.7661,2.6528,2.4619,2.2317,1.9632,0.0,0.0,0.0,0.0,0.0,0.0,0.0,0.0,0.0,0.0,0.0,0.0,0.0,0.0,0.0,0.0,0.0,0.0,0.0,0.0,0.0,0.0,0.0,0.0,0.0,0.0,0.0,0.0,0.0,0.0,0.0,0.0,0.0,0.0,0.0,0.0,0.0,0.0,0.7878,0.874,0.0,0.0,0.0,0.0,0.0,0.0,0.0,0.0,1.0666,0.0,0.0,0.0,0.0,0.0,0.0,0.0,0.0,0.0,0.0,0.0,0.0,0.0,0.0,0.0,0.0,0.0,0.0,0.0,0.0,0.0,0.0,0.0,0.0,0.0,0.0,0.0,0.0,0.0,0.0,0.0,0.0,0.0,0.0,0.0,0.0,0.0,0.0,0.0,0.0,0.0,0.0,0.0,0.0,0.0,0.0,0.0,0.0,0.0,0.0,0.0,0.0,0.0,0.0,0.0,0.0,1.9403,2.164,2.4043,2.6644,2.7959,2.8271,2.7516,2.4985,2.2792,2.1052,0.0,0.0,0.0,0.0,0.0,0.0,0.0,0.0,0.0,0.0,0.0,0.0,0.0,0.0,0.0,0.0,0.0,0.0,0.0,0.0,0.0,0.0,0.0,0.0,0.0,0.0,0.0,0.0,0.0,0.0,0.0,0.0,0.0,0.0,0.0,0.0,0.0,0.0,0.0,1.0102,1.0543,0.0,0.0,0.0,0.0,0.0,0.0,0.0,0.0,1.1666,0.0,0.0,0.0,0.0,0.0,0.0,0.0,0.0,0.0,0.0,0.0,0.0,0.0,0.0,0.0,0.0,0.0,0.0,0.0,0.0,0.0,0.0,0.0,0.0,0.0,0.0,0.0,0.0,0.0,0.0,0.0,0.0,0.0,0.0,0.0,0.0,0.0,0.0,0.0,0.0,0.0,0.0,0.0,0.0,0.0,0.0,0.0,0.0,0.0,0.0,0.0,0.0,0.0,0.0,0.0,2.0314,2.3026,2.5558,2.7857,2.8853,2.8776,2.7633,2.5354,2.3097,0.0,0.0,0.0,0.0,0.0,0.0,0.0,0.0,0.0,0.0,0.0,0.0,0.0,0.0,0.0,0.0,0.0,0.0,0.0,0.0,0.0,0.0,0.0,0.0,0.0,0.0,0.0,0.0,0.0,0.0,0.0,0.0,0.0,0.0,0.0,0.0,0.0,0.0,0.0,0.0,1.1628,1.2064,1.2939,0.0,0.0,0.0,0.0,0.0,0.0,1.2355,1.2391,0.0,0.0,0.0,0.0,0.0,0.0,0.0,0.0,0.0,0.0,0.0,0.0,0.0,0.0,0.0,0.0,0.0,0.0,0.0,0.0,0.0,0.0,0.0,0.0,0.0,0.0,0.0,0.0,0.0,0.0,0.0,0.0,0.0,0.0,0.0,0.0,0.0,0.0,0.0,0.0,0.0,0.0,0.0,0.0,0.0,0.0,0.0,0.0,0.0,0.0,0.0,0.0,0.0,0.0,0.0,2.1132,2.4204,2.6771,2.8719,2.9678,2.9466,2.794,2.5832,2.3551,0.0,0.0,0.0,0.0,0.0,0.0,0.0,0.0,0.0,0.0,0.0,0.0,0.0,0.0,0.0,0.0,0.0,0.0,0.0,0.0,0.0,0.0,0.0,0.0,0.0,0.0,0.0,0.0,0.0,0.0,0.0,0.0,0.0,0.0,0.0,0.0,0.0,0.0,0.0,0.0,0.0,1.355,1.4677,1.3771,0.0,0.0,0.0,0.0,1.2795,1.3342,0.0,0.0,0.0,0.0,0.0,0.0,0.0,0.0,0.0,0.0,0.0,0.0,0.0,0.0,0.0,0.0,0.0,0.0,0.0,0.0,0.0,0.0,0.0,0.0,0.0,0.0,0.0,0.0,0.0,0.0,0.0,0.0,0.0,0.0,0.0,0.0,0.0,0.0,0.0,0.0,0.0,0.0,0.0,0.0,0.0,0.0,0.0,0.0,0.0,0.0,0.0,0.0,0.0,0.0,0.0,0.0,2.1893,2.4491,2.6771,2.875,3.026,3.0504,2.9339,2.6501,2.4455,0.0,0.0,0.0,0.0,0.0,0.0,0.0,0.0,0.0,0.0,0.0,0.0,0.0,0.0,0.0,0.0,0.0,0.0,0.0,0.0,0.0,0.0,0.0,0.0,0.0,0.0,0.0,0.0,0.0,0.0,0.0,0.0,0.0,0.0,0.0,0.0,0.0,0.0,0.0,0.0,0.0,1.4395,1.49,1.459,1.4086,0.0,0.0,1.4405,1.5013,1.6064,0.0,0.0,0.0,0.0,0.0,0.0,0.0,0.0,0.0,0.0,0.0,0.0,0.0,0.0,0.0,0.0,0.0,0.0,0.0,0.0,0.0,0.0,0.0,0.0,0.0,0.0,0.0,0.0,0.0,0.0,0.0,0.0,0.0,0.0,0.0,0.0,0.0,0.0,0.0,0.0,0.0,0.0,0.0,0.0,0.0,0.0,0.0,0.0,0.0,0.0,0.0,0.0,0.0,0.0,0.0,1.963,2.2276,2.5526,2.7834,2.9096,2.9634,2.9704,2.9323,2.5851,2.3825,0.0,0.0,0.0,0.0,0.0,0.0,0.0,0.0,0.0,0.0,0.0,0.0,0.0,0.0,0.0,0.0,0.0,0.0,0.0,0.0,0.0,0.0,0.0,0.0,0.0,0.0,0.0,0.0,0.0,0.0,0.0,0.0,0.0,0.0,0.0,0.0,0.0,0.0,0.0,0.0,0.0,0.0,1.6169,1.6175,0.0,0.0,0.0,1.6656,1.8413,0.0,0.0,0.0,0.0,0.0,0.0,0.0,0.0,0.0,0.0,0.0,0.0,0.0,0.0,0.0,0.0,0.0,0.0,0.0,0.0,0.0,0.0,0.0,0.0,0.0,0.0,0.0,0.0,0.0,0.0,0.0,0.0,0.0,0.0,0.0,0.0,0.0,0.0,0.0,0.0,0.0,0.0,0.0,0.0,0.0,0.0,0.0,0.0,0.0,0.0,0.0,0.0,0.0,0.0,0.0,0.0,0.0,2.2592,2.6275,2.8562,2.9393,2.9719,2.9815,2.957,2.636,0.0,0.0,0.0,0.0,0.0,0.0,0.0,0.0,0.0,0.0,0.0,0.0,0.0,0.0,0.0,0.0,0.0,0.0,0.0,0.0,0.0,0.0,0.0,0.0,0.0,0.0,0.0,1.2248,0.0,0.0,0.0,0.0,0.0,0.0,0.0,0.0,0.0,0.0,0.0,0.0,0.0,0.0,1.6653,1.7269,1.7523,1.7408,0.0,0.0,1.8338,2.0465,1.9551,1.7688,0.0,0.0,0.0,0.0,0.0,0.0,0.0,0.0,0.0,0.0,0.0,0.0,0.0,0.0,0.0,0.0,0.0,0.0,0.0,0.0,0.0,0.0,0.0,0.0,0.0,0.0,0.0,0.0,0.0,0.0,0.0,0.0,0.0,0.0,0.0,0.0,0.0,0.0,0.0,0.0,0.0,0.0,0.0,0.0,0.0,0.0,0.0,0.0,0.0,0.0,0.0,0.0,0.0,0.0,0.0,2.3053,2.62,2.8346,2.9404,3.1532,3.2123,3.1067,2.9344,2.7505,0.0,0.0,0.0,0.0,0.0,0.0,0.0,0.0,0.0,0.0,0.0,0.0,0.0,0.0,0.0,0.0,0.0,0.0,0.0,0.0,0.0,0.0,0.0,0.0,0.0,0.0,0.0,0.0,0.0,0.0,0.0,0.0,0.0,0.0,0.0,0.0,0.0,0.0,0.0,0.0,0.0,1.7624,1.7756,1.8305,1.8654,0.0,0.0,1.9,1.9845,2.0486,1.9643,1.609,0.0,0.0,0.0,0.0,0.0,0.0,0.0,0.0,0.0,0.0,0.0,0.0,0.0,0.0,0.0,0.0,0.0,0.0,0.0,0.0,0.0,0.0,0.0,0.0,0.0,0.0,0.0,0.0,0.0,0.0,0.0,0.0,0.0,0.0,0.0,0.0,0.0,0.0,0.0,0.0,0.0,0.0,0.0,0.0,0.0,0.0,0.0,0.0,0.0,0.0,0.0,0.0,0.0,2.0903,2.3096,2.6425,2.9035,3.0792,3.1118,3.1707,3.2648,2.9685,2.737,0.0,0.0,0.0,0.0,0.0,0.0,0.0,0.0,0.0,0.0,0.0,0.0,0.0,0.0,0.0,0.0,0.0,0.0,0.0,0.0,0.0,0.0,0.0,0.0,0.0,0.0,0.0,0.0,1.3608,1.3589,1.3416,0.0,0.0,0.0,0.0,0.0,0.0,0.0,0.0,0.0,0.0,1.7736,1.8494,1.9218,0.0,0.0,1.9245,1.9808,1.9522,1.9531,1.8672,1.6021,1.506,0.0,0.0,0.0,0.0,0.0,0.0,0.0,0.0,0.0,0.0,0.0,0.0,0.0,0.0,0.0,0.0,0.0,0.0,0.0,0.0,0.0,0.0,0.0,0.0,0.0,0.0,0.0,0.0,0.0,0.0,0.0,0.0,0.0,0.0,0.0,0.0,0.0,0.0,0.0,0.0,0.0,0.0,0.0,0.0,0.0,0.0,0.0,0.0,0.0,0.0,0.0,0.0,2.1474,2.3805,2.7237,3.0015,3.2139,3.1682,3.2035,3.3249,3.0365,2.8041,0.0,0.0,0.0,0.0,0.0,0.0,0.0,0.0,0.0,0.0,0.0,0.0,0.0,0.0,0.0,0.0,0.0,0.0,0.0,0.0,0.0,0.0,0.0,0.0,0.0,0.0,0.0,0.0,1.4168,1.3945,1.3304,0.0,0.0,0.0,0.0,0.0,0.0,0.0,0.0,0.0,0.0,1.82,1.8999,1.9692,1.9843,1.9157,1.9578,1.9737,1.9068,1.8703,1.7896,1.6001,0.0,0.0,0.0,0.0,0.0,0.0,0.0,0.0,0.0,0.0,0.0,0.0,0.0,0.0,0.0,0.0,0.0,0.0,0.0,0.0,0.0,0.0,0.0,0.0,0.0,0.0,0.0,0.0,0.0,0.0,1.9596,0.0,0.0,0.0,0.0,0.0,0.0,0.0,0.0,0.0,0.0,0.0,0.0,0.0,0.0,0.0,0.0,0.0,0.0,0.0,0.0,0.0,0.0,2.1963,2.5432,2.8669,3.1255,3.3036,3.3749,3.3702,3.2985,3.1944,3.0296,2.7854,0.0,0.0,0.0,0.0,0.0,0.0,0.0,0.0,0.0,0.0,0.0,0.0,0.0,0.0,0.0,0.0,0.0,0.0,0.0,0.0,0.0,0.0,0.0,0.0,0.0,0.0,1.4052,1.4133,1.4039,0.0,0.0,0.0,0.0,0.0,0.0,0.0,0.0,0.0,0.0,1.8039,1.9291,1.9143,1.9556,2.0166,2.0866,1.9634,1.8531,1.8424,1.8401,1.7824,0.0,0.0,0.0,0.0,0.0,0.0,0.0,0.0,0.0,0.0,0.0,0.0,0.0,0.0,0.0,0.0,0.0,0.0,0.0,0.0,0.0,0.0,0.0,0.0,0.0,0.0,0.0,2.2616,2.2039,0.0,0.0,0.0,0.0,0.0,0.0,0.0,0.0,0.0,0.0,0.0,2.3368,2.3105,0.0,0.0,0.0,0.0,0.0,0.0,0.0,0.0,0.0,0.0,0.0,0.0,2.3624,2.6374,2.9982,3.2791,3.4626,3.4377,3.4312,3.453,3.3133,3.0693,2.7142,0.0,0.0,0.0,0.0,0.0,0.0,0.0,0.0,0.0,0.0,0.0,0.0,0.0,0.0,0.0,0.0,0.0,0.0,0.0,0.0,0.0,0.0,0.0,0.0,0.0,1.4936,0.0,0.0,0.0,0.0,0.0,0.0,0.0,0.0,0.0,0.0,0.0,1.5491,1.7504,1.8395,1.907,1.9633,2.0116,2.0397,0.0,0.0,0.0,0.0,0.0,0.0,0.0,0.0,0.0,0.0,0.0,0.0,0.0,0.0,1.5434,1.3654,1.3687,1.4016,1.4094,0.0,0.0,0.0,0.0,0.0,0.0,0.0,0.0,0.0,0.0,0.0,0.0,0.0,0.0,2.4235,0.0,2.3409,0.0,0.0,0.0,0.0,0.0,0.0,0.0,0.0,2.4391,2.5339,2.6069,2.5806,2.5504,0.0,2.4307,2.3014,0.0,0.0,0.0,0.0,0.0,0.0,0.0,0.0,2.528,2.8232,3.1818,3.4468,3.5989,3.5277,3.4937,3.5123,3.3184,3.0713,2.7747,2.5264,2.3437,0.0,0.0,0.0,0.0,0.0,0.0,0.0,0.0,0.0,0.0,0.0,0.0,0.0,0.0,0.0,0.0,0.0,0.0,0.0,0.0,0.0,0.0,0.0,1.5121,0.0,0.0,0.0,0.0,0.0,0.0,0.0,0.0,0.0,1.473,1.547,1.6679,1.8538,1.896,1.9276,1.9695,0.0,0.0,0.0,0.0,0.0,0.0,0.0,1.7658,1.6967,1.6546,1.6498,1.7149,1.7594,1.7854,1.7757,0.0,0.0,1.5553,1.5433,1.5704,1.5746,1.5953,1.6168,1.6327,1.6672,1.7,0.0,0.0,0.0,0.0,0.0,0.0,0.0,0.0,2.609,2.5519,0.0,2.4466,0.0,0.0,0.0,0.0,0.0,2.3813,0.0,0.0,2.8401,2.9402,2.8339,2.8605,2.839,2.7713,2.6761,2.5888,2.5017,2.1971,0.0,0.0,0.0,0.0,0.0,0.0,2.6914,3.0909,3.4126,3.6261,3.7216,3.643,3.5552,3.4648,3.2266,3.0547,2.9609,2.7306,2.5602,2.4678,2.2065,0.0,0.0,0.0,0.0,0.0,0.0,0.0,0.0,0.0,0.0,0.0,0.0,0.0,0.0,0.0,0.0,0.0,0.0,0.0,0.0,1.4873,0.0,0.0,0.0,0.0,0.0,0.0,0.0,0.0,0.0,0.0,1.6004,1.7143,1.8339,1.9218,0.0,0.0,0.0,0.0,1.9567,1.8579,1.8902,1.9636,2.055,1.9536,1.8585,1.8352,0.0,0.0,1.8601,1.8518,1.8444,1.8155,1.9027,1.9417,1.8382,1.7735,1.7465,1.764,1.7713,1.7744,1.7775,1.8316,1.8751,3.0106,0.0,0.0,0.0,0.0,2.7539,2.8268,2.9322,2.9368,2.8539,2.7132,2.7121,0.0,0.0,0.0,0.0,0.0,0.0,2.6964,2.8417,3.0088,3.1142,3.1671,3.1769,3.1552,3.1058,2.9924,2.9133,2.8586,2.6871,2.4118,2.0436,0.0,0.0,0.0,0.0,2.932,3.2642,3.57,3.7286,3.7287,3.6448,3.5279,3.3812,3.25,3.1436,3.0576,2.9233,2.7826,2.6292,2.4742,0.0,0.0,0.0,0.0,0.0,0.0,0.0,0.0,0.0,0.0,0.0,0.0,0.0,0.0,0.0,0.0,0.0,0.0,0.0,1.5617,1.5068,1.4654,0.0,0.0,0.0,0.0,0.0,0.0,0.0,0.0,0.0,1.8091,1.819,1.8728,0.0,0.0,2.0124,2.0162,2.0451,2.0209,1.8891,1.9951,0.0,0.0,2.044,1.9498,1.9007,1.9411,1.9731,1.967,2.0003,2.0297,2.0206,2.0464,2.0666,2.0579,1.9937,1.9412,1.9477,1.9776,2.0169,2.0435,2.1072,2.1544,3.4473,3.1759,2.9897,2.9428,2.9972,3.0275,3.0992,3.1878,3.1796,3.1012,2.9781,2.9484,2.7926,2.5519,2.5488,0.0,0.0,0.0,2.9762,3.1797,3.2682,3.3598,3.4499,3.4516,3.4222,3.3666,3.2628,3.1858,3.1323,2.9951,2.7794,2.4879,0.0,0.0,2.5162,2.8698,3.176,3.4288,3.6848,3.791,3.7305,3.6113,3.4886,3.3714,3.2867,3.2124,3.1421,3.0576,2.9353,2.7762,2.6311,2.4586,0.0,0.0,0.0,0.0,0.0,0.0,0.0,0.0,0.0,0.0,0.0,1.5343,0.0,0.0,0.0,0.0,1.509,1.5482,1.602,1.5343,0.0,0.0,0.0,0.0,0.0,0.0,0.0,1.6831,1.7676,1.8523,1.9369,1.9378,1.9656,2.0689,2.0608,2.0498,2.0603,0.0,2.0774,1.9697,2.0742,2.1683,2.18,2.1152,2.0526,2.0208,2.0328,2.0546,2.0698,2.0951,2.1093,2.1107,2.1203,2.1368,2.1604,2.1299,2.1064,2.1077,2.136,2.171,2.2037,2.2626,2.3037,3.8594,3.788,3.4076,3.2477,3.2536,3.3249,3.3678,3.3796,3.3754,3.314,3.2206,3.1592,3.0341,2.8623,2.8005,0.0,3.0229,3.1409,3.2986,3.4883,3.5706,3.6328,3.6753,3.6753,3.6366,3.5617,3.4854,3.4136,3.341,3.1859,3.1038,3.1002,2.9253,2.8678,2.937,3.1875,3.406,3.5704,3.7622,3.8165,3.7246,3.5586,3.4492,3.4114,3.3258,3.2613,3.2198,3.1401,3.0332,2.8982,2.7122,2.5659,2.4647,0.0,0.0,0.0,0.0,0.0,0.0,0.0,0.0,0.0,0.0,0.0,0.0,0.0,0.0,0.0,1.5412,0.0,1.6291,1.567,0.0,0.0,0.0,1.5582,1.6458,1.6239,1.6479,1.7602,0.0,0.0,2.0032,2.0576,2.0915,2.1072,2.1075,2.1058,2.0971,2.128,2.1327,2.0917,2.1401,2.1833,2.185,2.1525,2.1297,2.1357,2.1325,2.1227,2.1414,2.1336,2.1133,2.1109,2.1365,2.1612,2.1687,2.2007,2.2411,2.2455,2.2495,2.2588,2.289,2.322,2.3523,4.0957,4.0781,3.9483,3.7993,3.651,3.6687,3.7006,3.7303,3.666,3.5872,3.4959,3.3856,3.277,3.1711,3.1569,3.2239,3.3588,3.4525,3.5401,3.6228,3.6738,3.7051,3.7148,3.7148,3.7037,3.6852,3.6369,3.6045,3.5845,3.5178,3.4254,3.3174,3.3771,3.2999,3.0941,3.3117,3.4892,3.6009,3.7728,3.8031,3.6836,3.5446,3.4492,3.4114,3.3258,3.2613,3.2218,3.1675,3.0762,2.9487,2.8348,2.6941,2.5208,2.3321,0.0,0.0,0.0,0.0,0.0,0.0,0.0,0.0,0.0,1.5738,1.5614,0.0,1.5207,0.0,1.6131,1.649,1.6678,1.6492,0.0,0.0,1.6342,1.6736,1.7594,1.7418,1.7679,1.8924,1.9346,1.9871,2.0623,2.1207,2.1599,2.174,2.1852,2.1982,2.2132,2.2287,2.2337,2.2179,2.2371,2.2315,2.1486,2.1234,2.1182,2.1213,2.1352,2.1419,2.1243,2.1381,2.1392,2.1189,2.1365,2.1603,2.1689,2.2081,2.2642,2.3273,2.3482,2.3478,2.3572,2.3955,2.4257,4.2539,4.2344,4.1914,4.1016,3.9845,3.9317,3.92,3.9375,3.8516,3.7871,3.7344,3.6091,3.5153,3.4551,3.4743,3.5391,3.6445,3.7129,3.7559,3.783,3.8065,3.8065,3.7889,3.7889,3.7791,3.756,3.738,3.7279,3.7261,3.709,3.6729,3.6273,3.6901,3.6344,3.4699,3.543,3.6219,3.693,3.7465,3.7497,3.6936,3.5469,3.4443,3.3913,3.2894,3.1946,3.1074,3.061,2.9902,2.8851,2.813,2.7093,2.5618,2.3836,2.2265,0.0,0.0,0.0,0.0,0.0,0.0,0.0,0.0,0.0,0.0,0.0,1.6673,1.735,1.8152,1.8307,1.7634,1.7926,1.7909,1.7237,1.7402,1.7857,1.8608,1.8651,1.8985,1.9917,2.0445,2.0875,2.1335,2.1781,2.2149,2.2361,2.245,2.2558,2.2754,2.2888,2.2948,2.2782,2.2716,2.2361,2.1263,2.1091,2.1133,2.1299,2.1352,2.1352,2.1325,2.1339,2.1312,2.1162,2.1259,2.1475,2.1753,2.2121,2.2655,2.3354,2.3812,2.4013,2.4124,2.4391,2.4546,4.3613,4.3223,4.2832,4.2616,4.248,4.1328,4.0801,4.0684,3.9824,3.9355,3.9141,3.8027,3.7361,3.7049,3.74,3.7987,3.8768,3.9139,3.9297,3.9297,3.9297,3.9062,3.8671,3.8689,3.8457,3.8089,3.8132,3.8179,3.8237,3.8249,3.8556,3.9107,3.882,3.8651,3.8614,3.7913,3.7727,3.8047,3.7215,3.6957,3.7293,3.5554,3.433,3.3631,3.2361,3.099,2.9586,2.92,2.8612,2.7771,2.7329,2.6742,2.5947,2.3933,2.2626,0.0,2.0541,0.0,0.0,0.0,0.0,0.0,0.0,0.0,0.0,1.7694,1.8658,1.9647,2.069,2.0682,1.9062,1.9695,1.9693,1.8484,1.8524,1.89,1.9492,1.9859,2.0248,2.0753,2.1382,2.1837,2.201,2.2258,2.2525,2.2868,2.2948,2.3041,2.3183,2.3317,2.3287,2.3042,2.2615,2.198,2.1413,2.1178,2.1189,2.1435,2.1352,2.1243,2.1462,2.1339,2.1162,2.1107,2.1162,2.1389,2.1929,2.2233,2.2605,2.3216,2.3737,2.4195,2.4466,2.4572,2.4599,4.4531,4.4141,4.4062,4.3808,4.3418,4.2832,4.2383,4.1992,4.1172,4.0195,3.9199,3.8945,3.8789,3.873,3.8809,3.9159,3.9667,3.9726,3.9766,3.9766,3.9766,3.9531,3.9101,3.9082,3.9043,3.8946,3.8969,3.9166,3.9536,3.9539,3.9145,3.8367,3.8822,3.8781,3.8275,0.0,0.0,0.0,3.7674,3.7293,3.7326,3.5409,3.4032,3.329,3.1736,0.0,2.9185,2.9056,2.8472,2.7381,2.7182,0.0,0.0,0.0,0.0,0.0,0.0,0.0,0.0,0.0,0.0,0.0,2.1468,2.0044,1.7716,1.8707,2.0245,2.1892,2.2689,2.258,2.1309,2.1536,2.1143,1.9695,1.9511,1.978,2.0391,2.0697,2.1018,2.1397,2.1865,2.2208,2.2321,2.2375,2.264,2.3181,2.3304,2.3566,2.4088,2.3709,2.3512,2.3627,2.2464,2.159,2.185,2.1431,2.1107,2.1218,2.1392,2.1408,2.1243,2.1392,2.1365,2.116,2.1325,2.1647,2.2135,2.2321,2.2562,2.3189,2.3607,2.4026,2.4479,2.4599,2.4599,4.5098,0.0,4.4492,4.4277,0.0,4.3574,4.3262,4.3008,4.2148,4.1211,4.0195,3.9941,3.9825,3.9844,4.0078,4.041,4.084,4.1055,4.0937,4.0546,4.0546,4.0195,3.9531,3.9551,3.9531,3.9551,3.9551,3.9785,4.0176,4.0196,4.0007,3.9624,3.9798,3.9778,3.9639,3.9604,3.9376,3.8918,3.7688,3.7172,3.7274,3.5482,3.4172,3.3454,3.1819,0.0,0.0,0.0,0.0,0.0,0.0,0.0,0.0,0.0,0.0,2.4508,2.4083,2.4048,2.4456,2.3894,2.3776,2.4282,2.3918,2.2957,2.1285,2.2046,2.3206,2.4579,2.5512,2.5377,2.3916,2.3605,2.2928,2.1483,2.0774,2.0575,2.0869,2.1283,2.159,2.1796,2.2113,2.2421,2.2673,2.2653,2.2838,2.3311,2.3406,2.3505,2.3668,2.3854,2.3919,2.3593,2.2522,2.1599,2.1566,2.1359,2.1093,2.112,2.1259,2.1272,2.1136,2.1229,2.1299,2.1149,2.1259,2.1438,2.1647,2.196,2.2335,2.2775,2.3216,2.371,2.4271,2.4506,2.4599,4.5605,4.5096,4.4787,4.4552,4.4375,4.3984,4.3789,4.3652,0.0,0.0,0.0,4.0996,4.084,4.086,4.123,4.1582,4.1933,4.2266,4.1992,4.1308,4.1308,4.0839,4.0019,4.0,4.0,4.0,4.0,4.0215,4.0606,4.0644,4.082,4.1133,4.082,4.082,4.1113,4.0351,3.9713,3.9258,3.7662,3.6995,3.7257,3.5639,3.4395,3.3619,3.214,3.0638,2.9163,2.8561,2.7958,2.7384,2.7095,2.6926,2.6842,2.6294,2.5848,2.5614,2.5645,2.593,2.6477,2.5969,2.5904,2.6509,2.6351,2.6065,2.5661,2.5842,2.6403,2.747,2.8408,2.8213,2.6481,2.5621,2.4722,2.3534,2.2355,2.1638,2.1697,2.239,2.2772,2.225,2.2645,2.3074,2.3454,2.355,2.358,2.3904,2.4159,2.3755,2.342,2.3896,2.4056,2.3363,2.2443,2.1684,2.1354,2.1154,2.1109,2.1093,2.1093,2.1093,2.1093,2.1093,2.1093,2.1093,2.1093,2.1149,2.1216,2.1673,2.2058,2.2348,2.2865,2.3456,2.3928,2.4311,2.4519,4.6289,4.5607,4.5549,4.5099,4.4415,4.4336,4.4082,4.3672,4.3183,4.2715,4.2226,4.2167,4.2109,4.2148,4.2207,4.2265,4.2324,4.2382,4.2148,4.1719,4.1719,4.1269,4.043,4.041,4.041,4.041,4.041,4.0664,4.1054,4.1094,4.1133,4.1172,4.1133,4.1133,4.1113,4.0332,3.9883,3.9769,3.8134,3.7313,3.7366,3.579,3.4426,3.3311,3.2396,3.1167,2.968,2.9812,2.9429,2.8365,2.852,2.8424,2.7923,2.7804,2.7755,2.7811,2.7857,2.7957,2.8178,2.8354,2.8766,2.9377,2.9692,2.9558,2.8901,2.8421,2.8796,3.0278,3.053,3.0122,2.88,2.7291,2.621,2.5771,2.4525,2.3684,2.3636,2.4936,2.4964,2.277,2.3974,2.5055,2.5157,2.542,2.5717,2.6036,2.5943,2.5665,2.4663,2.4165,2.3954,2.3422,2.2221,2.1443,2.1384,2.1267,2.1125,2.1093,2.1093,2.1093,2.1093,2.1093,2.1093,2.1093,2.1093,2.1203,2.1435,2.1767,2.2061,2.2338,2.2842,2.3296,2.3496,2.3923,2.4324,4.6914,4.6348,4.6113,4.5686,4.508,4.459,4.4141,4.3711,4.3496,4.3183,4.2773,4.2519,4.2402,4.2401,4.2676,4.2753,4.2793,4.3008,4.2734,4.2148,4.2383,4.2031,4.1269,4.1191,4.1191,4.1191,4.0996,4.0996,4.1191,4.1406,4.1426,4.1211,4.1211,4.1211,4.1133,4.0351,3.9883,3.9863,3.8429,3.7679,3.7641,3.6262,3.5264,3.4724,3.3473,3.2343,3.1416,3.11,3.0606,2.9821,2.9697,2.9642,2.9622,2.9385,2.9382,2.9673,2.9721,2.9846,3.0097,3.0364,3.0658,3.0975,3.1314,3.1478,3.1378,3.0713,3.0675,3.158,3.1478,3.115,3.0611,2.89,2.7712,2.7644,2.6374,2.5222,2.4696,2.5873,2.6057,2.437,2.5461,2.6705,2.6938,2.7121,2.737,2.7636,2.7442,2.6727,2.5714,2.438,2.3403,2.3028,2.2162,2.1525,2.1355,2.122,2.1109,2.1093,2.1093,2.1093,2.1093,2.1093,2.1093,2.1093,2.1093,2.1162,2.1325,2.1566,2.1847,2.2138,2.2495,2.2909,2.3434,2.3915,2.4187,4.7558,4.7009,4.6599,4.6152,4.5627,4.4766,4.418,4.3867,4.375,4.3516,4.3223,4.2831,4.2695,4.2734,4.3066,4.3243,4.3282,4.3555,4.3301,4.2636,4.295,4.2637,4.1875,4.1894,4.1894,4.1797,4.1562,4.1465,4.1523,4.1797,4.1777,4.1484,4.1387,4.1328,4.1328,4.0469,4.0,3.9824,3.8789,3.8107,3.7873,3.676,3.6133,3.5901,3.4515,3.3516,3.3086,3.2328,3.1743,3.1348,3.0991,3.0898,3.1147,3.0854,3.0815,3.1133,3.1206,3.1367,3.1747,3.1866,3.1988,3.2154,3.2399,3.2694,3.291,3.2463,3.2184,3.2384,3.2061,3.1825,3.1599,3.0027,2.8973,2.9236,2.8141,2.692,2.6032,2.7094,2.7387,2.6153,2.7138,2.8361,2.869,2.8854,2.8983,2.9025,2.8113,2.7032,2.6215,2.442,2.3058,2.252,2.2091,2.1631,2.1199,2.1093,2.1093,2.1093,2.1093,2.1093,2.1093,2.1093,2.1093,2.1093,2.1093,2.1107,2.1136,2.1379,2.1649,2.1887,2.2218,2.2682,2.346,2.3719,2.3937,4.8307,4.7519,4.7009,4.6406,4.5627,4.4785,4.4394,4.4277,4.3887,4.3691,4.3613,4.3594,4.3555,4.3594,4.3613,4.3633,4.3633,4.3691,4.3477,4.3047,4.3067,4.2637,4.1914,4.2187,4.2148,4.1914,4.2109,4.2207,4.2207,4.2285,4.2304,4.2246,4.1933,4.1758,4.1641,4.086,4.0254,3.9902,3.9355,3.8711,3.7912,3.707,3.6426,3.5999,3.5098,3.4391,3.3961,3.348,3.3031,3.2672,3.2559,3.2383,3.212,3.2007,3.2022,3.2061,3.2081,3.2242,3.2617,3.2668,3.2832,3.3206,3.3229,3.328,3.3339,3.3261,3.3254,3.3152,3.2682,3.2302,3.2237,3.0508,2.9825,3.0749,2.983,2.8984,2.8869,3.0144,3.008,2.7618,2.8936,3.0176,3.0482,3.0721,3.0773,3.0309,2.8517,2.688,2.6117,2.4688,2.3265,2.2525,2.1975,2.1628,2.1222,2.1093,2.1093,2.1093,2.1093,2.1093,2.1093,2.1093,2.1093,2.1093,2.1093,2.1093,2.1147,2.1352,2.1585,2.1729,2.2101,2.2615,2.3136,2.326,2.3356,4.8594,4.76,4.7405,4.6702,4.5705,4.5314,4.4863,4.4394,4.4199,4.3965,4.3711,4.3691,4.3691,4.3691,4.3691,4.3691,4.3691,4.3691,4.3497,4.3145,4.3341,4.3125,4.2637,4.2735,4.2735,4.2559,4.246,4.2402,4.2402,4.2402,4.2538,4.2695,4.2148,4.1817,4.1738,4.0938,4.041,4.0254,3.957,3.9005,3.8613,3.7598,3.6953,3.668,3.5703,3.4919,3.4469,3.4043,3.3613,3.3207,3.3164,3.3086,3.291,3.291,3.2926,3.291,3.291,3.2988,3.3133,3.3164,3.3226,3.3386,3.3386,3.3386,3.3386,3.3386,3.3386,3.3307,3.2785,3.2406,3.231,3.1281,3.0779,3.1233,3.0859,3.0228,2.9395,3.0748,3.0924,2.9346,3.0613,3.1857,3.2008,3.2125,3.1744,3.0995,2.9645,2.8824,2.7891,2.6434,2.524,2.4378,2.3108,2.1805,2.1222,2.1093,2.1093,2.1093,2.1093,2.1093,2.1093,2.1093,2.1093,2.1093,2.1093,2.1093,2.1093,2.1189,2.1352,2.1596,2.2211,2.2796,2.3023,2.31,2.3241,4.9023,4.7972,4.7581,4.666,4.5508,4.5488,4.5137,4.459,4.4432,4.4199,4.3906,4.3769,4.3691,4.3691,4.3691,4.3691,4.3691,4.3691,4.3535,4.3301,4.3574,4.3476,4.3145,4.3223,4.3204,4.3087,4.2891,4.2773,4.2733,4.2753,4.293,4.3105,4.2519,4.209,4.1894,4.1211,4.0723,4.0469,3.9844,3.9453,3.9101,3.8184,3.7539,3.7226,3.6172,3.5351,3.4902,3.4407,3.3961,3.3613,3.348,3.3386,3.3386,3.3386,3.3386,3.3386,3.3386,3.3386,3.3386,3.3386,3.3386,3.3386,3.3386,3.3386,3.3386,3.3386,3.3386,3.3355,3.2864,3.2533,3.2342,3.1795,3.1426,3.141,3.141,3.0974,3.0276,3.1216,3.157,3.0954,3.1889,3.2962,3.3019,3.2932,3.2516,3.1612,3.1153,3.0818,2.9537,2.799,2.6687,2.6092,2.4363,2.2842,2.149,2.1093,2.1093,2.1093,2.1093,2.1093,2.1093,2.1093,2.1093,2.1093,2.1093,2.1093,2.1093,2.1136,2.1229,2.1579,2.2104,2.2626,2.2729,2.2909,2.2993,4.9652,4.8698,4.7461,4.6228,4.5057,4.5096,4.5037,4.492,4.459,4.4394,4.4277,4.3906,4.3711,4.3691,4.3691,4.3691,4.3691,4.3691,4.3691,4.3633,4.3691,4.3476,4.3145,4.3476,4.3476,4.3204,4.3418,4.3555,4.3573,4.3613,4.3652,4.3613,4.3184,4.2773,4.2343,4.1894,4.1328,4.0606,4.045,4.004,3.9278,3.8788,3.8162,3.74,3.6448,3.5784,3.5332,3.4567,3.4098,3.4075,3.3672,3.3406,3.3422,3.3422,3.3386,3.3386,3.3386,3.3386,3.3386,3.3386,3.3386,3.3386,3.3386,3.3386,3.3386,3.3386,3.3386,3.3386,3.3074,3.274,3.2475,3.1896,3.1458,3.1442,3.1426,3.1492,3.1685,3.175,3.2182,3.2466,3.2753,3.3058,3.3323,3.3386,3.3097,3.2389,3.1315,3.022,2.9713,2.8232,2.7008,2.638,2.5849,2.51,2.2059,2.1792,2.1616,2.1553,2.1821,2.1348,2.1143,2.1093,2.1159,2.119,2.1364,2.1364,2.1175,2.116,2.1296,2.1513,2.1676,2.2024,2.2596,2.2468,2.2592,5.0479,4.8014,4.6953,4.6094,4.5508,4.5723,4.5525,4.5037,4.5176,4.4923,4.4433,4.4219,4.3984,4.3691,4.3691,4.3691,4.3691,4.3691,4.3691,4.3691,4.3691,4.3613,4.3516,4.3632,4.3633,4.3535,4.3653,4.3691,4.3691,4.3691,4.3691,4.3633,4.3302,4.2851,4.2402,4.2012,4.1504,4.1015,4.0957,4.0644,4.004,3.9629,3.9022,3.8143,3.7029,3.623,3.5801,3.5251,3.4802,3.4508,3.4079,3.3864,3.3824,3.3558,3.3386,3.3386,3.3386,3.3386,3.3386,3.3386,3.3386,3.3386,3.3386,3.3386,3.3386,3.3386,3.3386,3.3339,3.3086,3.2944,3.2963,3.2319,3.1733,3.1717,3.1717,3.175,3.1961,3.2262,3.2645,3.2883,3.3074,3.326,3.33,3.3184,3.2969,3.2742,3.1757,3.1061,3.0603,2.933,2.7966,2.7196,2.6696,2.6157,2.5386,2.4317,2.3869,2.3434,2.3279,2.3232,2.3076,2.2546,2.2499,2.2278,2.2215,2.1742,2.1538,2.1107,2.1269,2.1633,2.1783,2.1917,2.2609,2.2512,2.2632,4.9933,4.7475,4.6601,4.5976,4.5527,4.5762,4.5644,4.5254,4.5391,4.5215,4.4826,4.4531,4.4219,4.3926,4.3789,4.3691,4.3691,4.3691,4.3691,4.3691,4.3691,4.3691,4.3691,4.3691,4.3691,4.3691,4.3691,4.3691,4.3691,4.3691,4.3691,4.3672,4.3418,4.3066,4.2616,4.2226,4.1797,4.1445,4.1387,4.1152,4.0742,4.0312,3.9766,3.8964,3.7772,3.6814,3.625,3.582,3.5452,3.5098,3.4606,3.4251,3.4079,3.3789,3.3555,3.3441,3.3539,3.3633,3.3617,3.3633,3.3675,3.3773,3.3558,3.3425,3.3578,3.348,3.3386,3.3358,3.3368,3.3399,3.338,3.2981,3.2555,3.2311,3.2067,3.2025,3.2214,3.2629,3.2899,3.3054,3.3228,3.3355,3.3347,3.3148,3.3047,3.3008,3.2348,3.1938,3.1724,3.0721,2.9524,2.8828,2.8424,2.8097,2.7596,2.7008,2.5545,2.4932,2.4394,2.4533,2.4656,2.4101,2.3651,2.3418,2.2935,2.2325,2.1774,2.1254,2.1379,2.1813,2.1713,2.1686,2.2181,2.2569,2.2662,4.7818,4.697,4.6484,4.584,4.5156,4.5154,4.5332,4.5488,4.5193,4.5213,4.5312,4.4746,4.4355,4.4238,4.3867,4.3691,4.3691,4.3691,4.3691,4.3691,4.3691,4.3691,4.3691,4.3691,4.3691,4.3691,4.3691,4.3691,4.3691,4.3691,4.3691,4.3691,4.3672,4.3418,4.3067,4.2578,4.2167,4.1855,4.1758,4.1601,4.1191,4.0781,4.0352,3.9824,3.8595,3.7598,3.6814,3.6328,3.6038,3.5881,3.5218,3.4567,3.4274,3.4118,3.3906,3.3636,3.3867,3.4095,3.4114,3.4098,3.4238,3.4394,3.391,3.3691,3.3887,3.3691,3.3461,3.3523,3.3773,3.391,3.3654,3.3772,3.3677,3.3147,3.2459,3.2372,3.2676,3.288,3.3022,3.3292,3.3386,3.3386,3.3386,3.3328,3.3289,3.323,3.2934,3.2617,3.2515,3.1703,3.1255,3.0877,3.0238,2.9679,2.9646,2.945,2.7637,2.6124,2.5546,2.5316,2.5668,2.5407,2.484,2.4471,2.3514,2.2846,2.1691,2.1276,2.1503,2.1789,2.1601,2.159,2.2071,2.2498,2.2582,4.8167,4.7363,4.6892,4.6033,4.5115,4.5351,4.541,4.5234,4.5057,4.5096,4.5098,4.4648,4.4238,4.3965,4.375,4.3711,4.3691,4.3691,4.3691,4.3691,4.3691,4.3691,4.3691,4.3691,4.3691,4.3691,4.3691,4.3691,4.3691,4.3691,4.3691,4.3691,4.3691,4.3476,4.3106,4.2637,4.2207,4.1894,4.207,4.2031,4.1641,4.1465,4.1191,4.0703,3.9492,3.8652,3.8379,3.7441,3.6777,3.6521,3.6228,3.5759,3.5114,3.4684,3.4434,3.4336,3.4414,3.4528,3.4512,3.4528,3.4551,3.4629,3.4417,3.4235,3.4098,3.3981,3.3883,3.3867,3.4036,3.4098,3.4251,3.4201,3.3895,3.3056,3.3017,3.295,3.2976,3.3121,3.3276,3.3355,3.3386,3.3386,3.3386,3.3386,3.3386,3.3367,3.3051,3.2847,3.2695,3.2148,3.1359,3.0994,3.0897,3.0918,3.0602,3.0153,2.8962,2.7649,2.695,2.6535,2.6778,2.6732,2.6156,2.5332,2.4348,2.3248,2.2065,2.1744,2.2114,2.19,2.1765,2.1967,2.2285,2.2445,2.2542,4.8226,4.7561,4.7087,4.6365,4.5506,4.5686,4.5625,4.5428,4.5135,4.5174,4.5311,4.4707,4.4453,4.4316,4.3945,4.3808,4.3926,4.3789,4.3691,4.3691,4.3691,4.3691,4.3691,4.3691,4.3691,4.3691,4.3691,4.3691,4.3691,4.3691,4.3691,4.3691,4.3691,4.3574,4.3302,4.2891,4.2461,4.2128,4.2265,4.2265,4.2051,4.1875,4.1738,4.1465,4.0371,3.9668,3.9414,3.8672,3.7988,3.7479,3.7264,3.6601,3.5547,3.5234,3.5137,3.498,3.498,3.5019,3.512,3.5059,3.5039,3.5117,3.4883,3.4707,3.4531,3.4469,3.4313,3.4313,3.4508,3.4626,3.4674,3.4876,3.4453,3.3666,3.3707,3.3682,3.3415,3.3373,3.339,3.3386,3.3386,3.3386,3.3386,3.3386,3.3386,3.3347,3.3187,3.3027,3.2891,3.2461,3.1931,3.1496,3.1325,3.1286,3.118,3.0702,3.0087,2.923,2.8439,2.8202,2.8212,2.7987,2.7504,2.6488,2.5491,2.4297,2.3138,2.3153,2.3327,2.2744,2.1957,2.2181,2.2422,2.2418,2.2498,4.8027,4.7578,4.7148,4.6677,4.6211,4.5861,4.584,4.6035,4.535,4.5449,4.5801,4.4902,4.4805,4.5156,4.4219,4.3945,4.4297,4.3984,4.3867,4.3867,4.3828,4.3789,4.3711,4.3691,4.3691,4.3691,4.3691,4.3691,4.3691,4.3691,4.3691,4.3691,4.3691,4.3691,4.3555,4.3262,4.2852,4.2499,4.2421,4.2402,4.2402,4.205,4.2031,4.2324,4.123,4.041,4.0059,3.9746,3.9335,3.8651,3.7988,3.7033,3.5937,3.5879,3.5823,3.5605,3.5544,3.5703,3.5862,3.5801,3.5664,3.5784,3.5351,3.4922,3.5195,3.4941,3.4746,3.4766,3.5075,3.5173,3.5019,3.5379,3.5418,3.4892,3.4425,3.4195,3.4092,3.3734,3.3597,3.3539,3.3464,3.3406,3.3461,3.3461,3.3386,3.3386,3.3363,3.3324,3.3226,3.2934,3.2754,3.24,3.1953,3.1696,3.1595,3.1061,3.0524,3.0212,2.9506,2.922,2.9092,2.8831,2.8247,2.7286,2.6668,2.5439,2.4325,2.406,2.3461,2.2555,2.2228,2.2385,2.2452,2.2448,2.264,4.873,4.8008,4.7578,4.6973,4.6289,4.5881,4.5764,4.5803,4.5293,4.5371,4.5566,4.4824,4.4726,4.5037,4.4198,4.4121,4.4609,4.4393,4.4414,4.459,4.4336,4.4004,4.375,4.3691,4.3691,4.3691,4.3691,4.3691,4.3691,4.3691,4.3691,4.3691,4.3691,4.3691,4.3633,4.3321,4.3067,4.2871,4.2538,4.2598,4.2793,4.2441,4.248,4.2773,4.1953,4.1289,4.082,4.0234,3.9492,3.8631,3.7869,3.7307,3.6797,3.6621,3.6599,3.6719,3.6738,3.6677,3.658,3.6677,3.6543,3.6096,3.6094,3.5954,3.541,3.5293,3.5215,3.5234,3.5368,3.5388,3.5312,3.5703,3.5803,3.5647,3.502,3.4595,3.4495,3.4196,3.402,3.4222,3.3793,3.3675,3.373,3.3633,3.3441,3.3386,3.3386,3.3386,3.3324,3.3164,3.2898,3.2897,3.257,3.2237,3.1893,3.1394,3.1032,3.094,3.0405,2.9833,2.9573,2.9263,2.8411,2.7418,2.7713,2.6899,2.5146,2.4063,2.3194,2.3051,2.2856,2.313,2.2667,2.2516,2.2832,4.9098,4.846,4.805,4.7344,4.6582,4.6308,4.6113,4.5879,4.5508,4.5547,4.5683,4.5039,4.4979,4.5408,4.4647,4.4627,4.5176,4.4842,4.4783,4.4901,4.4744,4.4295,4.3848,4.3691,4.3691,4.3691,4.3691,4.3691,4.3691,4.3691,4.3691,4.3691,4.3691,4.3691,4.3671,4.3496,4.3263,4.3087,4.2812,4.2832,4.3048,4.2636,4.2792,4.3027,4.2519,4.1816,4.1191,4.0371,3.9551,3.8906,3.8359,3.7949,3.7578,3.7344,3.7322,3.7559,3.7402,3.7226,3.7264,3.7285,3.707,3.6719,3.6853,3.6697,3.6326,3.6072,3.5954,3.5974,3.5781,3.5647,3.5667,3.5862,3.5979,3.5901,3.553,3.5159,3.5036,3.4609,3.4492,3.4512,3.4297,3.3929,3.4118,3.3864,3.3633,3.3461,3.3386,3.3386,3.3347,3.3164,3.3062,3.3074,3.3002,3.2667,3.2439,3.203,3.1607,3.148,3.0974,3.0423,3.0247,2.9879,2.9176,2.8568,2.8699,2.8264,2.66,2.5404,2.5316,2.5067,2.4402,2.3934,2.3714,2.3655,2.3826,4.9394,4.8991,4.8499,4.7832,4.7185,4.7009,4.6716,4.6348,4.5996,4.5996,4.6055,4.5449,4.5506,4.6228,4.5252,4.5254,4.5725,4.5293,4.5137,4.5137,4.5018,4.4686,4.4042,4.3887,4.3867,4.3828,4.375,4.3711,4.3691,4.3691,4.3691,4.3691,4.3691,4.3691,4.3691,4.3672,4.3496,4.3242,4.3087,4.3106,4.3145,4.2832,4.291,4.3223,4.2499,4.1836,4.1172,4.043,3.9784,3.9315,3.9199,3.8575,3.7988,3.7873,3.7931,3.7912,3.7734,3.7656,3.7793,3.7598,3.74,3.7266,3.7266,3.7324,3.7109,3.6834,3.6656,3.6558,3.6289,3.6116,3.6113,3.6116,3.6233,3.6252,3.6135,3.5881,3.5547,3.5078,3.4785,3.4805,3.4785,3.4528,3.4352,3.4153,3.402,3.3945,3.3793,3.3754,3.3695,3.3555,3.3406,3.3293,3.3187,3.3051,3.2879,3.2729,3.2325,3.1991,3.1383,3.095,3.1022,3.0686,3.0209,2.9815,2.9561,2.919,2.8454,2.7751,2.7242,2.6577,2.5618,2.5528,2.5571,2.5631,2.5774,5.0293,4.9848,4.9066,4.8659,4.8363,4.7734,4.7187,4.6755,4.6658,4.6501,4.623,4.5764,4.5859,4.6228,4.5506,4.543,4.6035,4.5723,4.5568,4.5547,4.5527,4.5254,4.4725,4.4453,4.4258,4.416,4.3867,4.3711,4.3691,4.3691,4.3691,4.3691,4.3691,4.3691,4.3691,4.3691,4.3691,4.3516,4.3282,4.3302,4.3418,4.3125,4.3008,4.3165,4.2148,4.1484,4.1172,4.0664,4.0195,3.9707,3.9121,3.8613,3.8126,3.797,3.8087,3.8301,3.8338,3.8182,3.8027,3.8086,3.8006,3.748,3.7619,3.7656,3.7324,3.7246,3.7029,3.6795,3.6599,3.6541,3.656,3.6836,3.6894,3.6855,3.668,3.6484,3.6289,3.572,3.541,3.5452,3.5137,3.4805,3.5036,3.4687,3.4551,3.4434,3.4316,3.4238,3.4101,3.3945,3.37,3.3523,3.3472,3.3386,3.3408,3.3214,3.2784,3.2425,3.186,3.1596,3.1668,3.1562,3.1083,3.0618,3.0175,2.9848,2.9674,2.8567,2.7768,2.7271,2.6955,2.7053,2.7169,2.7402,2.7547,5.0566,5.0141,4.9476,4.8926,4.8538,4.8089,4.7519,4.7028,4.7126,4.6853,4.6406,4.623,4.6289,4.6269,4.5859,4.5918,4.6172,4.6094,4.5998,4.5976,4.5979,4.584,4.5605,4.5156,4.4844,4.4433,4.3926,4.373,4.3691,4.3691,4.3691,4.3691,4.3691,4.3691,4.3691,4.3691,4.3691,4.3672,4.3536,4.3496,4.3613,4.3301,4.3087,4.2989,4.2226,4.1699,4.1465,4.082,4.0351,3.9902,3.9452,3.9003,3.8536,3.834,3.8379,3.8534,3.8592,3.8514,3.8359,3.8416,3.8397,3.7949,3.8125,3.8084,3.7871,3.7734,3.7482,3.7266,3.7109,3.699,3.699,3.7127,3.7285,3.7266,3.7109,3.6912,3.6638,3.6094,3.5725,3.5881,3.5625,3.5391,3.5293,3.5117,3.4902,3.4707,3.4609,3.4531,3.4492,3.4287,3.3892,3.3724,3.3739,3.3761,3.3868,3.3666,3.3155,3.2791,3.2365,3.2311,3.2403,3.2245,3.2024,3.1587,3.1196,3.1139,3.0791,2.9588,2.8739,2.8542,2.8477,2.8576,2.8875,2.934,2.9395,5.0896,5.0258,4.9746,4.9078,4.8434,4.834,4.7832,4.7168,4.748,4.7207,4.6601,4.6814,4.6836,4.6562,4.6426,4.6387,4.6328,4.6406,4.6367,4.623,4.623,4.6211,4.6074,4.5723,4.5195,4.4512,4.4082,4.3848,4.373,4.3691,4.3691,4.3691,4.3691,4.3691,4.3691,4.3691,4.3691,4.3691,4.3672,4.3652,4.3672,4.3379,4.3223,4.2989,4.2461,4.2031,4.1641,4.1074,4.0449,4.0019,4.0,3.9746,3.9355,3.9023,3.8788,3.8827,3.8905,3.8905,3.8905,3.8866,3.8846,3.8788,3.869,3.8749,3.869,3.834,3.8047,3.7853,3.7676,3.7383,3.7383,3.7559,3.7559,3.7537,3.748,3.7226,3.6894,3.6465,3.6252,3.5979,3.5862,3.5742,3.5625,3.5488,3.5215,3.5,3.4922,3.4844,3.4824,3.4713,3.4383,3.4091,3.4125,3.4144,3.4248,3.4079,3.3585,3.338,3.2963,3.2966,3.3055,3.2854,3.2679,3.2625,3.2378,3.2192,3.1921,3.1116,3.0471,3.0114,2.997,3.0073,3.0577,3.1272,3.1093,5.2295,5.0625,4.982,4.941,4.9234,4.8929,4.8265,4.7617,4.7952,4.7617,4.6931,4.7266,4.7444,4.7249,4.6931,4.6641,4.6462,4.6579,4.6599,4.6365,4.6328,4.6308,4.623,4.5937,4.543,4.492,4.4512,4.416,4.3769,4.3691,4.3691,4.3691,4.3691,4.3691,4.3691,4.3691,4.3691,4.3691,4.3691,4.3691,4.3672,4.3594,4.3419,4.3126,4.25,4.207,4.1816,4.1387,4.0879,4.0469,4.041,4.0176,3.9922,3.9745,3.9667,3.9569,3.9531,3.9511,3.9512,3.959,3.9667,3.959,3.9316,3.9316,3.9336,3.8964,3.8516,3.832,3.8086,3.7795,3.7832,3.8047,3.8319,3.828,3.8008,3.7773,3.7598,3.7248,3.674,3.6311,3.6135,3.5979,3.5859,3.5781,3.5644,3.5527,3.5508,3.5371,3.529,3.5195,3.5031,3.4784,3.458,3.459,3.4629,3.4359,3.4063,3.4089,3.3805,3.3591,3.361,3.3428,3.3306,3.3254,3.3056,3.274,3.2465,3.2249,3.1769,3.1132,3.1257,3.148,3.1767,3.2052,3.2319,5.1551,5.0434,4.9785,4.9394,4.916,4.8988,4.8519,4.805,4.8363,4.8089,4.7578,4.7676,4.7637,4.7285,4.7028,4.6775,4.6736,4.6794,4.6794,4.6599,4.6426,4.6308,4.6374,4.6139,4.5762,4.543,4.5138,4.4531,4.3789,4.3711,4.373,4.3691,4.3691,4.3691,4.3691,4.3691,4.3691,4.3691,4.3691,4.3691,4.3691,4.3691,4.3575,4.3281,4.2832,4.252,4.2364,4.1797,4.1426,4.1191,4.0996,4.0762,4.0625,4.0507,4.0371,4.0019,3.9922,3.9902,3.9902,3.9883,3.9863,3.9882,3.9668,3.9668,3.9668,3.9297,3.8846,3.8592,3.8475,3.8262,3.8262,3.8475,3.8573,3.8553,3.8377,3.8164,3.7933,3.7681,3.723,3.6738,3.6616,3.6384,3.5999,3.5959,3.5999,3.6018,3.6038,3.5918,3.5759,3.5605,3.5488,3.5393,3.5159,3.5003,3.5,3.4782,3.4606,3.4629,3.4473,3.4238,3.418,3.4046,3.393,3.3866,3.3621,3.3341,3.3187,3.2999,3.2546,3.2145,3.212,3.2166,3.2461,3.2754,3.2938,5.117,5.0043,4.957,4.9199,4.891,4.8894,4.8636,4.8359,4.8675,4.8441,4.7855,4.8105,4.791,4.7341,4.7185,4.7146,4.7067,4.7067,4.7009,4.6927,4.7034,4.6922,4.6878,4.6797,4.6731,4.6464,4.5674,4.5121,4.4237,4.3945,4.3867,4.3848,4.3808,4.3691,4.3691,4.3691,4.3691,4.3691,4.3691,4.3691,4.3691,4.3691,4.3691,4.3652,4.3301,4.3048,4.2911,4.2187,4.1797,4.1621,4.1406,4.1152,4.1191,4.1211,4.0859,4.0312,4.0195,4.0175,4.0176,4.0215,4.0293,4.0312,4.0098,4.0078,4.0039,3.9746,3.9141,3.8749,3.8573,3.8553,3.8534,3.8592,3.8592,3.8592,3.8573,3.8475,3.8205,3.7972,3.7798,3.7404,3.7181,3.6908,3.6599,3.6467,3.6565,3.6465,3.6484,3.6309,3.615,3.5937,3.5842,3.5881,3.5764,3.551,3.5391,3.527,3.5156,3.5159,3.4883,3.457,3.4629,3.4668,3.4537,3.4347,3.4298,3.4041,3.3917,3.3638,3.3133,3.2797,3.2731,3.2747,3.288,3.3011,3.3176,5.3188,4.957,4.9144,4.8933,4.8913,4.8894,4.8636,4.832,4.8737,4.8617,4.8164,4.8558,4.848,4.8047,4.7949,4.7793,4.7581,4.7383,4.7321,4.7339,4.8014,4.8482,4.8676,4.8697,4.8278,4.7694,4.6478,4.5476,4.4842,4.4512,4.4297,4.4219,4.3965,4.3691,4.3711,4.3789,4.3691,4.3711,4.3691,4.3691,4.3691,4.3691,4.3691,4.3594,4.3359,4.3145,4.3067,4.2422,4.1933,4.1797,4.1445,4.123,4.1211,4.1211,4.1172,4.1074,4.1074,4.1035,4.0957,4.0898,4.0879,4.08,4.0625,4.0703,4.0547,4.0176,3.9492,3.8671,3.8631,3.8669,3.8671,3.8612,3.8592,3.8592,3.8592,3.8592,3.8476,3.8514,3.8301,3.82,3.7998,3.7667,3.7357,3.7244,3.7148,3.7031,3.6892,3.6716,3.6482,3.6211,3.6018,3.6018,3.6018,3.5784,3.5686,3.5566,3.5586,3.5647,3.5354,3.4983,3.5064,3.5109,3.4879,3.4724,3.4694,3.4494,3.4127,3.3801,3.3531,3.3354,3.3186,3.3147,3.3137,3.3285,3.3415,5.4137,5.0966,4.9509,4.8894,4.8894,4.8894,4.8773,4.8656,4.8815,4.8796,4.8656,4.8773,4.8636,4.8262,4.7988,4.7754,4.7539,4.7344,4.7775,4.8244,4.8922,4.9594,5.0358,5.0442,5.004,4.879,4.7875,4.6927,4.6018,4.5057,4.4647,4.4433,4.4394,4.4139,4.3887,4.3984,4.3906,4.3789,4.3691,4.3691,4.3691,4.3691,4.3691,4.3691,4.3496,4.3458,4.3262,4.293,4.2383,4.2168,4.1758,4.1406,4.125,4.1211,4.1191,4.1191,4.1191,4.1172,4.1172,4.1211,4.1211,4.1172,4.0976,4.0879,4.0781,4.0469,4.0,3.9414,3.9082,3.8964,3.8885,3.8729,3.8631,3.8612,3.8651,3.8788,3.8866,3.8999,3.8959,3.8898,3.8779,3.839,3.8003,3.7772,3.7578,3.7344,3.7166,3.6951,3.6638,3.625,3.6096,3.6018,3.6018,3.5959,3.5901,3.5859,3.5898,3.592,3.5901,3.5611,3.5577,3.5493,3.528,3.5095,3.502,3.4725,3.4321,3.4216,3.4199,3.393,3.3627,3.3673,3.3717,3.3596,3.3763,5.5253,5.2664,5.0509,4.961,4.9587,4.9587,4.9656,4.961,4.9659,4.9358,4.8943,4.8773,4.8558,4.8304,4.7913,4.7698,4.7715,4.7165,4.806,4.8995,4.9888,5.0801,5.1827,5.2222,5.1496,4.9741,4.8997,4.792,4.6607,4.574,4.5154,4.4726,4.4822,4.4627,4.4297,4.4199,4.4141,4.373,4.3691,4.3691,4.3691,4.3691,4.3691,4.3691,4.3691,4.3691,4.3652,4.3262,4.2832,4.2598,4.2167,4.1836,4.1621,4.1641,4.1601,4.1601,4.1641,4.1621,4.1523,4.1406,4.123,4.1211,4.1152,4.0957,4.0586,4.0489,4.0313,3.9824,3.959,3.9414,3.9316,3.912,3.8983,3.8905,3.8807,3.8965,3.912,3.927,3.9289,3.9156,3.9038,3.898,3.863,3.8281,3.8008,3.7733,3.7479,3.7225,3.6801,3.6357,3.6262,3.6206,3.6499,3.6502,3.6428,3.6369,3.633,3.6252,3.6252,3.6291,3.6277,3.6023,3.5733,3.5568,3.5297,3.5295,3.5078,3.4975,3.4854,3.4441,3.4148,3.4296,3.4319,3.4143,3.4059,5.6997,5.4168,5.2363,5.1575,5.1507,5.1507,5.153,5.1552,5.1462,5.0368,4.8947,4.863,4.8787,4.8499,4.7991,4.7757,4.8047,4.7282,4.8325,4.9689,5.0931,5.2329,5.3341,5.3571,5.3066,5.1399,4.9868,4.8231,4.7056,4.6326,4.5918,4.5646,4.5371,4.5076,4.4744,4.4492,4.416,4.3789,4.3691,4.3691,4.3691,4.3691,4.3691,4.3691,4.3691,4.3691,4.3672,4.336,4.3087,4.2969,4.2598,4.2285,4.2128,4.2109,4.2089,4.2089,4.2109,4.2109,4.2031,4.166,4.1289,4.1211,4.1191,4.1074,4.0664,4.0547,4.0313,4.0097,3.9941,3.9863,3.9844,3.9784,3.9453,3.9276,3.9159,3.9238,3.9392,3.948,3.9501,3.9352,3.9315,3.9296,3.9295,3.8965,3.8496,3.8221,3.7773,3.7502,3.6938,3.6536,3.6495,3.6586,3.7066,3.7179,3.7148,3.7051,3.6838,3.6799,3.6818,3.6934,3.7033,3.6683,3.6045,3.5621,3.5327,3.5574,3.5784,3.5623,3.5341,3.4857,3.4684,3.4899,3.4944,3.4843,3.4646,5.8477,5.7071,5.6319,5.5027,5.3437,5.3726,5.3859,5.357,5.2319,5.0644,4.9058,4.9799,4.9637,4.8642,4.7933,4.748,4.7542,4.8117,4.9306,5.0931,5.2519,5.3587,5.4263,5.3979,5.2935,5.0846,4.9315,4.8113,4.664,4.6543,4.6426,4.6113,4.582,4.5449,4.5117,4.4687,4.4219,4.3848,4.3711,4.3711,4.3691,4.3691,4.3691,4.3691,4.3691,4.3691,4.3672,4.3574,4.336,4.3125,4.293,4.2734,4.2538,4.248,4.248,4.248,4.248,4.248,4.246,4.2089,4.1855,4.1602,4.1562,4.1406,4.1016,4.0937,4.0879,4.0683,4.043,4.0351,4.0273,4.0059,3.9746,3.959,3.9551,3.9609,3.9665,3.9756,3.9776,3.9667,3.9687,3.9706,3.9706,3.9687,3.916,3.8672,3.8224,3.7741,3.7231,3.69,3.6936,3.7204,3.7706,3.7763,3.7749,3.7557,3.7363,3.7441,3.75,3.7617,3.7661,3.6685,3.6083,3.5672,3.5622,3.6059,3.6254,3.6168,3.5902,3.5538,3.5468,3.5538,3.5549,3.5522,3.5321,5.9754,5.8896,5.9481,5.8209,5.5945,5.6119,5.6249,5.5922,5.4477,5.2431,5.0689,5.1915,5.0957,4.91,4.9212,4.8715,4.875,4.9369,5.0865,5.2307,5.3569,5.4551,5.4937,5.4719,5.3742,5.0676,4.9636,4.891,4.6648,4.668,4.6504,4.6328,4.6269,4.5879,4.5525,4.498,4.4492,4.4043,4.3906,4.3789,4.375,4.3691,4.3691,4.3691,4.3691,4.3691,4.3691,4.3633,4.3555,4.3379,4.3263,4.3125,4.293,4.2792,4.2792,4.2773,4.2773,4.2773,4.2753,4.248,4.2304,4.2031,4.1972,4.1836,4.1641,4.1523,4.1543,4.1328,4.1035,4.082,4.0762,4.0527,4.0273,4.0136,3.9941,3.9961,3.9942,4.0017,4.0017,4.0001,3.9961,3.9804,3.9491,3.9433,3.9413,3.9082,3.9062,3.8461,3.771,3.7492,3.7524,3.7927,3.8496,3.8423,3.8274,3.8396,3.8516,3.8594,3.8594,3.8437,3.8178,3.7284,3.6699,3.6522,3.6579,3.6743,3.7055,3.7441,3.6978,3.6318,3.6414,3.6604,3.6405,3.6364,3.6029,6.0861,5.9087,6.1125,6.0685,5.8679,5.8615,5.8637,5.8573,5.7888,5.6184,5.3947,5.4124,5.2434,5.0269,5.1224,5.1001,5.0513,5.1209,5.2496,5.3733,5.453,5.5446,5.5832,5.5674,5.3723,5.2539,5.074,4.871,4.6777,4.6641,4.6404,4.6328,4.6289,4.6191,4.6169,4.584,4.5217,4.4512,4.4394,4.4141,4.3887,4.3808,4.3808,4.3691,4.3691,4.3691,4.3691,4.3691,4.3633,4.3594,4.3574,4.3516,4.3476,4.3476,4.3496,4.3516,4.3555,4.3574,4.3574,4.2851,4.2538,4.2421,4.2402,4.2304,4.2324,4.2265,4.205,4.168,4.1601,4.1445,4.1308,4.1094,4.08,4.0664,4.0488,4.0371,4.041,4.0079,4.004,4.0254,4.0,3.9668,3.9237,3.9022,3.9296,3.9394,3.9668,3.926,3.8426,3.8184,3.8234,3.8608,3.9166,3.9189,3.9174,3.951,3.9668,3.9726,3.957,3.9258,3.9105,3.8671,3.8113,3.7631,3.7575,3.7778,3.8362,3.895,3.8269,3.7668,3.769,3.7744,3.7493,3.715,3.6793,6.2077,6.1125,6.2167,6.2167,6.1416,6.1125,6.1021,6.0938,6.0312,5.8147,5.5049,5.4499,5.3907,5.268,5.1808,5.1978,5.2109,5.3376,5.4511,5.4367,5.5385,5.5365,5.5446,5.4492,5.2645,5.0358,4.891,4.8307,4.6484,4.6501,4.6462,4.6387,4.6289,4.6133,4.5918,4.5686,4.5373,4.4922,4.4764,4.4588,4.4238,4.4141,4.4004,4.373,4.3691,4.3691,4.3691,4.3691,4.3691,4.3691,4.3691,4.3691,4.3691,4.3691,4.3691,4.3691,4.3691,4.3691,4.3672,4.3339,4.3144,4.2969,4.2851,4.2734,4.248,4.2402,4.2167,4.1953,4.1933,4.1699,4.1289,4.1211,4.1074,4.123,4.1133,4.1035,4.0899,4.0254,4.0019,4.041,4.041,3.996,3.9511,3.9315,3.9453,3.9648,3.9902,3.9883,3.9222,3.9073,3.908,3.94,3.9778,3.9878,4.0017,4.0117,4.0117,4.0039,3.9922,3.9726,3.9612,3.9635,3.9541,3.901,3.8897,3.886,3.9392,3.9737,3.9452,3.9128,3.8838,3.8282,3.771,3.7573,3.7531,6.2916,6.2504,6.2925,6.2978,6.2766,6.2516,6.2269,6.1961,6.1485,5.8873,5.5356,5.5115,5.4434,5.3427,5.3211,5.3018,5.3786,5.521,5.5731,5.5452,5.6358,5.6254,5.5224,5.3854,5.2889,5.0273,4.8761,4.7942,4.6413,4.6582,4.6523,4.6348,4.6308,4.6191,4.5996,4.59,4.5725,4.5371,4.5215,4.4941,4.4551,4.4316,4.416,4.3848,4.3691,4.3691,4.3691,4.3691,4.3691,4.3691,4.3691,4.3691,4.3691,4.3691,4.3691,4.3691,4.3691,4.3691,4.3691,4.3672,4.3457,4.334,4.3321,4.3184,4.293,4.2948,4.2695,4.2461,4.2226,4.1953,4.1699,4.1602,4.1621,4.1777,4.1621,4.1523,4.1308,4.0703,4.0291,4.0682,4.037,3.9999,3.9746,3.9785,3.9766,3.9941,4.0117,4.0059,4.0019,3.9925,3.9754,3.9924,4.0252,4.0428,4.0487,4.0527,4.0488,4.0371,4.0234,4.0117,4.0235,4.0275,4.0352,4.041,4.0143,4.0047,4.0354,4.0471,4.0067,3.9719,3.9388,3.8751,3.7985,3.7923,3.805,6.3329,6.2927,6.345,6.3324,6.2852,6.269,6.2261,6.1523,6.1416,5.8889,5.5027,5.6771,5.5857,5.3551,5.5236,5.6068,5.5984,5.7135,5.7043,5.6861,5.6921,5.6738,5.6658,5.6053,5.3733,5.2224,5.0611,4.8418,4.6551,4.6387,4.6367,4.6308,4.6308,4.625,4.6211,4.6152,4.5996,4.5762,4.5549,4.5176,4.4707,4.4414,4.4141,4.3848,4.3691,4.3691,4.3691,4.3691,4.3691,4.3691,4.3691,4.3691,4.3691,4.3691,4.3691,4.3691,4.3691,4.3691,4.3691,4.3691,4.3691,4.3594,4.3633,4.3652,4.3594,4.3437,4.3183,4.2989,4.2794,4.2598,4.2382,4.2324,4.2265,4.2168,4.1953,4.1836,4.1739,4.1347,4.0896,4.0621,4.0016,3.9646,3.9569,3.9609,3.9961,4.0254,4.0391,4.043,4.043,4.0566,4.0373,4.012,4.0507,4.0918,4.0937,4.0781,4.0722,4.0547,4.0625,4.0586,4.0723,4.0762,4.0781,4.082,4.1054,4.1113,4.0976,4.0821,4.0588,4.0198,3.9633,3.9106,3.8315,3.8465,3.8615,6.335,6.2877,6.345,6.3354,6.2777,6.24,6.1937,6.147,6.0783,5.9425,5.8556,5.7699,5.7118,5.7804,5.7409,5.7401,5.7766,5.7993,5.7625,5.7337,5.7001,5.7001,5.6638,5.5852,5.3836,5.2057,5.0379,4.8954,4.6834,4.6308,4.6308,4.6308,4.6308,4.6308,4.6308,4.6308,4.6191,4.6055,4.5842,4.5334,4.4844,4.4512,4.416,4.3848,4.3691,4.3691,4.3691,4.3691,4.3691,4.3691,4.3691,4.3691,4.3691,4.3691,4.3691,4.3691,4.3691,4.3691,4.3691,4.3691,4.3691,4.3691,4.3691,4.3691,4.3691,4.3652,4.3496,4.3321,4.3184,4.2949,4.2753,4.2675,4.2734,4.2695,4.2402,4.2129,4.1993,4.1641,4.121,4.0721,4.0115,3.9841,3.9687,3.9746,4.0117,4.0449,4.0664,4.0684,4.0761,4.0859,4.0723,4.0449,4.045,4.0801,4.0879,4.0742,4.0762,4.0762,4.0723,4.0684,4.0684,4.0742,4.0996,4.1133,4.1191,4.1191,4.1172,4.0938,4.0626,4.0137,3.959,3.9175,3.8857,3.8937,3.9018,6.3329,6.2927,6.3429,6.335,6.2686,6.1792,6.1401,6.133,6.0632,5.9861,5.8698,5.7756,5.802,5.8424,5.7615,5.753,5.8444,5.8166,5.7742,5.7193,5.7001,5.7001,5.6478,5.5752,5.4061,5.2118,5.04,4.9082,4.6989,4.6308,4.6308,4.6308,4.6308,4.6308,4.6308,4.6308,4.6308,4.6133,4.5859,4.5371,4.4922,4.4531,4.416,4.3808,4.3711,4.3691,4.3691,4.3691,4.3691,4.3691,4.3691,4.3691,4.3691,4.3691,4.3691,4.3691,4.3691,4.3691,4.3691,4.3691,4.3691,4.3691,4.3691,4.3691,4.3691,4.3672,4.3555,4.3418,4.334,4.3242,4.3086,4.2948,4.3125,4.3302,4.2852,4.2422,4.211,4.1797,4.1387,4.0957,4.0585,4.0254,4.0137,4.0137,4.0195,4.0449,4.0605,4.0644,4.0742,4.0898,4.0723,4.0469,4.043,4.0528,4.0586,4.0625,4.0547,4.0469,4.0351,4.0371,4.0469,4.0664,4.0879,4.1054,4.1191,4.1211,4.1191,4.0821,4.0451,4.004,3.9784,3.9509,3.9272,3.9213,3.9294,6.335,6.2852,6.3379,6.3249,6.2565,6.1175,6.0855,6.1285,6.067,5.9291,5.7503,5.7514,5.7845,5.8196,5.7617,5.7716,5.8161,5.8055,5.7646,5.7025,5.7001,5.7001,5.7001,5.6742,5.4571,5.2721,5.1053,4.9488,4.7097,4.6308,4.6308,4.6308,4.6308,4.6308,4.6308,4.6308,4.625,4.6055,4.5703,4.5234,4.4707,4.4375,4.416,4.3789,4.3691,4.3691,4.3691,4.3691,4.3691,4.3691,4.3691,4.3691,4.3691,4.3691,4.3691,4.3691,4.3691,4.3691,4.3691,4.3691,4.3691,4.3691,4.3691,4.3691,4.3691,4.3691,4.3613,4.3574,4.3516,4.3516,4.3379,4.334,4.3457,4.334,4.2988,4.2598,4.2285,4.1855,4.1348,4.0976,4.0742,4.0469,4.0488,4.0488,4.0605,4.0644,4.0762,4.0859,4.0801,4.0976,4.0781,4.0508,4.045,4.043,4.0391,4.041,4.0254,4.0156,4.0176,4.0234,4.0489,4.0625,4.0742,4.0976,4.1211,4.1211,4.1133,4.0704,4.0412,4.0334,4.0098,3.9902,3.9744,3.9682,3.9627,6.335,6.2807,6.2952,6.2676,6.2084,6.0981,6.039,6.0236,5.9748,5.9477,5.9335,5.9375,5.9193,5.8714,5.8477,5.8433,5.792,5.7814,5.7478,5.7145,5.7001,5.7001,5.6921,5.6638,5.4775,5.2784,5.1137,4.9594,4.7076,4.6308,4.6308,4.6308,4.6308,4.6308,4.6308,4.6308,4.6191,4.5976,4.5469,4.5215,4.4941,4.4238,4.3769,4.3711,4.3711,4.373,4.373,4.3691,4.3691,4.3691,4.3691,4.3691,4.3691,4.3691,4.3691,4.3691,4.3691,4.3691,4.3691,4.3691,4.3691,4.3691,4.3691,4.3691,4.3691,4.3691,4.3691,4.3691,4.3691,4.3691,4.3691,4.3691,4.3652,4.3398,4.3144,4.2792,4.246,4.1914,4.1348,4.1074,4.0859,4.084,4.0859,4.0918,4.0996,4.1191,4.1426,4.1465,4.1152,4.1094,4.0839,4.0586,4.0469,4.043,4.0332,4.0371,4.0332,4.0508,4.0644,4.0644,4.0586,4.0762,4.0957,4.1074,4.1211,4.1211,4.0997,4.047,4.0274,4.0429,4.0446,4.0285,4.0403,4.0401,4.0211,6.2621,6.2099,6.2074,6.1943,6.1507,6.0577,6.0139,6.0051,5.9437,5.948,5.9946,5.9874,5.9663,5.923,5.8941,5.8553,5.781,5.7506,5.7265,5.7073,5.7001,5.7001,5.6821,5.6214,5.4143,5.2099,4.9828,4.7922,4.6507,4.6308,4.6308,4.6308,4.6308,4.6308,4.6308,4.6269,4.6191,4.5957,4.533,4.5154,4.5135,4.4531,4.3887,4.3828,4.3846,4.3846,4.373,4.3691,4.3691,4.3691,4.3691,4.3691,4.3691,4.3691,4.3691,4.3691,4.3691,4.3691,4.3691,4.3691,4.3691,4.3691,4.3691,4.3691,4.3691,4.3691,4.3691,4.3691,4.3691,4.3691,4.3691,4.3691,4.3691,4.3535,4.3398,4.3203,4.2695,4.2129,4.1719,4.1484,4.1367,4.1367,4.1387,4.1387,4.1445,4.1387,4.168,4.1543,4.1328,4.1191,4.0918,4.0742,4.0664,4.0371,4.0137,4.0312,4.0566,4.0781,4.1113,4.1211,4.123,4.1172,4.1211,4.123,4.125,4.1211,4.0899,4.0528,4.0543,4.0796,4.0791,4.0685,4.0865,4.1046,4.1126,6.1642,6.1235,6.1215,6.116,6.0955,6.0103,5.9935,6.0178,5.9498,5.9357,5.9731,5.9489,5.9367,5.8989,5.8401,5.8015,5.7658,5.7329,5.7069,5.7025,5.7001,5.7001,5.6358,5.5261,5.3238,5.08,4.8332,4.7293,4.6352,4.6308,4.6308,4.6308,4.6308,4.6308,4.6308,4.6308,4.625,4.6055,4.5683,4.543,4.5176,4.4883,4.4336,4.4121,4.4141,4.416,4.3926,4.373,4.373,4.3691,4.3691,4.3691,4.3691,4.3691,4.3691,4.3691,4.3691,4.3691,4.3691,4.3691,4.3691,4.3691,4.3691,4.3691,4.3691,4.3691,4.3691,4.3691,4.3691,4.3691,4.3691,4.3691,4.3691,4.3652,4.3574,4.3398,4.2832,4.2285,4.2031,4.1797,4.1719,4.1719,4.1719,4.1738,4.1758,4.168,4.1582,4.1387,4.125,4.123,4.1094,4.0976,4.0918,4.0566,4.039,4.0508,4.0957,4.1289,4.1641,4.1777,4.1816,4.1601,4.1445,4.1348,4.1348,4.1308,4.1152,4.0878,4.0973,4.0989,4.0833,4.0713,4.1006,4.1263,4.1929,6.1311,6.119,6.119,6.0914,6.0409,5.9884,5.9781,5.9757,5.9345,5.9352,5.9598,5.9366,5.9132,5.9112,5.8584,5.8148,5.7724,5.7264,5.7065,5.7001,5.7021,5.7021,5.6174,5.4347,5.2285,4.9764,4.7445,4.6595,4.6308,4.6308,4.6308,4.6308,4.6308,4.6308,4.6308,4.6308,4.6269,4.6113,4.5898,4.5607,4.5391,4.5098,4.4705,4.453,4.4512,4.4414,4.4199,4.3887,4.375,4.3691,4.3691,4.3691,4.3691,4.3691,4.3691,4.3691,4.3691,4.3691,4.3691,4.3691,4.3691,4.3691,4.3691,4.3691,4.3691,4.3691,4.3691,4.3691,4.3691,4.3691,4.3691,4.3691,4.3691,4.3594,4.3536,4.3164,4.2715,4.2324,4.2031,4.1797,4.1641,4.1602,4.1543,4.1621,4.1797,4.1777,4.1855,4.1641,4.125,4.123,4.123,4.123,4.1172,4.1621,4.1797,4.1308,4.1543,4.1875,4.2011,4.2012,4.1953,4.1894,4.1738,4.1465,4.1465,4.1484,4.1308,4.1054,4.0897,4.0798,4.0663,4.0624,4.1012,4.1479,4.2067]}]]